     2              OBSERVATION DATA    GPS                 RINEX VERSION / TYPE
teqc 1997Jul24 19970814                                     PGM / RUN BY / DATE
                                                            COMMENT
Original Marker Name: TID8                                  COMMENT
Campaign Name: HPGN 1991                                    COMMENT
4-Character Station Name: TID8                              COMMENT
6-Character Antenna Code: TRMSST                            COMMENT
Vertical Measurement Point: BPA                             COMMENT
Vertical Offset to Rinex Ref. Point: 0.0000                 COMMENT
Radial Measurement Point: RRP                               COMMENT
Radial Offset to Rinex Ref. Point: 0.0000                   COMMENT
Antenna Height from Field Measurement: 2.2200 m             COMMENT
Original XYZ: -2515448.4770 -4677004.5116 3520628.0434      COMMENT
New XYZ position is based on association with SCEC monument COMMENT
E1C7V3E6+0011. Position of that monument is believed to be  COMMENT
valid to within 1 m horizontally; vertical accuracy         COMMENT
should be no worse than 3-times this value.                 COMMENT
                                                            COMMENT
Revised Rinex header created by UCSD GPS archive for        COMMENT
GSAC on 06-Apr-1999 (1999:096) 00:24:45 GMT                 COMMENT
For assistance contact dagnew@ucsd.edu or hjohnson@ucsd.edu COMMENT
                                                            COMMENT
14 FT ABOVE ML LW 8                                         MARKER NAME
unknown CALIF DEPT TRANSPORTATION                           OBSERVER / AGENCY
622 TRIMBLE 4000 SST NP 4.30 / SP 4.20                      REC # / TYPE / VERS
123 TR 4000SST L1/L2 GEO                                    ANT # / TYPE
 -2515450.0000 -4677007.0000  3520624.0000                  APPROX POSITION XYZ
        2.2200        0.0000        0.0000                  ANTENNA: DELTA H/E/N
     1     1     0                                          WAVELENGTH FACT L1/2
     3    C1    L1    L2                                    # / TYPES OF OBSERV
     0                                                      INTERVAL
  1991     4    15    20    27   45.000000                  TIME OF FIRST OBS
  1991     4    16     2    30   15.000000                  TIME OF LAST OBS
     0                                                      # OF SATELLITES
                                                            END OF HEADER
 91  4 15 20 27 45.0000000  0  4G18G 2G11G19
  20739684.2034         -0.14358        -0.23873
  23835129.9614         -0.85256        -0.38971
  23828776.102          -0.07516        -0.40131
  21007617.5234         -0.47057        -0.49172
 91  4 15 20 28  0.0000000  0  4G18G 2G11G19
  20743969.0784      22523.04348     17550.26163
  23827327.5784     -40997.19046    -31945.40461
  23824009.4774     -25037.91146    -19510.27961
  21008198.7274       3056.51347      2381.58362
 91  4 15 20 28 15.0000000  0  4G18G 2G11G19
  20748272.4454      45139.27748     35173.27063
  23819533.234      -81964.577 6    -63867.85221
  23819255.3834     -49998.53046    -38959.98861
  21008785.1484       6135.51547      4780.81562
 91  4 15 20 28 30.0000000  0  4G18G 2G11G19
  20752596.6644      67854.49448     52873.40863
  23811739.2274    -122896.69046    -95762.82861
  23814523.3524     -74875.43846    -58344.46961
  21009373.9614       9242.65347      7201.96562
 91  4 15 20 28 45.0000000  0  4G18G 2G11G19
  20756937.258       90673.684 8     70654.56423
  23803961.031     -163788.293 6   -127626.22621
  23809810.406      -99663.198 6    -77659.48521
  21009972.797       12382.819 7      9648.85922
 91  4 15 20 29  0.0000000  0  4G18G 2G11G19
  20761300.8284     113598.29448     88517.86963
  23796189.1094    -204637.84646   -159456.85561
  23805110.922     -124360.132 6    -96903.72121
  21010575.6484      15557.39947     12122.56362
 91  4 15 20 29 15.0000000  0  4G18G 2G11G19
  20765683.7274     136633.35548    106467.23063
  23788420.539     -245440.163 6   -191250.69121
  23800430.3364    -148960.70746   -116072.86961
  21011190.5784      18771.54647     14627.10062
 91  4 15 20 29 30.0000000  0  4G18G 2G11G19
  20770088.1884     159778.40948    124502.30163
  23780669.430     -286195.556 6   -223007.95421
  23795765.820     -173465.110 6   -135167.08321
  21011808.9614      22024.70246     17162.02562
 91  4 15 20 29 45.0000000  0  4G18G 2G11G19
  20774514.4304     183032.28248    142622.17463
  23772920.5554    -326905.18146   -254729.55561
  23791122.852     -197874.131 6   -154186.96521
  21012436.0004      25315.61047     19726.38962
 91  4 15 20 30  0.0000000  0  4G18G 2G11G19
  20778958.9614     206398.64648    160829.69663
  23765181.2424    -367564.77946   -286412.16161
  23786498.5704    -222183.72546   -173129.38061
  21013068.3054      28647.97147     22323.03762
 91  4 15 20 30 15.0000000  0  4G18G 2G11G19
  20783426.4144     229873.29748    179121.60063
  23757450.234     -408178.713 6   -318059.22221
  23781889.031     -246397.784 6   -191997.35221
  21013710.4534      32017.50747     24948.65462
 91  4 15 20 30 30.0000000  0  4G18G 2G11G19
  20787915.7974     253458.78948    197499.87663
  23749735.297     -448744.042 6   -349668.39821
  23777298.328     -270513.242 6   -210788.48021
  21014357.0864      35426.91147     27605.33562
 91  4 15 20 30 45.0000000  0  4G18G 2G11G19
  20792425.4064     277155.95148    215965.15663
  23742029.7734    -489259.72046   -381238.86461
  23772728.2344    -294528.87246   -229501.83361
  21015014.3594      38877.03247     30293.74462
 91  4 15 20 31  0.0000000  0  4G18G 2G11G19
  20796955.555      300962.123 8    234515.37523
  23734323.891     -529728.186 6   -412772.55221
  23768176.9144    -318446.96446   -248139.19361
  21015678.6414      42365.39747     33011.95262
 91  4 15 20 31 15.0000000  0  4G18G 2G11G19
  20801506.8524     324880.23548    253152.83063
  23726635.9774    -570146.29246   -444267.00361
  23763642.5164    -342264.18446   -266697.93261
  21016348.9454      45894.86547     35762.19062
 91  4 15 20 31 30.0000000  0  4G18G 2G11G19
  20806077.6884     348909.81848    271877.13763
  23718951.8284    -610514.35246   -475722.45561
  23759127.7504    -365980.64746   -285178.18261
  21017033.0394      49465.02547     38544.12862
 91  4 15 20 31 45.0000000  0  4G18G 2G11G19
  20810671.477      373049.900 8    290687.54823
  23711277.570     -650833.261 6   -507139.61021
  23754638.289     -389597.054 6   -303580.45221
  21017717.0474      53074.82947     41356.97062
 91  4 15 20 32  0.0000000  0  4G18G 2G11G19
  20815288.6024     397302.59548    309585.71562
  23703613.336     -691100.619 6   -538516.60121
  23750161.4384    -413110.61946   -321902.57161
  21018413.2274      56726.58947     44202.49462
 91  4 15 20 32 15.0000000  0  4G18G 2G11G19
  20819922.5164     421665.79448    328569.98463
  23695965.3834    -731318.53746   -569855.07661
  23745704.9304    -436523.30146   -340146.10961
  21019115.2894      60417.84847     47078.80362
 91  4 15 20 32 30.0000000  0  4G18G 2G11G19
  20824582.6954     446140.48848    347641.13263
  23688319.3984    -771485.66546   -601153.94661
  23741270.977     -459833.676 6   -358309.91021
  21019826.7504      64149.50647     49986.58862
 91  4 15 20 32 45.0000000  0  4G18G 2G11G19
  20829257.9224     470723.92348    366797.02663
  23680684.8524    -811604.66746   -632415.32461
  23736854.6954    -483044.34646   -376396.00461
  21020542.5234      67918.93247     52923.80762
 91  4 15 20 33  0.0000000  0  4G18G 2G11G19
  20833961.0634     495421.31848    386041.72263
  23673060.383     -851669.941 6   -663634.85721
  23732456.047     -506149.388 6   -394399.81121
  21021268.8754      71731.56546     55894.69662
 91  4 15 20 33 15.0000000  0  4G18G 2G11G19
  20838680.586      520229.362 8    405372.61523
  23665446.3594    -891684.75046   -694815.03961
  23728078.789     -529151.883 6   -412323.70921
  21022001.4144      75583.95547     58896.55662
 91  4 15 20 33 30.0000000  0  4G18G 2G11G19
  20843421.8834     545150.20648    424791.41763
  23657837.922     -931646.486 6   -725953.88221
  23723721.422     -552049.076 6   -430165.53821
  21022741.5704      79478.54647     61931.30362
 91  4 15 20 33 45.0000000  0  4G18G 2G11G19
  20848188.602      570188.537 8    444301.77023
  23650245.1174    -971550.53846   -757047.77961
  23719386.3594    -574836.17446   -447921.61061
  21023490.1094      83419.81747     65002.42862
 91  4 15 20 34  0.0000000  0  4G18G 2G11G19
  20852973.180      595336.868 8    463897.82623
  23642666.703    -1011404.146 6   -788102.36321
  23715068.4924    -597520.23246   -465597.36961
  21024249.3364      87400.31446     68104.11462
 91  4 15 20 34 15.0000000  0  4G18G 2G11G19
  20857780.883      620602.108 8    483584.97923
  23635091.117    -1051200.172 6   -819112.07721
  23710772.7424    -620093.87446   -483187.08561
  21025015.3674      91427.06047     71241.84462
 91  4 15 20 34 30.0000000  0  4G18G 2G11G19
  20862610.9454     645984.40048    503363.34663
  23627529.8444   -1090938.14246   -850076.54761
  23706500.5784    -642556.38946   -500690.21461
  21025787.6174      95500.33547     74415.82462
 91  4 15 20 34 45.0000000  0  4G18G 2G11G19
  20867461.3984     671477.44648    523228.02863
  23619973.6564   -1130624.44146   -881000.75861
  23702243.6724    -664913.96346   -518111.57761
  21026572.9144      99613.76946     77621.10262
 91  4 15 20 35  0.0000000  0  4G18G 2G11G19
  20872335.1414     697086.21648    543182.87463
  23612435.0234   -1170253.71146   -911880.54061
  23698011.656     -687161.072 6   -535446.85021
  21027362.6414     103772.54546     80861.71362
 91  4 15 20 35 15.0000000  0  4G18G 2G11G19
  20877230.0554     722809.04048    563226.59663
  23604904.398    -1209827.342 6   -942716.96121
  23693796.4844    -709298.97446   -552697.02761
  21028163.3594     107974.92447     84136.29362
 91  4 15 20 35 30.0000000  0  4G18G 2G11G19
  20882145.023      748643.793 8    583357.52823
  23597385.945    -1249347.702 6   -973511.87421
  23689604.5164    -731329.73046   -569863.73561
  21028971.8524     112218.62647     87443.07762
 91  4 15 20 35 45.0000000  0  4G18G 2G11G19
  20887084.453      774595.972 8    603579.96423
  23589874.4064   -1288808.92646  -1004260.72561
  23685434.563     -753247.461 6   -586942.38921
  21029788.6804     116509.11747     90786.31962
 91  4 15 20 36  0.0000000  0  4G18G 2G11G19
  20892044.789      800659.636 8    623889.26023
  23582375.484    -1328216.580 6  -1034967.81621
  23681283.242     -775057.603 6   -603937.17521
  21030613.5474     120840.54047     94161.45762
 91  4 15 20 36 15.0000000  0  4G18G 2G11G19
  20897023.9614     826830.88248    644282.40163
  23574883.4064   -1367573.95546  -1065635.72461
  23677152.336     -796763.386 6   -620850.65721
  21031444.1484     125209.40947     97565.77162
 91  4 15 20 36 30.0000000  0  4G18G 2G11G19
  20902028.195      853117.130 8    664765.14123
  23567404.578    -1406873.759 6  -1096258.78821
  23673041.8444    -818357.12846   -637676.83261
  21032283.0784     129622.88447    101004.84862
 91  4 15 20 36 45.0000000  0  4G18G 2G11G19
  20907050.523      879518.154 8    685337.31623
  23559938.5474   -1446116.21846  -1126837.16361
  23668956.313     -839838.774 6   -654415.65321
  21033131.9844     134080.72947    104478.49962
 91  4 15 20 37  0.0000000  0  4G18G 2G11G19
  20912095.164      906031.363 8    705996.91523
  23552480.5634   -1485303.57646  -1157372.58361
  23664888.406     -861210.555 6   -671068.85221
  21033988.2194     138580.43547    107984.76162
 91  4 15 20 37 15.0000000  0  4G18G 2G11G19
  20917161.656      932654.681 8    726742.31523
  23545035.8284   -1524437.69746  -1187866.52961
  23660843.539     -882474.066 6   -687637.70021
  21034851.8054     143120.08547    111522.15762
 91  4 15 20 37 30.0000000  0  4G18G 2G11G19
  20922251.148      959392.124 8    747576.64122
  23537595.859    -1563514.589 6  -1218315.89021
  23656818.234     -903624.983 6   -704118.82521
  21035722.1094     147703.56847    115093.70562
 91  4 15 20 37 45.0000000  0  4G18G 2G11G19
  20927360.070      986237.758 8    768495.26922
  23530171.2734   -1602539.63046  -1248724.85261
  23652812.9224    -924668.87246   -720516.53161
  21036603.3364     152325.13846    118694.92262
 91  4 15 20 38  0.0000000  0  4G18G 2G11G19
  20932488.367     1013191.914 8    789498.45222
  23522754.4694   -1641512.52346  -1279093.17661
  23648830.1884    -945604.86546   -736830.15961
  21037491.3444     156985.05746    122326.02562
 91  4 15 20 38 15.0000000  0  4G18G 2G11G19
  20937637.242     1040254.831 8    810586.39823
  23515348.180    -1680433.066 6  -1309420.70921
  23644864.9614    -966432.54146   -753059.40261
  21038384.5474     161683.63247    125987.24762
 91  4 15 20 38 30.0000000  0  4G18G 2G11G19
  20942809.039     1067422.445 8    831755.91223
  23507955.3594   -1719304.79846  -1339710.20761
  23640923.992     -987155.558 6   -769207.07321
  21039283.9774     166416.76247    129675.40562
 91  4 15 20 38 45.0000000  0  4G18G 2G11G19
  20947999.9694    1094699.22748    853010.49362
  23500566.664    -1758122.951 6  -1369957.94921
  23636997.500    -1007768.975 6   -785269.35421
  21040194.4924     171189.18446    133394.16762
 91  4 15 20 39  0.0000000  0  4G18G 2G11G19
  20953209.242     1122084.605 8    874349.69823
  23493190.102    -1796887.906 6  -1400164.24321
  23633097.742    -1028272.974 6   -801246.36321
  21041106.6024     176000.47747    137143.22762
 91  4 15 20 39 15.0000000  0  4G18G 2G11G19
  20958442.156     1149579.388 8    895774.16123
  23485822.336    -1835598.811 6  -1430328.41921
  23629219.0554   -1048666.39146   -817137.21761
  21042030.6564     180851.30947    140923.09462
 91  4 15 20 39 30.0000000  0  4G18G 2G11G19
  20963693.242     1177179.003 8    917280.30323
  23478464.0554   -1874259.71346  -1460453.62061
  23625357.8674   -1068953.04946   -832944.88461
  21042961.5164     185737.34447    144730.39662
 91  4 15 20 39 45.0000000  0  4G18G 2G11G19
  20968967.180     1204890.678 8    938873.77023
  23471117.430    -1912863.479 6  -1490534.32521
  23621517.1484   -1089125.90946   -848663.86661
  21043900.8984     190665.52847    148570.54062
 91  4 15 20 40  0.0000000  0  4G18G 2G11G19
  20974261.7424    1232710.15348    960551.24563
  23463785.0704   -1951414.16746  -1520573.66561
  23617698.7814   -1109188.71746   -864297.11461
  21044845.3674     195631.79447    152440.35862
 91  4 15 20 40 15.0000000  0  4G18G 2G11G19
  20979577.688     1260639.534 8    982314.34923
  23456455.1334   -1989909.57446  -1550569.92961
  23613903.977    -1129138.964 6   -879842.65221
  21045796.9304     200638.30446    156341.53362
 91  4 15 20 40 30.0000000  0  4G18G 2G11G19
  20984911.688     1288677.489 8   1004162.04723
  23449142.742    -2028350.474 6  -1580523.71721
  23610127.8134   -1148977.37346   -895301.02961
  21046755.9224     205684.18947    160273.39162
 91  4 15 20 40 45.0000000  0  4G18G 2G11G19
  20990267.938     1316825.663 8   1026095.64623
  23441835.7664   -2066735.17946  -1610433.72261
  23606373.578    -1168702.144 6   -910670.86721
  21047723.9454     210770.73946    164236.93462
 91  4 15 20 41  0.0000000  0  4G18G 2G11G19
  20995646.7894    1345083.98248   1048115.06362
  23434542.563    -2105063.523 6  -1640299.80221
  23602643.328    -1188312.944 6   -925951.89321
  21048701.0704     215897.90146    168232.12362
 91  4 15 20 41 15.0000000  0  4G18G 2G11G19
  21001044.1334    1373450.45948   1070218.75363
  23427256.6644   -2143337.12446  -1670123.23261
  23598930.9304   -1207811.23146   -941145.25261
  21049683.0004     221063.97846    172257.63462
 91  4 15 20 41 30.0000000  0  4G18G 2G11G19
  21006463.563     1401924.614 8   1092406.35723
  23419988.0634   -2181556.43946  -1699904.36961
  23595242.203    -1227197.220 6   -956251.10321
  21050673.0394     226268.51947    176313.12062
 91  4 15 20 41 45.0000000  0  4G18G 2G11G19
  21011903.398     1430508.858 8   1114679.74522
  23412723.6724   -2219718.87446  -1729641.18561
  23591574.891    -1246468.047 6   -971267.22721
  21051673.3284     231514.08246    180400.57462
 91  4 15 20 42  0.0000000  0  4G18G 2G11G19
  21017363.383     1459203.250 8   1137038.95423
  23405471.633    -2257824.058 6  -1759333.36821
  23587929.070    -1265623.253 6   -986193.24421
  21052680.3524     236800.65946    184519.98162
 91  4 15 20 42 15.0000000  0  4G18G 2G11G19
  21022843.938     1488008.232 8   1159484.32723
  23398231.531    -2295871.657 6  -1788980.69121
  23584309.5084   -1284662.47946  -1001028.89261
  21053691.0864     242128.30847    188671.39162
 91  4 15 20 42 30.0000000  0  4G18G 2G11G19
  21028345.789     1516920.851 8   1182013.59623
  23391000.7504   -2333864.18446  -1818585.11361
  23580704.219    -1303587.921 6  -1015775.88321
  21054713.1954     247494.35147    192852.72162
 91  4 15 20 42 45.0000000  0  4G18G 2G11G19
  21033868.445     1545942.137 8   1204627.53523
  23383780.5784   -2371800.05546  -1848145.37761
  23577127.031    -1322398.093 6  -1030433.05421
  21055744.7504     252900.13547    197065.01962
 91  4 15 20 43  0.0000000  0  4G18G 2G11G19
  21039412.3834    1575074.53748   1227328.05463
  23376577.4534   -2409676.93146  -1877659.67961
  23573569.453    -1341090.183 6  -1044998.20421
  21056775.7584     258348.18947    201310.25062
 91  4 15 20 43 15.0010000  0  4G18G 2G11G19
  21044977.4814    1604317.88248   1250115.01463
  23369379.646    -2447499.162 6  -1907131.39021
  23570035.677    -1359667.166 6  -1059473.66621
  21057825.0834     263837.00246    205587.24162
 91  4 15 20 43 30.0010000  0  4G18G 2G11G19
  21050563.239     1633667.150 8   1272984.53723
  23362192.3334   -2485262.53046  -1936557.23061
  23566521.0674   -1378127.26346  -1073858.04461
  21058873.2314     269364.74846    209894.57562
 91  4 15 20 43 45.0010000  0  4G18G 2G11G19
  21056166.7474    1663125.59048   1295939.10963
  23355018.083    -2522968.127 6  -1965938.06621
  23563028.989    -1396470.017 6  -1088150.98421
  21059935.6924     274933.03946    214233.50262
 91  4 15 20 44  0.0010000  0  4G18G 2G11G19
  21061792.3964    1692688.96748   1318975.44863
  23347854.7784   -2560620.10246  -1995277.12161
  23559558.9894   -1414699.27546  -1102355.50161
  21061003.9114     280537.79646    218600.83962
 91  4 15 20 44 15.0010000  0  4G18G 2G11G19
  21067441.6224    1722362.75448   1342097.83063
  23340700.1384   -2598212.87646  -2024570.03261
  23556114.864    -1432809.448 6  -1116467.22421
  21062076.6924     286184.37346    223000.76862
 91  4 15 20 44 30.0010000  0  4G18G 2G11G19
  21073108.7004    1752149.39948   1365308.15263
  23333557.4974   -2635743.57846  -2053814.58261
  23552692.442    -1450797.543 6  -1130483.80821
  21063160.8414     291875.38546    227435.31462
 91  4 15 20 44 45.0010000  0  4G18G 2G11G19
  21078795.9424    1782043.19248   1388601.97263
  23326424.2784   -2673217.37446  -2083014.78461
  23549291.724    -1468668.678 6  -1144409.25821
  21064250.3494     297605.34647    231900.22062
 91  4 15 20 45  0.0010000  0  5G18G 2G11G19G16
  21084507.997     1812045.126 8   1411980.04823
  23319308.4664   -2710633.19746  -2112169.82961
  23545912.864    -1486421.539 6  -1158242.56621
  21065349.5604     303375.33847    236396.31562
  24448663.3414     -21131.08044
 91  4 15 20 45 15.0010000  0  5G18G 2G11G19G16
  21090239.0214    1842158.56048   1435445.01363
  23312195.247    -2747987.863 6  -2141277.19721
  23542556.521    -1504052.688 6  -1171981.02121
  21066453.7314     309188.67547    240926.18762
  24444666.6064     -42141.34044
 91  4 15 20 45 30.0010000  0  5G18G 2G11G19G16
  21095988.505     1872384.955 8   1458997.98723
  23305099.8724   -2785279.50046  -2170335.47561
  23539224.630    -1521560.146 6  -1185623.09521
  21067573.6144     315046.85546    245491.00462
  24440676.9664     -63029.15544
 91  4 15 20 45 45.0010000  0  5G18G 2G11G19G16
  21101762.4504    1902723.10648   1482638.04463
  23298016.177    -2822509.003 6  -2199345.33221
  23535917.0754   -1538944.57846  -1199169.31661
  21068690.8564     320948.99047    250090.06862
  24436734.6614     -83795.14644
 91  4 15 20 46  0.0010000  0  5G18G 2G11G19G16
  21107556.427     1933171.486 8   1506364.00923
  23290944.3644   -2859677.55946  -2228307.69361
  23532632.5214   -1556207.17746  -1212620.60461
  21069823.1924     326893.55247    254722.19562
  24432805.1924    -104440.37845
 91  4 15 20 46 15.0010000  0  5G18G 2G11G19G16
  21113371.2944    1963729.35048   1530175.26663
  23283880.130    -2896785.884 6  -2257223.13421
  23529370.700    -1573348.505 6  -1225977.38421
  21070963.3414     332879.73147    259386.74462
  24428900.8494    -124965.73845        -0.19571
 91  4 15 20 46 30.0010000  0  5G18G 2G11G19G16
  21119210.0914    1994400.34948   1554074.68063
  23276832.4424   -2933829.97746  -2286088.50861
  23526130.3414   -1590364.54046  -1239236.52061
  21072110.6694     338911.28847    264086.65962
  24425025.786     -145367.229 5    -15897.46321
 91  4 15 20 46 45.0010000  0  5G18G 2G11G19G16
  21125065.3024    2025180.74048   1578059.33663
  23269793.552    -2970813.536 6  -2314906.71521
  23522917.903    -1607258.616 6  -1252400.63021
  21073266.2244     344984.57147    268819.08062
  24421163.5284    -165648.34445    -31700.94161
 91  4 15 20 47  0.0010000  0  5G18G 2G11G19G16
  21130942.700     2056070.130 8   1602128.93923
  23262765.505    -3007736.721 6  -2343677.87321
  23519726.6304   -1624030.65546  -1265469.66461
  21074428.7244     351099.49147    273583.95462
  24417328.0524    -185809.22045
 91  4 15 20 47 15.0010000  0  5G18G 2G11G19G16
  21136841.841     2087066.096 7   1626281.58523
  23255751.552    -3044601.616 6  -2372403.59721
  23516558.021    -1640682.618 6  -1278445.11221
  21075601.1774     357253.71947    278379.45262
  24413514.036     -205852.081 5
 91  4 15 20 47 30.0010000  0  5G18G 2G11G19G16
  21142762.341     2118174.458 7   1650521.81623
  23248748.653    -3081402.093 6  -2401079.16621
  23513411.036    -1657208.260 6  -1291322.13021
  21076781.2474     363453.19447    283210.21462
  24409717.9424    -225770.54245        -0.42371
 91  4 15 20 47 45.0010000  0  5G18G 2G11G19G16
  21148701.7714    2149394.43048   1674849.00063
  23241762.5054   -3118138.94546  -2429705.11261
  23510293.278    -1673608.211 6  -1304101.21521
  21077968.4664     369697.07947    288075.57662
  24405953.6534    -245565.49745    -15425.04961
 91  4 15 20 48  0.0010000  0  5G18G 2G11G19G16
  21154663.810     2180725.137 8   1699262.49223
  23234779.3414   -3154812.47946  -2458281.75761
  23507196.7244   -1689882.67046  -1316782.51161
  21079163.6064     375984.70947    292975.02862
  24402216.4504    -265237.19645    -30753.62361
 91  4 15 20 48 15.0010000  0  5G18G 2G11G19G16
  21160646.271     2212164.325 7   1723760.50323
  23227814.294    -3191424.829 6  -2486810.69921
  23504122.9274   -1706033.66046  -1329367.59661
  21080369.7634     382313.93147    297906.88662
  24398488.4894    -284787.86745    -45987.90561
 91  4 15 20 48 30.0010000  0  5G18G 2G11G19G16
  21166651.6534    2243717.45748   1748347.29463
  23220857.6854   -3227970.54546  -2515287.74861
  23501072.661    -1722055.477 6  -1341852.03321
  21081583.6384     388690.08447    302875.31362
  24394796.708     -304212.095 5    -61123.62921
 91  4 15 20 48 45.0010000  0  5G18G 2G11G19G16
  21172679.630     2275386.680 8   1773024.55123
  23213914.114    -3264446.995 6  -2543710.81321
  23498051.583    -1737945.312 6  -1354233.61621
  21082806.0444     395115.85147    307882.39862
  24391118.7714    -323507.01644    -76158.63961
 91  4 15 20 49  0.0010000  0  5G18G 2G11G19G16
  21178726.8964    2307165.71248   1797787.38163
  23206986.513    -3300860.689 6  -2572084.97321
  23495047.700    -1753709.559 6  -1366517.33221
  21084037.1464     401584.60147    312922.97662
  24387473.8644    -342678.90445    -91097.71561
 91  4 15 20 49 15.0010000  0  5G18G 2G11G19G16
  21184796.0674    2339058.92448   1822639.17363
  23200069.317    -3337206.555 6  -2600406.28421
  23492072.7944   -1769342.99246  -1378699.13161
  21085276.1534     408101.21147    318000.85362
  24383851.5674    -361722.65145   -105936.98961
 91  4 15 20 49 30.0010000  0  5G18G 2G11G19G16
  21190884.0134    2371062.04348   1847576.59863
  23193167.0914   -3373488.82346  -2628678.02761
  23489121.325    -1784849.684 6  -1390782.16821
  21086522.6694     414661.23047    323112.55062
  24380243.044     -380642.714 5   -120679.87221
 91  4 15 20 49 45.0010000  0  5G18G 2G11G19G16
  21196996.1304    2403179.93448   1872603.46863
  23186274.3964   -3409702.52446  -2656896.36261
  23486198.356    -1800224.527 6  -1402762.44821
  21087782.0994     421269.45546    328261.81362
  24376674.2394    -399434.09845   -135322.49861
 91  4 15 20 50  0.0010000  0  5G18G 2G11G19G16
  21203131.3104    2435410.23248   1897717.92963
  23179397.4034   -3445849.79646  -2685062.92461
  23483297.216    -1815469.540 6  -1414641.57821
  21089047.4274     427923.86147    333447.06062
  24373120.513     -418098.822 5   -149866.47321
 91  4 15 20 50 15.0010000  0  5G18G 2G11G19G16
  21209285.3174    2467752.51348   1922919.63563
  23172525.302    -3481930.507 6  -2713177.60621
  23480422.075    -1830584.498 6  -1426419.36521
  21090323.0754     434624.34947    338668.21462
  24369600.2944    -436636.73745   -164311.58761
 91  4 15 20 50 30.0010000  0  5G18G 2G11G19G16
  21215460.3884    2500205.46948   1948207.59563
  23165675.1854   -3517945.89446  -2741241.40861
  23477569.0134   -1845570.35246  -1438096.56761
  21091607.8174     441369.75246    343924.36562
  24366091.271     -455048.857 5   -178658.70021
 91  4 15 20 50 45.0010000  0  5G18G 2G11G19G16
  21221656.731     2532766.251 8   1973579.56523
  23158834.3414   -3553898.47446  -2769256.26061
  23474742.1534   -1860429.79646  -1449675.25861
  21092898.1534     448157.10847    349213.21162
  24362610.8564    -473338.31245   -192910.22361
 91  4 15 20 51  0.0010000  0  5G18G 2G11G19G16
  21227873.802     2565434.643 7   1999035.39723
  23152005.263    -3589788.137 6  -2797222.09521
  23471938.388    -1875162.316 6  -1461155.03721
  21094197.4584     454986.37447    354534.71562
  24359161.294     -491504.545 5   -207065.70421
 91  4 15 20 51 15.0010000  0  5G18G 2G11G19G16
  21234110.5444    2598214.89247   2024578.38563
  23145188.161    -3625610.686 6  -2825135.63121
  23469156.3334   -1889763.64646  -1472532.59961
  21095506.4664     461861.73047    359892.12262
  24355724.5674    -509543.51845   -221122.06461
 91  4 15 20 51 30.0010000  0  5G18G 2G11G19G16
  21240371.2004    2631106.90348   2050208.46363
  23138385.1304   -3661366.01746  -2852996.78961
  23466402.3644   -1904233.52746  -1483807.74161
  21096823.1304     468783.20747    365285.47762
  24352310.8334    -527454.98345   -235079.03261
 91  4 15 20 51 45.0010000  0  5G18G 2G11G19G16
  21246650.5914    2664112.57048   2075927.10363
  23131592.2864   -3697051.88846  -2880803.82161
  23463677.8254   -1918569.33446  -1494978.41061
  21098149.8884     475753.08047    370716.54262
  24348926.653     -545236.411 5   -248934.67021
 91  4 15 20 52  0.0010000  0  5G18G 2G11G19G16
  21252952.6304    2697228.79647   2101731.89663
  23124816.747    -3732671.280 6  -2908559.05721
  23460971.6224   -1932774.03546  -1506046.91261
  21099482.7864     482768.28247    376182.92862
  24345571.3884    -562890.74245   -262691.28061
 91  4 15 20 52 15.0010000  0  5G18G 2G11G19G16
  21259277.0834    2730455.11148   2127622.46463
  23118049.9274   -3768224.18046  -2936262.48661
  23458296.4584   -1946847.59246  -1517013.23061
  21100828.0444     489828.59647    381684.46762
  24342233.7864    -580418.14045   -276348.99761
 91  4 15 20 52 30.0010000  0  5G18G 2G11G19G16
  21265618.3724    2763787.71147   2153595.85463
  23111295.380    -3803714.311 6  -2963916.98821
  23455640.0524   -1960793.51546  -1527880.08961
  21102180.3174     496930.33147    387218.28362
  24338919.739     -597822.158 5   -289910.56021
 91  4 15 20 52 45.0010000  0  5G18G 2G11G19G16
  21271981.9034    2797233.55347   2179657.48163
  23104556.942    -3839134.529 6  -2991517.02621
  23453011.364    -1974604.450 6  -1538641.78221
  21103540.3414     504080.35547    392789.72562
  24335636.692     -615095.807 5   -303370.52821
 91  4 15 20 53  0.0010000  0  5G18G 2G11G19G16
  21278370.4034    2830793.46548   2205807.99963
  23097828.325    -3874483.787 6  -3019061.77421
  23450411.021    -1988279.485 6  -1549297.57221
  21104909.3104     511279.44847    398399.40462
  24332368.3564    -632237.81345   -316727.92661
 91  4 15 20 53 15.0010000  0  5G18G 2G11G19G16
  21284778.325     2864465.916 8   2232046.21624
  23091117.5604   -3909763.14846  -3046552.05761
  23447833.052    -2001819.485 6  -1559848.13121
  21106290.6144     518526.53347    404046.48362
  24329137.3024    -649249.53345   -329983.81061
 91  4 15 20 53 30.0010000  0  5G18G 2G11G19G16
  21291208.6464    2898250.64248   2258371.91463
  23084412.2394   -3944972.68546  -3073987.92461
  23445284.833    -2015224.452 6  -1570293.48021
  21107678.9034     525821.34647    409730.74662
  24325923.3024    -666131.05645   -343138.23261
 91  4 15 20 53 45.0010000  0  5G18G 2G11G19G16
  21297657.2944    2932150.23648   2284787.11663
  23077723.810    -3980109.514 6  -3101367.15521
  23442760.122    -2028491.165 6  -1580631.10021
  21109077.3644     533166.93947    415454.58162
  24322730.786     -682879.291 5   -356188.80121
 91  4 15 20 54  0.0010000  0  5G18G 2G11G19G16
  21304131.6534    2966164.90448   2311291.98863
  23071055.0284   -4015173.56146  -3128689.64761
  23440261.458    -2041619.208 6  -1590860.66621
  21110484.3334     540563.38147    421218.03462
  24319569.958     -699494.148 5   -369135.45821
 91  4 15 20 54 15.0010000  0  5G18G 2G11G19G16
  21310623.161     3000288.370 8   2337881.62923
  23064395.677    -4050170.824 6  -3155960.11321
  23437790.5524   -2054614.54146  -1600986.82361
  21111899.8174     548004.43647    427016.25562
  24316442.341     -715981.430 5   -381982.68321
 91  4 15 20 54 30.0010000  0  5G18G 2G11G19G16
  21317139.4354    3034521.42948   2364556.68463
  23057748.2084   -4085100.01746  -3183177.53861
  23435337.786    -2067475.888 6  -1611008.56921
  21113324.8644     555491.14847    432850.05462
  24313322.9814    -732340.05845   -394729.63261
 91  4 15 20 54 45.0010000  0  5G18G 2G11G19G16
  21323672.9814    3068862.49348   2391315.89063
  23051110.700    -4119962.606 6  -3210343.07121
  23432915.442    -2080204.583 6  -1620926.95721
  21114757.3804     563022.05347    438718.28562
  24310235.317     -748571.400 5   -407377.43121
 91  4 15 20 55  0.0010000  0  5G18G 2G11G19G16
  21330228.349     3103308.912 7   2418157.18923
  23044489.606    -4154760.936 6  -3237458.52521
  23430521.7944   -2092802.84046  -1630743.69461
  21116197.0524     570594.72947    444619.07162
  24307166.755     -764677.783 5   -419927.87321
 91  4 15 20 55 15.0010000  0  5G18G 2G11G19G16
  21336803.4424    3137857.47847   2445078.08863
  23037883.1304   -4189497.91546  -3264526.18561
  23428145.114    -2105273.448 6  -1640460.97821
  21117647.2004     578206.17147    450550.05762
  24304123.083     -780662.348 5   -432383.35021
 91  4 15 20 55 30.0010000  0  5G18G 2G11G19G16
  21343396.5914    3172507.32248   2472077.89963
  23031285.7944   -4224174.41246  -3291546.69261
  23425797.8494   -2117617.16246  -1650079.36861
  21119101.7784     585855.52847    456510.59162
  24301106.7474    -796525.65645   -444744.36661
 91  4 15 20 55 45.0010000  0  5G18G 2G11G19G16
  21350009.3564    3207257.80348   2499156.13563
  23024696.1534   -4258790.84846  -3318520.42661
  23423472.1384   -2129834.19446  -1659599.05661
  21120565.2634     593542.26647    462500.25762
  24298115.2714    -812267.84145   -457011.01061
 91  4 15 20 56  0.0010000  0  5G18G 2G11G19G16
  21356641.2864    3242108.36948   2526312.35063
  23018120.8564   -4293347.32546  -3345447.43461
  23421170.903    -2141924.619 6  -1669020.08621
  21122036.5054     601265.99347    468518.73762
  24295139.6774    -827889.59045   -469183.78661
 91  4 15 20 56 15.0010000  0  5G18G 2G11G19G16
  21363291.9274    3277058.38048   2553546.05663
  23011554.630    -4327844.256 6  -3372328.02021
  23418897.2784   -2153888.66746  -1678342.63661
  21123512.5134     609026.18747    474565.64162
  24292187.747     -843391.040 5   -481262.81221
 91  4 15 20 56 30.0010000  0  5G18G 2G11G19G16
  21369963.528     3312111.879 8   2580860.40823
  23005003.4744   -4362277.43246  -3399158.95061
  23416644.606    -2165722.154 6  -1687563.46421
  21124998.9664     616827.08247    480644.25462
  24289263.466     -858768.042 5   -493244.92521
 91  4 15 20 56 45.0010000  0  5G18G 2G11G19G16
  21376653.349     3347268.426 8   2608255.04823
  22998460.747    -4396646.918 6  -3425940.23821
  23414417.4894   -2177424.87746  -1696682.40161
  21126488.8884     624668.48947    486754.43962
  24286368.8414    -874020.45945   -505129.88261
 91  4 15 20 57  0.0010000  0  5G18G 2G11G19G16
  21383364.817     3382526.864 8   2635729.07923
  22991936.2944   -4430953.67546  -3452672.65861
  23412212.942    -2188997.596 6  -1705700.03521
  21127991.1774     632549.52047    492895.50162
  24283482.2554    -889149.19545   -516918.52361
 91  4 15 20 57 15.0010000  0  6G18G 2G11G19G16G 6
  21390089.880     3417890.362 8   2663284.96922
  22985417.2394   -4465194.27846  -3479353.52361
  23410036.052    -2200436.841 6  -1714613.65621
  21129495.5604     640473.38847    499069.93862
  24280632.7944    -904150.93245   -528608.17961
  24663695.4814     -27234.21944
 91  4 15 20 57 30.0010000  0  6G18G 2G11G19G16G 6
  21396841.0444    3453355.27548   2690919.90162
  22978910.7164   -4499372.38946  -3505985.70361
  23407884.9974   -2211746.18946  -1723426.06361
  21131013.9664     648436.18547    505274.71562
  24277801.5444    -919029.49445   -540201.82961
  24658505.9354     -54458.67144
 91  4 15 20 57 45.0010000  0  6G18G 2G11G19G16G 6
  21403608.8724    3488924.64347   2718636.22062
  22972426.3024   -4533484.60246  -3532566.52961
  23405758.325    -2222922.010 6  -1732134.42521
  21132535.1534     656441.27047    511512.44162
  24274991.6924    -933781.48845   -551696.90361
  24653318.9664     -81670.85344
 91  4 15 20 58  0.0010000  0  6G18G 2G11G19G16G 6
  21410396.3804    3524596.68247   2746432.54963
  22965943.1144   -4567532.17546  -3559096.98461
  23403658.466    -2233965.556 6  -1740739.70521
  21134069.1534     664487.25347    517782.03562
  24272208.4744    -948408.04145   -563094.24161
  24648157.6614    -108872.17345
 91  4 15 20 58 15.0010000  0  6G18G 2G11G19G16G 6
  21417205.3494    3560366.82248   2774305.32563
  22959477.231    -4601519.613 6  -3585580.58921
  23401580.021    -2244881.178 6  -1749245.31121
  21135604.3024     672569.77747    524080.09962
  24269451.294     -962913.535 5   -574397.21621
  24642988.700     -136067.338 5
 91  4 15 20 58 30.0010000  0  6G18G 2G11G19G16G 6
  21424031.0994    3596240.56248   2802258.81363
  22953021.2244   -4635441.38746  -3612013.01361
  23399528.3564   -2255663.17246  -1757646.80461
  21137149.4664     680694.21247    530410.82262
  24266712.0524    -977292.39545   -585601.51861
  24637814.692     -163250.880 4
 91  4 15 20 58 45.0010000  0  6G18G 2G11G19G16G 6
  21430875.817     3632215.353 7   2830291.05823
  22946579.372    -4669299.331 6  -3638395.70921
  23397503.5214   -2266313.48646  -1765945.67961
  21138703.6144     688858.26147    536772.41562
  24263995.161     -991546.755 5   -596708.78821
  24632642.0604    -190425.17145        -0.26171
 91  4 15 20 59  0.0010000  0  6G18G 2G11G19G16G 6
  21437742.161     3668291.861 8   2858402.56023
  22940147.5754   -4703092.79646  -3664728.15761
  23395501.521    -2276831.098 6  -1774141.14521
  21140266.8724     697062.78847    543165.54262
  24261309.5914   -1005675.58945   -607718.29861
  24627458.3804    -217589.43244    -21167.12361
 91  4 15 20 59 15.0010000  0  6G18G 2G11G19G16G 6
  21444627.466     3704470.852 8   2886593.91123
  22933729.091    -4736821.061 6  -3691009.79321
  23393524.4354   -2287215.10646  -1782232.51761
  21141833.7474     705308.73447    549590.95162
  24258643.1694   -1019678.25045   -618629.46361
  24622286.677     -244742.942 3    -42325.52321
 91  4 15 20 59 30.0010000  0  6G18G 2G11G19G16G 6
  21451530.1304    3740748.60248   2914862.22563
  22927321.169    -4770487.311 6  -3717243.12021
  23391574.239    -2297468.718 6  -1790222.27021
  21143408.6694     713592.56147    556045.87262
  24255996.935    -1033557.965 5   -629444.83721
  24617141.7554    -271889.25244    -63478.43661
 91  4 15 20 59 45.0010000  0  6G18G 2G11G19G16G 6
  21458451.856     3777128.940 8   2943210.46723
  22920930.614    -4804087.407 6  -3743424.88821
  23389647.3254   -2307587.91746  -1798107.28661
  21144993.8174     721918.22547    562533.39662
  24253388.7944   -1047310.88645   -640161.38761
  24611982.8884    -299024.61044    -84622.78461
 91  4 15 21  0  0.0010000  0  6G18G 2G11G19G16G 6
  21465395.5674    3813610.02048   2971637.21063
  22914547.8174   -4837623.00946  -3769556.40461
  23387745.8254   -2317574.05446  -1805888.63961
  21146585.4504     730284.26547    569052.38562
  24250798.380    -1060938.583 5   -650780.35721
  24606819.677     -326150.571 4   -105759.78521
 91  4 15 21  0 15.0010000  0  6G18G 2G11G19G16G 6
  21472357.849     3850194.142 8   3000144.24523
  22908177.9894   -4871091.95246  -3795635.97961
  23385873.9034   -2327424.51346  -1813564.26461
  21148186.1144     738692.82447    575604.50262
  24248221.5674   -1074438.50745   -661299.80661
  24601650.4354    -353265.00044   -126887.76461
 91  4 15 21  0 30.0010000  0  6G18G 2G11G19G16G 6
  21479335.1924    3886879.95547   3028730.50763
  22901822.489    -4904495.165 6  -3821664.34321
  23384023.1854   -2337140.33646  -1821134.97061
  21149793.2314     747142.65947    582188.78262
  24245679.231    -1087812.166 5   -671720.80921
  24596479.3884    -380369.17743   -148007.77261
 91  4 15 21  0 45.0010000  0  6G18G 2G11G19G16G 6
  21486337.177     3923666.838 7   3057395.54623
  22895476.9814   -4937832.75046  -3847641.56661
  23382199.4354   -2346721.48346  -1828600.73561
  21151410.2164     755633.51947    588805.03862
  24243157.9354   -1101059.20445   -682043.19461
  24591337.849     -407463.324 4   -169119.97521
 91  4 15 21  1  0.0010000  0  6G18G 2G11G19G16G 6
  21493359.2394    3960554.36247   3086138.99863
  22889146.2554   -4971104.82547  -3873567.74461
  23380399.8104   -2356168.09246  -1835961.67061
  21153033.7474     764165.29247    595453.16662
  24240664.591    -1114179.870 5   -692267.06621
  24586195.9664    -434547.80845   -190224.64761
 91  4 15 21  1 15.0010000  0  6G18G 2G11G19G16G 6
  21500396.575     3997544.546 7   3114962.44223
  22882826.810    -5004309.505 6  -3899441.41121
  23378628.8884   -2365478.07146  -1843216.14561
  21154666.2554     772739.82947    602134.62862
  24238184.333    -1127172.092 5   -702390.86021
  24581040.536     -461620.846 4   -211320.38821
 91  4 15 21  1 30.0010000  0  6G18G 2G11G19G16G 6
  21507457.3724    4034637.98748   3143866.35463
  22876519.700    -5037445.523 6  -3925261.57021
  23376884.4424   -2374650.18646  -1850363.19261
  21156304.7864     781358.23047    608850.26162
  24235741.5604   -1140034.84845   -712413.76461
  24575878.7634    -488681.26944   -232406.28561
 91  4 15 21  1 45.0010000  0  6G18G 2G11G19G16G 6
  21514533.591     4071835.667 7   3172851.48723
  22870229.5054   -5070512.10046  -3951027.61761
  23375167.8644   -2383683.56546  -1857402.12361
  21157954.0674     790021.14547    615600.57762
  24233316.763    -1152767.388 5   -722335.21221
  24570730.755     -515728.714 4   -253482.07621
 91  4 15 21  2  0.0010000  0  6G18G 2G11G19G16G 6
  21521634.442     4109139.139 7   3201919.05523
  22863951.9504   -5103507.36946  -3976738.10161
  23373473.2784   -2392576.18046  -1864331.36561
  21159610.5214     798730.38447    622386.99062
  24230914.2474   -1165367.65445   -732153.59661
  24565587.9894    -542761.28044   -274546.27361
 91  4 15 21  2 15.0010000  0  6G18G 2G11G19G16G 6
  21528750.935     4146545.779 8   3231066.99523
  22857685.083    -5136433.442 6  -4002394.67121
  23371808.4274   -2401329.90346  -1871152.38861
  21161277.0284     807483.98447    629207.97562
  24228547.138    -1177838.161 5   -741870.89121
  24560445.2314    -569781.22144   -295600.62861
 91  4 15 21  2 30.0010000  0  6G18G 2G11G19G16G 6
  21535888.4894    4184056.62347   3260296.15863
  22851432.153    -5169289.008 6  -4027996.30021
  23370169.942    -2409943.436 6  -1877864.15521
  21162951.6464     816283.12647    636064.44062
  24226205.833    -1190177.241 5   -751485.74821
  24555299.630     -596787.424 3   -316644.24221
 91  4 15 21  2 45.0010000  0  6G18G 2G11G19G16G 6
  21543048.497     4221669.791 8   3289605.04823
  22845192.677    -5202075.593 6  -4053544.17821
  23368558.7864   -2418418.12046  -1884467.74561
  21164632.9424     825126.28046    642955.20462
  24223881.700    -1202386.375 5   -760999.34721
  24550170.333     -623781.624 4   -337678.62321
 91  4 15 21  3  0.0010000  0  6G18G 2G11G19G16G 6
  21550225.5604    4259384.25448   3318992.86262
  22838968.966    -5234794.138 6  -4079039.04621
  23366968.5604   -2426754.92146  -1890963.89961
  21166327.0834     834012.09246    649879.21162
  24221584.255    -1214466.652 5   -770412.57421
  24545039.8804    -650764.99944   -358704.48061
 91  4 15 21  3 15.0010000  0  6G18G 2G11G19G16G 6
  21557420.927     4297200.412 8   3348459.91323
  22832753.106    -5267444.275 6  -4104480.59721
  23365408.9194   -2434953.37746  -1897352.25061
  21168024.5364     842941.04146    656836.83662
  24219307.536    -1226417.554 5   -779724.96621
  24539911.3174    -677737.18545   -379721.66261
 91  4 15 21  3 30.0010000  0  6G18G 2G11G19G16G 6
  21564634.380     4335117.653 7   3378005.73523
  22826552.7394   -5300026.16746  -4129868.97861
  23363874.271    -2443013.429 6  -1903632.74721
  21169732.3174     851913.04247    663827.99862
  24217054.731    -1238239.587 5   -788936.94021
  24534766.981     -704698.434 4   -400730.25821
 91  4 15 21  3 45.0010000  0  6G18G 2G11G19G16G 6
  21571869.435     4373135.683 7   3407630.09122
  22820367.122    -5332540.100 6  -4155204.41021
  23362367.872    -2450935.282 6  -1909805.56321
  21171447.3884     860927.76647    670852.45862
  24214828.817    -1249932.831 5   -798048.56121
  24529640.653     -731649.370 4   -421730.84521
 91  4 15 21  4  0.0010000  0  6G18G 2G11G19G16G 6
  21579123.2004    4411253.76748   3437332.41763
  22814193.216    -5364985.999 6  -4180486.81421
  23360888.489    -2458718.696 6  -1915870.51721
  21173169.2944     869985.16547    677910.17662
  24212623.7554   -1261497.30845   -807059.83361
  24524517.0364    -758589.92944   -442723.35461
 91  4 15 21  4 15.0010000  0  6G18G 2G11G19G16G 6
  21586399.388     4449476.648 8   3467116.39623
  22808028.903    -5397359.348 6  -4205712.68821
  23359431.3254   -2466359.22746  -1921824.10861
  21174904.3104     879089.52247    685004.47662
  24210450.5524   -1272928.31445   -815967.12461
  24519386.0914    -785515.86944   -463704.50261
 91  4 15 21  4 30.0010000  0  6G18G 2G11G19G16G 6
  21593691.5214    4487801.63847   3496979.93463
  22801884.278    -5429662.484 7  -4230883.84521
  23358006.0994   -2473859.02146  -1927668.04161
  21176642.1924     888238.49847    692133.54762
  24208300.6224   -1284228.30445   -824772.27961
  24514270.4744    -812429.68744   -484676.20361
 91  4 15 21  4 45.0010000  0  6G18G 2G11G19G16G 6
  21601003.0604    4526227.48347   3526922.06163
  22795750.8174   -5461896.30046  -4256001.00062
  23356605.466    -2481218.951 6  -1933403.00221
  21178392.2164     897431.06247    699296.58262
  24206178.2864   -1295398.36545   -833476.23961
  24509153.388     -839332.462 4   -505639.27721
 91  4 15 21  5  0.0010000  0  6G18G 2G11G19G16G 6
  21608334.364     4564757.542 7   3556945.39923
  22789628.606    -5494057.109 6  -4281061.25821
  23355233.028    -2488435.293 6  -1939026.07621
  21180150.4354     906670.83647    706496.40462
  24204072.8804   -1306434.89845   -842076.12761
  24504042.146     -866220.675 5   -526591.01821
 91  4 15 21  5 15.0010000  0  6G18G 2G11G19G16G 6
  21615685.739     4603386.854 7   3587046.07623
  22783522.6614   -5526149.75146  -4306068.39761
  23353885.8104   -2495512.73746  -1944540.90661
  21181917.6464     915953.02147    713729.27262
  24202001.3564   -1317342.32845   -850575.43361
  24498918.7084    -893099.18744   -547535.18461
 91  4 15 21  5 30.0010000  0  6G18G 2G11G19G16G 6
  21623059.8174    4642120.63047   3617228.15463
  22777430.005    -5558168.683 6  -4331018.10821
  23352566.4354   -2502445.70946  -1949943.15761
  21183692.1064     925282.97547    720999.36062
  24199946.6224   -1328115.35845   -858970.01061
  24493801.200     -919962.865 4   -568467.77621
 91  4 15 21  5 45.0010000  0  6G18G 2G11G19G16G 6
  21630449.8254    4680956.26147   3647489.59863
  22771349.302    -5590116.501 6  -4355912.39921
  23351273.122    -2509236.514 6  -1955234.64821
  21185477.3414     934658.26246    728304.78362
  24197927.567    -1338756.665 5   -867261.95521
  24488692.942     -946814.104 4   -589390.69221
 91  4 15 21  6  0.0010000  0  6G18G 2G11G19G16G 6
  21637857.146     4719895.959 7   3677832.13323
  22765286.864    -5621990.397 7  -4380749.09022
  23350005.880    -2515882.330 6  -1960413.16721
  21187268.9584     944081.59847    735647.63862
  24195927.1924   -1349263.46245   -875449.06761
  24483591.0364    -973650.49445   -610302.06861
 91  4 15 21  6 15.0010000  0  6G18G 2G11G19G16G 6
  21645286.044     4758939.475 7   3708255.57223
  22759234.9744   -5653790.44347  -4405528.22362
  23348771.974    -2522383.116 6  -1965478.66421
  21189071.6924     953552.70446    743027.71962
  24193955.794    -1359635.639 5   -883531.29521
  24478489.8104   -1000472.05745   -631201.92661
 91  4 15 21  6 30.0010000  0  6G18G 2G11G19G16G 6
  21652738.458     4798085.781 7   3738759.11123
  22753195.708    -5685517.597 7  -4430250.57421
  23347560.239    -2528739.807 6  -1970431.87621
  21190882.0604     963070.75647    750444.38562
  24192007.5054   -1369874.28645   -891509.46961
  24473390.833    -1027279.979 5   -652091.07421
 91  4 15 21  6 45.0010000  0  6G18G 2G11G19G16G 6
  21660203.7474    4837331.50547   3769340.10663
  22747173.239    -5717175.050 7  -4454918.61321
  23346377.458    -2534955.527 6  -1975275.24321
  21192701.1064     972632.51146    757895.09962
  24190082.036    -1379982.402 5   -899385.91621
  24468294.028    -1054077.593 5   -672972.21521
 91  4 15 21  7  0.0010000  0  6G18G 2G11G19G16G 6
  21667693.9974    4876678.98547   3800000.38563
  22741162.841    -5748760.183 7  -4479530.29121
  23345224.833    -2541027.346 7  -1980006.47621
  21194533.0604     982240.53847    765381.88162
  24188183.7474   -1389957.46345   -907158.67661
  24463195.849    -1080862.430 5   -693843.43021
 91  4 15 21  7 15.0010000  0  6G18G 2G11G19G16G 6
  21675197.0524    4916127.88847   3830739.71662
  22735165.880    -5780273.044 7  -4504085.66521
  23344093.403    -2546955.351 6  -1984625.66121
  21196370.8104     991894.62247    772904.54562
  24186315.8334   -1399799.65645   -914827.92761
  24458093.6464   -1107634.64745   -714704.78461
 91  4 15 21  7 30.0010000  0  6G18G 2G11G19G16G 6
  21682725.6774    4955678.60247   3861558.37063
  22729180.505    -5811712.799 6  -4528584.06321
  23342993.216    -2552738.859 6  -1989132.24421
  21198212.4894    1001595.41647    780463.59862
  24184467.2394   -1409508.37545   -922393.17261
  24453002.786    -1134393.727 5   -735555.89921
 91  4 15 21  7 45.0010000  0  6G18G 2G11G19G16G 6
  21690271.7004    4995328.09347   3892453.98463
  22723210.903    -5843082.202 6  -4553027.64921
  23341921.942    -2558380.458 7  -1993528.25621
  21200071.6774    1011340.19247    788056.93262
  24182642.0754   -1419086.49345   -929856.64261
  24447912.7084   -1161142.57245   -756399.05061
 91  4 15 21  8  0.0010000  0  6G18G 2G11G19G16G 6
  21697832.325     5035076.417 7   3923426.61823
  22717256.450    -5874381.091 6  -4577416.29421
  23340877.317    -2563879.676 7  -1997813.31021
  21201930.0284    1021129.22847    795684.75562
  24180846.794    -1428533.549 5   -937217.96221
  24442821.638    -1187880.940 4   -777234.00821
 91  4 15 21  8 15.0010000  0  6G18G 2G11G19G16G 6
  21705416.474     5074922.838 7   3954475.69923
  22711310.2784   -5905609.99046  -4601750.39961
  23339852.692    -2569237.051 7  -2001987.84021
  21203806.8254    1030961.78047    803346.48062
  24179064.4584   -1437850.05645   -944477.58861
  24437735.427    -1214609.608 4   -798061.43121
 91  4 15 21  8 30.0010000  0  6G18G 2G11G19G16G 6
  21713018.9194    5114867.75347   3985601.50863
  22705385.0604   -5936768.08846  -4626029.33462
  23338863.7944   -2574451.85947  -2006051.29161
  21205683.8494    1040838.53947    811042.65862
  24177318.9894   -1447035.51145   -951635.11661
  24432658.4584   -1241327.94044   -818880.81661
 91  4 15 21  8 45.0010000  0  6G18G 2G11G19G16G 6
  21720640.278     5154910.113 7   4016803.25923
  22699469.544    -5967856.314 7  -4650253.82521
  23337894.9354   -2579524.77146  -2010004.16761
  21207570.4194    1050758.63047    818772.59462
  24175599.0364   -1456090.50345   -958690.96061
  24427576.224    -1268036.861 4   -839692.84021
 91  4 15 21  9  0.0010000  0  6G18G 2G11G19G16G 6
  21728276.1144    5195055.66547   4048085.41363
  22693565.6144   -5998868.68646  -4674419.19662
  23336959.3494   -2584449.71546  -2013841.74361
  21209468.6774    1060728.08147    826540.99562
  24173898.575    -1465008.865 5   -965640.35621
  24422494.560    -1294730.650 5   -860493.09321
 91  4 15 21  9 15.0010000  0  6G18G 2G11G19G16G 6
  21735935.442     5235301.042 7   4079445.37323
  22687678.427    -6029808.032 6  -4698527.67821
  23336053.810    -2589229.601 6  -2017566.28921
  21211374.2164    1070743.87047    834345.50962
  24172230.856    -1473794.036 5   -972485.92721
  24417409.396    -1321412.285 5   -881283.86221
 91  4 15 21  9 30.0010000  0  6G18G 2G11G19G16G 6
  21743614.575     5275644.476 7   4110881.71823
  22681801.4974   -6060675.98646  -4722580.52762
  23335168.021    -2593865.931 7  -2021178.97921
  21213288.3494    1080804.39847    842184.87862
  24170587.1384   -1482447.57845   -979228.98961
  24412335.271    -1348083.500 5   -902066.49521
 91  4 15 21  9 45.0010000  0  6G18G 2G11G19G16G 6
  21751309.9034    5316088.56547   4142396.50162
  22675943.3414   -6091469.75946  -4746575.58062
  23334315.7084   -2598355.79446  -2024677.54461
  21215210.3334    1090912.39747    850061.24162
  24168968.4974   -1490966.71345   -985867.26761
  24407264.8254   -1374741.80745   -922839.08261
 91  4 15 21 10  0.0010000  0  6G18G 2G11G19G16G 6
  21759025.4034    5356635.23447   4173991.20963
  22670100.138    -6122187.461 6  -4770511.34322
  23333488.1694   -2602697.04647  -2028060.30461
  21217145.5134    1101069.87446    857976.15162
  24167368.0674   -1499349.39745   -992399.25661
  24402186.380    -1401385.230 5   -943600.09121
 91  4 15 21 10 15.0010000  0  6G18G 2G11G19G16G 6
  21766760.3414    5397282.86247   4205664.59963
  22664269.521    -6152830.210 6  -4794388.70422
  23332689.739    -2606890.943 7  -2031328.23021
  21219086.8884    1111275.56847    865928.63862
  24165797.278    -1507596.548 5   -998825.63221
  24397130.786    -1428015.159 5   -964350.58621
 91  4 15 21 10 30.0010000  0  6G18G 2G11G19G16G 6
  21774515.0364    5438030.38747   4237415.82663
  22658452.099    -6183398.830 6  -4818208.30722
  23331918.278    -2610938.289 6  -2034481.96421
  21221042.7944    1121528.45846    873917.89662
  24164257.1304   -1515709.44045  -1005147.36461
  24392060.419    -1454632.559 5   -985091.26421
 91  4 15 21 10 45.0010000  0  6G18G 2G11G19G16G 6
  21782285.3104    5478880.97547   4269247.36163
  22652647.614    -6213889.979 6  -4841967.55122
  23331176.8884   -2614835.37647  -2037518.61661
  21222998.8254    1131832.13547    881946.73262
  24162728.7084   -1523684.57945  -1011361.76661
  24387001.5284   -1481233.99445  -1005819.55761
 91  4 15 21 11  0.0010000  0  6G18G 2G11G19G16G 6
  21790082.841     5519829.709 7   4301155.38522
  22646862.044    -6244308.079 7  -4865669.85922
  23330466.4504   -2618586.75947  -2040441.74061
  21224966.1464    1142181.81947    890011.41862
  24161235.622    -1531526.872 5  -1017472.67721
  24381937.6534   -1507824.26345  -1026539.10961
 91  4 15 21 11 15.0010000  0  6G18G 2G11G19G16G 6
  21797892.5604    5560877.93047   4333140.91662
  22641085.372    -6274651.508 7  -4889313.98322
  23329779.5674   -2622190.79047  -2043250.03361
  21226946.3644    1152579.10247    898113.18962
  24159772.2634   -1539234.69845  -1023478.76961
  24376883.653    -1534401.874 5  -1047248.81521
 91  4 15 21 11 30.0010000  0  6G18G 2G11G19G16G 6
  21805723.1854    5602026.03147   4365204.28062
  22635325.224    -6304919.837 7  -4912899.57922
  23329121.6534   -2625646.89247  -2045943.05761
  21228934.1924    1163024.56247    906252.50262
  24158331.7714   -1546807.05045  -1029379.33361
  24371830.1854   -1560966.59145  -1067948.44961
 91  4 15 21 11 45.0010000  0  6G18G 2G11G19G16G 6
  21813570.560     5643276.144 7   4397347.14922
  22629581.794    -6335110.551 7  -4936424.71322
  23328494.5754   -2628952.66047  -2048518.94161
  21230931.2634    1173520.48847    914431.14162
  24156916.169    -1554241.623 5  -1035172.53521
  24366773.614    -1587515.939 5  -1088636.13621
 91  4 15 21 12  0.0010000  0  6G18G 2G11G19G16G 6
  21821441.3414    5684624.38347   4429566.46562
  22623850.1464   -6365227.11847  -4959892.07162
  23327889.5134   -2632111.55847  -2050980.38261
  21232937.4744    1184063.24747    922646.27162
  24155533.138    -1561542.181 5  -1040861.29721
  24361725.3644   -1614053.64145  -1109314.72561
 91  4 15 21 12 15.0010000  0  6G18G 2G11G19G16G 6
  21829326.7714    5726070.73247   4461862.24762
  22618135.653    -6395269.680 7  -4983301.75922
  23327320.0134   -2635123.37647  -2053327.21761
  21234953.8414    1194653.04447    930898.05162
  24154170.9664   -1568708.63945  -1046445.54861
  24356676.771    -1640579.866 5  -1129984.37621
 91  4 15 21 12 30.0010000  0  6G18G 2G11G19G16G 6
  21837233.177     5767615.245 7   4494234.51423
  22612432.3964   -6425237.93447  -5006653.54262
  23326769.239    -2637987.872 6  -2055559.25421
  21236976.4354    1205290.08747    939186.65062
  24152826.817    -1575741.007 5  -1051925.32221
  24351631.5364   -1667094.38445  -1150644.88561
 91  4 15 21 12 45.0010000  0  6G18G 2G11G19G16G 6
  21845157.8494    5809254.96347   4526680.96562
  22606738.5364   -6455134.18146  -5029949.21062
  23326259.927    -2640707.332 6  -2057678.27321
  21239010.2314    1215971.94047    947510.16562
  24151517.794    -1582641.667 5  -1057302.50721
  24346584.685    -1693599.806 5  -1171298.31021
 91  4 15 21 13  0.0010000  0  6G18G 2G11G19G16G 6
  21853099.2084    5850994.27347   4559205.00662
  22601065.9894   -6484954.12546  -5053185.45162
  23325770.856    -2643277.306 7  -2059680.80521
  21241051.427     1226702.911 7    955871.94722
  24150228.7714   -1589406.15945  -1062573.55861
  24341544.544    -1720091.701 5  -1191941.17321
 91  4 15 21 13 15.0010000  0  6G18G 2G11G19G16G 6
  21861062.521     5892832.399 7   4591806.06023
  22595405.9424   -6514698.08746  -5076362.46462
  23325303.450    -2645698.049 6  -2061567.05821
  21243103.4974    1237482.68947    964271.76662
  24148968.458    -1596034.629 5  -1067738.61821
  24336509.028    -1746570.527 5  -1212573.91421
 91  4 15 21 13 30.0010000  0  6G18G 2G11G19G16G 6
  21869042.4504    5934768.45647   4624483.41563
  22589759.919    -6544366.940 6  -5099480.95122
  23324869.2944   -2647970.34046  -2063337.64761
  21245165.9424    1248310.40046    972708.94062
  24147732.5604   -1602528.16645  -1072798.53661
  24331474.364    -1773037.215 5  -1233197.13521
 91  4 15 21 13 45.0010000  0  6G18G 2G11G19G16G 6
  21877041.794     5976800.246 7   4657235.35823
  22584127.255    -6573962.458 6  -5122542.29422
  23324469.3174   -2650095.88346  -2064993.88461
  21247231.7244    1259184.06446    981181.91462
  24146525.771    -1608888.453 5  -1077754.59721
  24326429.5364   -1799493.80044  -1253812.52461
 91  4 15 21 14  0.0010000  0  6G18G 2G11G19G16G 6
  21885056.6534    6018926.38947   4690060.82463
  22578510.5284   -6603485.91247  -5145547.49262
  23324086.646    -2652075.938 6  -2066536.73221
  21249308.4424    1270102.48947    989689.77562
  24145331.3414   -1615117.10045  -1082608.11761
  24321395.4034   -1825941.75645  -1274421.15961
 91  4 15 21 14 15.0010000  0  6G18G 2G11G19G16G 6
  21893088.716     6061146.985 7   4722959.91722
  22572905.5834   -6632936.56247  -5168495.95162
  23323745.669    -2653909.828 6  -2067965.69321
  21251397.0214    1281066.44946    998233.11762
  24144176.9354   -1621213.35645  -1087358.45161
  24316371.216    -1852380.476 5  -1295022.61721
 91  4 15 21 14 30.0010000  0  6G18G 2G11G19G16G 6
  21901142.8174    6103458.97547   4755930.20062
  22567314.6774   -6662317.45447  -5191390.05862
  23323419.6144   -2655600.44546  -2069283.01561
  21253490.9354    1292072.90447   1006809.56162
  24143046.2714   -1627180.43245  -1092008.14161
  24311348.138    -1878813.028 5  -1315619.26521
 91  4 15 21 14 45.0010000  0  6G18G 2G11G19G16G 6
  21909215.4894    6145863.16847   4788972.33062
  22561737.099    -6691627.426 7  -5214228.89022
  23323127.606    -2657146.575 6  -2070487.76721
  21255595.6774    1303122.69247   1015419.78362
  24141933.325    -1633017.169 5  -1096556.26321
  24306320.466    -1905238.575 5  -1336210.43821
 91  4 15 21 15  0.0010000  0  6G18G 2G11G19G16G 6
  21917298.669     6188361.356 7   4822087.69822
  22556173.591    -6720864.033 7  -5237010.56022
  23322857.388    -2658545.921 6  -2071578.12521
  21257704.1854    1314218.28047   1024065.68862
  24140845.622    -1638720.862 5  -1101000.69421
  24301292.263    -1931654.832 5  -1356794.39121
 91  4 15 21 15 15.0010000  0  6G18G 2G11G19G16G 6
  21925404.583     6230956.147 7   4855278.35422
  22550625.2634   -6750025.16947  -5259733.42362
  23322619.106    -2659796.009 6  -2072552.17721
  21259825.896     1325361.918 7   1032749.03022
  24139791.4194   -1644289.55045  -1105339.94361
  24296262.1924   -1958059.44345  -1377369.23261
 91  4 15 21 15 30.0010000  0  6G18G 2G11G19G16G 6
  21933529.060     6273645.777 7   4888542.92822
  22545091.4034   -6779112.02947  -5282398.40662
  23322415.560    -2660898.124 6  -2073410.91621
  21261959.1144    1336552.23247   1041468.75262
  24138750.9194   -1649724.60445  -1109575.07061
  24291241.286    -1984454.045 5  -1397936.31421
 91  4 15 21 15 45.0010000  0  6G18G 2G11G19G16G 6
  21941670.2164    6316429.22147   4921880.58662
  22539568.942    -6808125.304 7  -5305006.05122
  23322228.6694   -2661852.85346  -2074154.82761
  21264093.3964    1347788.66747   1050224.41062
  24137745.3564   -1655026.76645  -1113706.64461
  24286214.7864   -2010839.30245  -1418496.10161
 91  4 15 21 16  0.0010000  0  6G18G 2G11G19G16G 6
  21949828.3564    6359303.57147   4955289.07462
  22534059.5914   -6837067.89347  -5327558.62162
  23322075.8414   -2662663.03746  -2074786.11261
  21266239.3104    1359068.14947   1059013.60662
  24136757.2394   -1660199.14445  -1117737.07361
  24281191.4744   -2037218.22445  -1439050.95261
 91  4 15 21 16 15.0010000  0  6G18G 2G11G19G16G 6
  21958006.4584    6402273.91147   4988772.37062
  22528567.3254   -6865934.45447  -5350051.94462
  23321942.0674   -2663323.35446  -2075300.60661
  21268396.2864    1370396.08047   1067840.55862
  24135804.458    -1665236.223 5  -1121662.07121
  24276182.075    -2063585.619 5  -1459596.82121
 91  4 15 21 16 30.0010000  0  6G18G 2G11G19G16G 6
  21966200.1144    6445340.64647   5022330.78962
  22523087.7864   -6894723.97147  -5372485.24162
  23321859.411    -2663832.790 6  -2075697.52121
  21270562.5054    1381773.47547   1076706.05362
  24134867.2474   -1670136.92445  -1125480.81861
  24271170.349    -2089940.545 5  -1480133.01121
 91  4 15 21 16 45.0010000  0  6G18G 2G11G19G16G 6
  21974416.6854    6488509.40147   5055968.67962
  22517624.4274   -6923430.71647  -5394854.03762
  23321784.747    -2664185.357 6  -2075972.19621
  21272736.3024    1393206.17247   1085614.63862
  24133963.4504   -1674895.47445  -1129188.78361
  24266157.294    -2116277.418 5  -1500655.13121
 91  4 15 21 17  0.0010000  0  6G18G 2G11G19G16G 6
  21982650.8104    6531779.68847   5089685.68862
  22512177.9274   -6952054.74447  -5417158.38962
  23321750.2554   -2664381.28946
  21274921.3494    1404693.73947   1094565.98162
  24133081.677    -1679512.386 5  -1132786.42021
  24261150.247    -2142596.540 5  -1521163.40421
 91  4 15 21 17 15.0010000  0  6G18G 2G11G19G16G 6
  21990905.6304    6575156.64047   5123485.81762
  22506747.4354   -6980590.92646  -5439394.28062
  23321742.6854   -2664415.32946
  21277120.9194    1416241.47047   1103564.21162
  24132234.505    -1683982.524 5  -1136269.64821
  24256149.5604   -2168892.80645  -1541653.83961
 91  4 15 21 17 30.0010000  0  6G18G 2G11G19G16G 6
  21999180.2244    6618640.50047   5157369.25663
  22501334.3494   -7009038.81847  -5461561.37662
  23321761.333    -2664286.900 6
  21279328.8724    1427849.92047   1112609.74362
  24131412.1384   -1688305.44545  -1139638.18761
  24251146.2554   -2195165.77645  -1562126.15361
 91  4 15 21 17 45.0010000  0  6G18G 2G11G19G16G 6
  22007477.3804    6662231.00547   5191335.79062
  22495941.8414   -7037398.19347  -5483659.50262
  23321825.396    -2663995.829 6
  21281550.8884    1439519.25447   1121702.73062
  24130612.9814   -1692480.91345  -1142891.84361
  24246151.8334   -2221415.46645  -1582580.31761
 91  4 15 21 18  0.0010000  0  6G18G 2G11G19G16G 6
  22015788.6144    6705924.90247   5225382.88662
  22490558.3964   -7065672.19447  -5505691.10262
  23321908.6854   -2663545.19646  -2075473.18161
  21283780.2554    1451246.35347   1130840.71962
  24129846.7784   -1696511.89645  -1146032.90061
  24241155.2784   -2247645.05245  -1603018.80861
 91  4 15 21 18 15.0010000  0  6G18G 2G11G19G16G 6
  22024123.067     6749721.348 7   5259509.88722
  22485193.8964   -7093861.04047  -5527656.34662
  23322024.0994   -2662935.30546  -2074997.90161
  21286023.3334    1463030.78147   1140023.37962
  24129108.419    -1700398.940 5  -1149061.79721
  24236164.9744   -2273854.94745  -1623441.97661
 91  4 15 21 18 30.0010000  0  6G18G 2G11G19G16G 6
  22032477.942     6793617.950 7   5293714.94822
  22479844.560    -7121967.093 7  -5549557.07422
  23322167.7864   -2662168.46146  -2074400.32761
  21288276.1224    1474870.32447   1149248.98962
  24128395.1774   -1704144.51045  -1151980.40961
  24231175.6224   -2300047.62244  -1643851.67861
 91  4 15 21 18 45.0010000  0  6G18G 2G11G19G16G 6
  22040850.208     6837615.476 7   5327998.63822
  22474511.8024   -7149989.54147  -5571392.65262
  23322343.255    -2661243.751 6  -2073679.75621
  21290540.8494    1486765.77647   1158518.17462
  24127707.9504   -1707747.91545  -1154788.30461
  24226189.7394   -2326222.32544  -1664247.42961
 91  4 15 21 19  0.0010000  0  6G18G 2G11G19G16G 6
  22049240.7554    6881706.69347   5362355.32362
  22469193.8414   -7177935.05847  -5593168.28962
  23322552.0134   -2660167.84546  -2072841.35261
  21292812.2394    1498710.37547   1167825.64862
  24127040.083    -1711215.751 5  -1157490.51821
  24221211.9354   -2352385.87944  -1684634.46561
 91  4 15 21 19 15.0010000  0  6G18G 2G11G19G16G 6
  22057644.9664    6925891.78047   5396785.17062
  22463892.466    -7205803.256 7  -5614883.68022
  23322785.0054   -2658940.55347  -2071884.98561
  21295095.3174    1510704.45047   1177171.67862
  24126417.6464   -1714547.87645  -1160086.99261
  24216232.6384   -2378538.09245  -1705012.68161
 91  4 15 21 19 30.0010000  0  6G18G 2G11G19G16G 6
  22066074.169     6970169.240 7   5431287.00522
  22458600.575    -7233595.458 6  -5636539.86122
  23323046.364    -2657562.952 6  -2070811.48221
  21297388.1384    1522746.75446   1186555.28962
  24125810.271    -1717745.566 5  -1162578.71621
  24211261.2714   -2404680.24645  -1725383.04161
 91  4 15 21 19 45.0010000  0  6G18G 2G11G19G16G 6
  22074517.3334    7014534.68647   5465857.39162
  22453327.7244   -7261316.17547  -5658140.33762
  23323333.8724   -2656039.15646  -2069624.07761
  21299687.1534    1534832.98647   1195973.12962
  24125229.606    -1720813.037 5  -1164968.97021
  24206291.802    -2430816.726 5  -1745749.00321
 91  4 15 21 20  0.0010000  0  6G18G 2G11G19G16G 6
  22082976.802     7058987.353 7   5500495.73322
  22448067.4894   -7288965.67147  -5679685.29862
  23323653.4894   -2654369.60746  -2068323.09661
  21301994.3024    1546962.61947   1205424.78662
  24124668.810    -1723750.627 5  -1167258.03121
  24201319.841    -2456948.191 5  -1766111.02321
 91  4 15 21 20 15.0010000  0  6G18G 2G11G19G16G 6
  22091451.560     7103527.626 7   5535202.34222
  22442816.4664   -7316542.96446  -5701174.01662
  23323997.2944   -2652553.41546  -2066907.85561
  21304313.3644    1559136.48647   1214910.91862
  24124133.9814   -1726558.12145  -1169445.68761
  24196353.802    -2483073.791 5  -1786468.47121
 91  4 15 21 20 30.0010000  0  6G18G 2G11G19G16G 6
  22099941.388     7148153.449 7   5569975.61722
  22437582.6854   -7344050.07347  -5722608.03962
  23324373.903    -2650592.680 7  -2065379.96421
  21306634.3104    1571352.69147   1224430.03462
  24123623.6924   -1729237.30145  -1171533.38161
  24191377.7394   -2509195.69645  -1806823.06461
 91  4 15 21 20 45.0010000  0  6G18G 2G11G19G16G 6
  22108450.4114    7192862.92847   5604814.09462
  22432360.9974   -7371488.20447  -5743988.31062
  23324776.146    -2648488.478 7  -2063740.28821
  21308967.4194    1583609.98447   1233981.16262
  24123135.5604   -1731789.30545  -1173521.98861
  24186414.6144   -2535315.14345  -1827175.71661
 91  4 15 21 21  0.0010000  0  6G18G 2G11G19G16G 6
  22116978.6304    7237660.04347   5639720.84562
  22427153.356    -7398853.671 7  -5765311.96822
  23325198.5214   -2646237.07546  -2061985.91861
  21311309.1774    1595912.03447   1243567.17162
  24122673.9114   -1734210.72045  -1175408.82461
  24181445.3414   -2561428.55745  -1847523.68961
 91  4 15 21 21 15.0010000  0  6G18G 2G11G19G16G 6
  22125517.146     7282541.957 7   5674693.65422
  22421959.1384   -7426148.98247  -5786580.95662
  23325653.9424   -2643840.88647  -2060118.72661
  21313660.6224    1608256.35047   1253186.12062
  24122236.7944   -1736503.81345  -1177195.64561
  24176478.6534   -2587538.49945  -1867868.94361
 91  4 15 21 21 30.0010000  0  6G18G 2G11G19G16G 6
  22134072.083     7327509.887 7   5709733.50722
  22416778.9354   -7453372.61147  -5807794.08562
  23326138.6064   -2641298.38247  -2058137.51861
  21316019.0834    1620644.72447   1262839.38862
  24121823.7714   -1738667.28545  -1178881.49961
  24171509.083    -2613643.527 5  -1888210.39021
 91  4 15 21 21 45.0010000  0  6G18G 2G11G19G16G 6
  22142648.7394    7372562.97947   5744839.72762
  22411612.958    -7480525.047 7  -5828951.75122
  23326655.2084   -2638610.15947  -2056042.76561
  21318384.3254    1633076.40547   1272526.40962
  24121437.614    -1740701.629 5  -1180466.70521
  24166540.4504   -2639744.31245  -1908548.49661
 91  4 15 21 22  0.0010000  0  6G18G 2G11G19G16G 6
  22151239.2004    7417701.61347   5780012.59562
  22406460.271    -7507605.488 7  -5850053.30522
  23327194.3564   -2635775.40046  -2053833.82461
  21320757.7314    1645552.24147   1282247.84062
  24121078.099    -1742606.155 5  -1181950.77521
  24161574.4274   -2665840.16245  -1928882.81561
 91  4 15 21 22 15.0010000  0  6G18G 2G11G19G16G 6
  22159843.5054    7462925.08147   5815251.55462
  22401318.9424   -7534614.44847  -5871099.15562
  23327758.7714   -2632794.48046  -2051511.00061
  21323137.9034    1658071.75447   1292003.30462
  24120734.7554   -1744381.51045  -1183334.17761
  24156608.544    -2691931.717 5  -1949213.73821
 91  4 15 21 22 30.0010000  0  6G18G 2G11G19G16G 6
  22168465.075     7508236.599 7   5850559.13322
  22396194.3804   -7561548.51647  -5892086.65162
  23328355.1854   -2629664.10746  -2049071.71161
  21325530.9744    1670638.33947   1301795.44262
  24120425.7394   -1746024.68545  -1184614.58461
  24151648.724    -2718015.564 5  -1969538.68221
 91  4 15 21 22 45.0010000  0  6G18G 2G11G19G16G 6
  22177102.739     7553632.786 7   5885932.68022
  22391082.278    -7588410.894 7  -5913018.29222
  23328979.880    -2626387.428 6  -2046518.42921
  21327929.5054    1683248.67647   1311621.68062
  24120139.317    -1747538.625 5  -1185794.29621
  24146685.1224   -2744095.17145  -1989860.31461
 91  4 15 21 23  0.0010000  0  6G18G 2G11G19G16G 6
  22185759.021     7599117.467 7   5921375.19222
  22385984.278    -7615197.646 7  -5933890.99822
  23329629.1144   -2622960.42346  -2043848.01161
  21330340.7164    1695906.80247   1321485.14662
  24119874.302    -1748919.416 5  -1186870.26521
  24141720.810    -2770166.502 5  -2010175.50121
 91  4 15 21 23 15.0010000  0  6G18G 2G11G19G16G 6
  22194433.692     7644685.824 7   5956882.89622
  22380901.388    -7641912.969 7  -5954708.03922
  23330312.3644   -2619387.31047  -2041063.74561
  21332754.3724    1708608.53147   1331382.59162
  24119639.7554   -1750171.13346  -1187845.65361
  24136760.028    -2796233.864 5  -2030487.58421
 91  4 15 21 23 30.0010000  0  6G18G 2G11G19G16G 6
  22203118.528     7690340.805 7   5992458.10822
  22375832.4034   -7668553.80047  -5975467.04662
  23331019.7474   -2615664.94747  -2038163.17861
  21335182.3564    1721356.98047   1341316.44362
  24119430.4814   -1751291.13745  -1188718.38261
  24131799.349    -2822294.301 5  -2050794.27821
 91  4 15 21 23 45.0010000  0  6G18G 2G11G19G16G 6
  22211824.224     7736083.997 7   6028102.05722
  22370775.4584   -7695118.34947  -5996166.60162
  23331759.5444   -2611791.51547  -2035144.87861
  21337616.5284    1734153.78147   1351287.97062
  24119246.1924   -1752277.93345  -1189487.33161
  24126837.403    -2848346.111 5  -2071094.22021
 91  4 15 21 24  0.0010000  0  6G18G 2G11G19G16G 6
  22220544.8564    7781912.85447   6063812.75762
  22365733.3254   -7721608.70647  -6016808.35262
  23332520.2244   -2607769.07947  -2032010.48061
  21340062.5364    1746996.96747   1361295.64262
  24119078.0754   -1753133.20245  -1190153.78161
  24121884.5214   -2874391.55645  -2091389.22961
 91  4 15 21 24 15.0010000  0  6G18G 2G11G19G16G 6
  22229282.036     7827831.171 7   6099593.16122
  22360709.5834   -7748020.98447  -6037389.25762
  23333317.411    -2603593.789 7  -2028756.98121
  21342512.7394    1759890.36547   1371342.43762
  24118932.661    -1753853.226 5  -1190714.85521
  24116931.1304   -2900426.70245  -2111676.23361
 91  4 15 21 24 30.0010000  0  6G18G 2G11G19G16G 6
  22238036.302     7873836.618 7   6135441.45622
  22355696.5444   -7774357.31747  -6057910.97662
  23334133.9814   -2599267.79647  -2025386.05161
  21344978.1774    1772831.88447   1381426.73062
  24118819.9114   -1754440.28645  -1191172.32461
  24111981.794    -2926453.805 5  -2131956.93521
 91  4 15 21 24 45.0010000  0  6G18G 2G11G19G16G 6
  22246806.474     7919929.015 7   6171357.50422
  22350701.0674   -7800617.61447  -6078373.45962
  23334994.2084   -2594790.94647  -2021897.55861
  21347449.0834    1785821.65347   1391548.62462
  24118740.638    -1754894.259 5  -1191526.06721
  24107032.3724   -2952472.85145  -2152231.38361
 91  4 15 21 25  0.0010000  0  6G18G 2G11G19G16G 6
  22255596.1694    7966108.81147   6207341.66462
  22345718.0674   -7826801.23747  -6098776.19562
  23335868.0444   -2590162.64946  -2018291.05561
  21349930.2714    1798860.30447   1401708.60562
  24118676.1924   -1755214.41145  -1191775.56661
  24102082.0054   -2978483.40345  -2172499.21361
 91  4 15 21 25 15.0010000  0  6G18G 2G11G19G16G 6
  22264399.708     8012376.026 7   6243393.93622
  22340748.8884   -7852907.68247
  23336783.3564   -2585382.36247  -2014566.13661
  21352421.2244    1811948.27647   1411907.01662
  24118635.505    -1755400.656 5
  24097135.349    -3004485.091 5
 91  4 15 21 25 30.0010000  0  6G18G 2G11G19G16G 6
  22273220.911     8058731.380 7   6279514.88122
  22335797.8964   -7878936.03147
  23337718.3804   -2580449.16046  -2010722.05961
  21354919.1464    1825086.51947   1422144.60562
  24118631.341    -1755452.231 5
  24092184.341    -3030476.916 5
 91  4 15 21 25 45.0010000  0  6G18G 2G11G19G16G 6
  22282060.7864    8105174.36147   6315704.11762
  22330860.2394   -7904886.43447
  23338690.1064   -2575363.27147  -2006758.99361
  21357431.8104    1838274.87947   1432421.25063
  24118650.271    -1755369.608 5
  24087238.466    -3056459.204 5
 91  4 15 21 26  0.0010000  0  6G18G 2G11G19G16G 6
  22290910.692     8151703.029 7   6351960.12222
  22325935.5914   -7930760.48847  -6179783.03762
  23339680.5364   -2570126.22146  -2002678.14361
  21359952.1774    1851511.78647   1442735.71462
  24118690.9814   -1755153.86845
  24082300.161    -3082433.715 5  -2253498.90021
 91  4 15 21 26 15.0010000  0  6G18G 2G11G19G16G 6
  22299781.5914    8198314.42247   6388280.59162
  22321025.294    -7956560.833 7  -6199887.11522
  23340708.0214   -2564740.70146  -1998481.60461
  21362478.1614    1864794.61247   1453085.96162
  24118756.0054   -1754808.23945
  24077357.153    -3108403.152 5  -2273734.70821
 91  4 15 21 26 30.0010000  0  6G18G 2G11G19G16G 6
  22308671.177     8245012.556 7   6424668.64422
  22316130.2474   -7982283.45947  -6219930.63262
  23341758.8644   -2559202.69746  -1994166.25161
  21365013.9424    1878127.48047   1463475.20762
  24118845.794    -1754328.575 5  -1191085.40421
  24072417.1464   -3134363.52045  -2293963.41261
 91  4 15 21 26 45.0010000  0  6G18G 2G11G19G16G 6
  22317571.5524    8291794.33447   6461121.87362
  22311249.2784   -8007931.27447  -6239915.84462
  23342846.341    -2553515.117 7  -1989734.34521
  21367558.5994    1891507.50847   1473901.19262
  24118961.7634   -1753717.78445  -1190609.48661
  24067479.7554   -3160317.78646  -2314187.37161
 91  4 15 21 27  0.0010000  0  6G18G 2G11G19G16G 6
  22326492.489     8338662.487 7   6497642.40722
  22306382.7714   -8033501.11947  -6259840.30862
  23343955.0994   -2547674.87747  -1985183.47361
  21370115.4814    1904937.60947   1484366.20462
  24119105.9114   -1752972.81445  -1190028.99761
  24062539.075    -3186262.896 6  -2334404.19721
 91  4 15 21 27 15.0010000  0  6G18G 2G11G19G16G 6
  22335423.903     8385615.372 7   6534228.95822
  22301532.2634   -8058994.65647  -6279705.30562
  23345093.4034   -2541683.42647  -1980514.78361
  21372681.9354    1918416.44747   1494869.18662
  24119279.2314   -1752095.40545  -1189345.33661
  24057602.294    -3212200.509 5  -2354615.15621
 91  4 15 21 27 30.0010000  0  6G18G 2G11G19G16G 6
  22344378.192     8432654.344 7   6570882.60422
  22296696.3334   -8084410.15447  -6299509.50062
  23346270.8884   -2535539.12447  -1975726.99361
  21375257.2864    1931945.69947   1505411.45762
  24119468.8104   -1751083.99945  -1188557.25261
  24052666.9664   -3238128.99045  -2374819.05161
 91  4 15 21 27 45.0010000  0  6G18G 2G11G19G16G 6
  22353346.325     8479776.325 7   6607600.92122
  22291873.364    -8109750.186 7  -6319254.88822
  23347455.2944   -2529244.57046  -1970822.12161
  21377837.5754    1945522.78947   1515991.00362
  24119683.513    -1749941.073 5  -1187666.68521
  24047736.716    -3264050.995 5  -2395017.88221
 91  4 15 21 28  0.0010000  0  6G18G 2G11G19G16G 6
  22362326.130     8526983.110 7   6644385.31122
  22287066.911    -8135012.756 7  -6338939.93722
  23348680.8104   -2522797.74246  -1965798.58361
  21380433.3174    1959149.67647   1526609.35062
  24119927.989    -1748664.991 5  -1186672.34421
  24042805.8414   -3289964.70645  -2415210.25661
 91  4 15 21 28 15.0010000  0  6G18G 2G11G19G16G 6
  22371325.474     8574276.245 7   6681237.00022
  22282272.9664   -8160195.95947  -6358563.11562
  23349947.903    -2516196.831 6  -1960654.99021
  21383036.0524    1972828.11447   1537267.87062
  24120198.0994   -1747253.92745  -1185572.84461
  24037874.7314   -3315868.36645  -2435394.82561
 91  4 15 21 28 30.0010000  0  6G18G 2G11G19G16G 6
  22380344.278     8621654.567 7   6718155.07122
  22277496.0604   -8185300.90747  -6378125.32862
  23351233.9194   -2509442.90946  -1955392.16161
  21385646.4894    1986557.22547   1547965.87262
  24120483.161    -1745709.052 5  -1184369.06321
  24032949.966    -3341763.065 5  -2455572.40121
 91  4 15 21 28 45.0010000  0  6G18G 2G11G19G16G 6
  22389374.989     8669117.631 7   6755139.16222
  22272733.075    -8210327.981 7  -6397626.85322
  23352544.036    -2502536.208 6  -1950010.30121
  21388271.7784    2000336.85747   1558703.24462
  24120805.3964   -1744030.60945  -1183061.18061
  24028019.567    -3367648.997 5  -2475743.14521
 91  4 15 21 29  0.0010000  0  6G18G 2G11G19G16G 6
  22398421.388     8716665.392 7   6792189.24922
  22267986.9744   -8235276.53847  -6417067.19962
  23353886.0604   -2495476.39046  -1944509.11261
  21390902.5914    2014167.18247   1569480.10862
  24121154.396    -1742218.327 5  -1181649.03421
  24023101.833    -3393525.928 5  -2495906.86221
 91  4 15 21 29 15.0010000  0  6G18G 2G11G19G16G 6
  22407489.1144    8764296.41647   6829304.23562
  22263253.2314   -8260148.03747  -6436447.49662
  23355266.9664   -2488264.78446  -1938889.65061
  21393542.6694    2028047.02447   1580295.56062
  24121519.2164   -1740273.67745  -1180133.72361
  24018180.450    -3419395.303 5  -2516064.65921
 91  4 15 21 29 30.0010000  0  6G18G 2G11G19G16G 6
  22416564.903     8812007.689 7   6866481.74822
  22258535.0214   -8284944.94147  -6455769.67062
  23356661.271    -2480903.894 6  -1933153.86821
  21396194.4744    2041974.01147   1591147.75162
  24121915.192    -1738199.035 5  -1178517.18321
  24013254.028    -3445259.640 5  -2536218.56221
 91  4 15 21 29 45.0010000  0  6G18G 2G11G19G16G 6
  22425662.1384    8859806.38047   6903727.35762
  22253833.4814   -8309660.15647  -6475028.18962
  23358092.989    -2473386.465 6  -1927296.11421
  21398854.450     2055955.241 7   1602042.20822
  24122338.8644   -1735987.64145  -1176794.04261
  24008333.763    -3471111.833 5  -2556362.98721
 91  4 15 21 30  0.0010000  0  6G18G 2G11G19G16G 6
  22434775.255     8907689.202 7   6941038.53822
  22249142.5914   -8334296.20447  -6494225.01362
  23359553.3254   -2465715.30447  -1921318.55561
  21401521.8254    2069988.00947   1612976.81962
  24122788.677    -1733642.482 5  -1174966.66021
  24003415.9504   -3496954.79145  -2576500.21861
 91  4 15 21 30 15.0010000  0  6G18G 2G11G19G16G 6
  22443898.9114    8955654.02446   6978413.59762
  22244470.8494   -8358855.25547  -6513361.84462
  23361044.208    -2457892.523 6  -1915222.85721
  21404204.2164    2084070.27447   1623950.01262
  24123254.146    -1731165.468 5  -1173036.53221
  23998495.989    -3522790.461 5  -2596631.79321
 91  4 15 21 30 30.0010000  0  6G18G 2G11G19G16G 6
  22453044.630     9003697.981 7   7015850.35622
  22239811.7944   -8383339.78247  -6532440.59662
  23362558.185    -2449920.551 6  -1909010.90421
  21406891.8494    2098199.64247   1634959.90262
  24123759.599    -1728559.006 5  -1171005.55021
  23993583.091    -3548621.429 5  -2616759.69121
 91  4 15 21 30 45.0010000  0  6G18G 2G11G19G16G 6
  22462206.403     9051828.818 7   7053354.78722
  22235165.9584   -8407742.14347  -6551455.33862
  23364106.8104   -2441791.83046  -1902676.81361
  21409591.5914    2112383.82146   1646012.50162
  24124278.278    -1725815.348 5  -1168867.64921
  23988668.7714   -3574440.12645  -2636878.02961
 91  4 15 21 31  0.0010000  0  6G18G 2G11G19G16G 6
  22471379.4814    9100040.79547   7090922.44662
  22230538.6774   -8432067.59447  -6570410.14362
  23365681.231    -2433511.396 6  -1896224.50221
  21412298.6064    2126617.80047   1657103.90962
  24124813.544    -1722940.079 5  -1166627.22021
  23983754.591    -3600251.747 5  -2656990.84821
 91  4 15 21 31 15.0010000  0  6G18G 2G11G19G16G 6
  22480567.7314    9148333.23747   7128552.79262
  22225922.856    -8456316.411 7  -6589305.23922
  23367278.130    -2425079.781 6  -1889654.38821
  21415018.7164    2140900.88747   1668233.58262
  24125388.880    -1719933.727 5  -1164284.62921
  23978846.8644   -3626056.83345  -2677098.59461
 91  4 15 21 31 30.0010000  0  6G18G 2G11G19G16G 6
  22489772.786     9196708.060 7   7166247.35022
  22221324.6304   -8480486.37247  -6608138.88762
  23368914.302    -2416494.878 6  -1882964.83921
  21417742.106     2155235.253 7   1679403.20722
  24125989.1464   -1716794.33845  -1161838.35661
  23973940.036    -3651853.220 5  -2697199.56621
 91  4 15 21 31 45.0010000  0  6G18G 2G11G19G16G 6
  22498996.677     9245166.078 7   7204006.73622
  22216738.0364   -8504576.44647  -6626910.28262
  23370582.833    -2407755.679 6  -1876155.05021
  21420483.4584    2169622.17347   1690613.78662
  24126604.231    -1713521.066 5  -1159287.80621
  23969035.310    -3677639.998 5  -2717293.02721
 91  4 15 21 32  0.0010000  0  6G18G 2G11G19G16G 6
  22508233.169     9293706.540 7   7241830.35022
  22212168.2394   -8528587.29147  -6645619.94162
  23372272.1464   -2398862.67846  -1869225.44061
  21423235.0834    2184060.98247   1701864.79862
  24127256.552    -1710114.377 5  -1156633.28121
  23964127.310    -3703417.801 5  -2737379.49021
 91  4 15 21 32 15.0010000  0  6G18G 2G11G19G16G 6
  22517484.700     9342326.274 7   7279715.73622
  22207614.9744   -8552521.80947  -6664270.12662
  23373997.106    -2389818.674 6  -1862178.14421
  21425988.294     2198548.977 7   1713154.13522
  24127933.3104   -1706577.15045  -1153877.02961
  23959220.4194   -3729189.35645  -2757461.09161
 91  4 15 21 32 30.0010000  0  6G18G 2G11G19G16G 6
  22526751.4744    9391023.36946   7317661.40962
  22203075.7634   -8576381.37347  -6682861.90562
  23375742.669    -2380625.442 7  -1855014.56621
  21428755.192     2213084.586 7   1724480.57122
  24128637.692    -1702911.203 5  -1151020.50321
  23954318.1384   -3754956.51645  -2777539.26761
 91  4 15 21 32 45.0010000  0  6G18G 2G11G19G16G 6
  22536032.403     9439800.514 7   7355669.44522
  22198548.5134   -8600163.19247  -6701393.10162
  23377524.075    -2371280.291 7  -1847732.61021
  21431527.2784    2227670.55147   1735846.24862
  24129355.817    -1699113.913 5  -1148061.58821
  23949414.114    -3780716.456 5  -2797611.83321
 91  4 15 21 33  0.0010000  0  6G18G 2G11G19G16G 6
  22545330.0364    9488657.08146   7393739.38262
  22194039.927    -8623867.771 7  -6719864.10922
  23379330.575    -2361783.312 6  -1840332.34521
  21434312.3104    2242306.58447   1747250.93962
  24130100.8804   -1695185.44245  -1145000.48561
  23944516.8724   -3806469.55745  -2817679.05761
 91  4 15 21 33 15.0010000  0  6G18G 2G11G19G16G 6
  22554640.1534    9537590.84847   7431869.47162
  22189541.278    -8647496.913 7  -6738276.34922
  23381168.427    -2352136.414 6  -1832815.27121
  21437112.2164    2256990.96147   1758693.30462
  24130876.458    -1691128.057 5  -1141838.91321
  23939610.3724   -3832217.66045  -2837742.38361
 91  4 15 21 33 30.0010000  0  6G18G 2G11G19G16G 6
  22563968.419     9586603.928 6   7470061.36322
  22185057.9974   -8671048.53147  -6756628.17462
  23383029.802    -2342337.704 6  -1825179.90021
  21439915.0754    2271725.80847   1770174.99562
  24131674.864    -1686939.608 6  -1138575.24121
  23934710.4584   -3857958.84045  -2857800.30861
 91  4 15 21 33 45.0010000  0  6G18G 2G11G19G16G 6
  22573310.317     9635695.358 6   7508314.31322
  22180592.528    -8694523.290 7  -6774920.10722
  23384920.005    -2332387.772 6  -1817426.69321
  21442727.7244    2286510.57847   1781695.58662
  24132492.958    -1682620.586 5  -1135209.81121
  23929814.981    -3883693.696 5  -2877853.33121
 91  4 15 21 34  0.0010000  0  6G18G 2G11G19G16G 6
  22582668.169     9684868.472 6   7546630.90922
  22176140.614    -8717917.141 7  -6793149.00222
  23386847.981    -2322282.645 6  -1809552.54721
  21445551.4194    2301349.36547   1793258.26762
  24133340.0524   -1678167.60645  -1131739.99561
  23924923.942    -3909418.424 5  -2897898.42821
 91  4 15 21 34 15.0010000  0  6G18G 2G11G19G16G 6
  22592040.489     9734121.124 7   7585009.47422
  22171705.481    -8741232.188 7  -6811316.48322
  23388799.927    -2312024.454 7  -1801559.14521
  21448383.3254    2316239.90047   1804861.27862
  24134215.317    -1673582.621 5  -1128167.28821
  23920027.771    -3935135.155 5  -2917937.32321
 91  4 15 21 34 30.0010000  0  6G18G 2G11G19G16G 6
  22601426.9274    9783458.09846   7623453.74161
  22167285.458    -8764463.190 7  -6829418.47822
  23390780.685    -2301608.164 7  -1793442.54021
  21451230.5524    2331187.38447   1816508.66062
  24135106.1384   -1668860.66245  -1124487.88261
  23915136.435    -3960838.683 5  -2937965.94521
 91  4 15 21 34 45.0010000  0  6G18G 2G11G19G16G 6
  22610834.911     9832874.975 7   7661960.29022
  22162878.255    -8787614.412 7  -6847458.31322
  23392790.3414   -2291037.95847  -1785206.00761
  21454084.1534    2346187.72447   1828197.22462
  24136035.380    -1664006.113 5  -1120705.16621
  23910242.1464   -3986533.31245  -2957987.59261
 91  4 15 21 35  0.0010000  0  6G18G 2G11G19G16G 6
  22620251.6064    9882369.59047   7700527.40261
  22158485.833    -8810688.059 7  -6865437.70522
  23394835.3564   -2280316.12147  -1776851.32261
  21456948.7244    2361238.69647   1839925.24462
  24136987.4504   -1659021.16945  -1116820.83261
  23905359.2634   -4012221.22745  -2978004.02761
 91  4 15 21 35 15.0010000  0  6G18G 2G11G19G16G 6
  22629688.3024    9931941.91247   7739155.06262
  22154108.177    -8833683.973 7  -6883356.51922
  23396901.0134   -2269442.33247  -1768378.23361
  21459821.3334    2376340.61147   1851692.95862
  24137955.5604   -1653905.78245  -1112834.86361
  23900476.8414   -4037902.26445  -2998015.11461
 91  4 15 21 35 30.0010000  0  6G18G 2G11G19G16G 6
  22639131.9034    9981591.48247   7777842.90562
  22149750.747    -8856601.864 7  -6901214.54122
  23398996.841    -2258416.496 6  -1759786.65421
  21462704.474     2391493.738 6   1863500.57722
  24138949.0604   -1648659.57845  -1108746.97461
  23895585.1924   -4063576.31345  -3018020.73261
 91  4 15 21 35 45.0010000  0  6G18G 2G11G19G16G 6
  22648597.317    10031318.151 7   7816590.84221
  22145403.950    -8879441.796 7  -6919011.80322
  23401127.3494   -2247238.75747  -1751076.71861
  21465598.4274    2406698.15247   1875348.16262
  24139968.7084   -1643283.18145  -1104557.62561
  23890703.9504   -4089243.55145  -3038021.05461
 91  4 15 21 36  0.0010000  0  6G18G 2G11G19G16G 6
  22658071.4194   10081120.74146   7855397.93161
  22141073.192    -8902204.635 7  -6936749.00822
  23403285.044    -2235909.997 6  -1742249.09721
  21468499.138     2421953.015 7   1887235.05622
  24141024.505    -1637777.268 5  -1100267.33721
  23885817.817    -4114904.797 5  -3058016.71321
 91  4 15 21 36 15.0010000  0  6G18G 2G11G19G16G 6
  22667565.669    10131002.680 7   7894266.84822
  22136756.9894   -8924886.86147  -6954423.39762
  23405471.6384   -2224426.79247  -1733301.14661
  21471416.0364    2437261.79747   1899163.96962
  24142102.864    -1632138.556 5  -1095873.58921
  23880938.9194   -4140556.66545  -3078005.04961
 91  4 15 21 36 30.0010000  0  6G18G 2G11G19G16G 6
  22677074.8494   10180962.57147   7933196.50461
  22132456.567    -8947489.406 7  -6972035.69422
  23407683.552    -2212790.043 7  -1724233.53521
  21474335.1924    2452623.61646   1911134.21362
  24143205.974    -1626368.167 5  -1091377.22021
  23876058.403    -4166199.979 5  -3097986.73921
 91  4 15 21 36 45.0010000  0  6G18G 2G11G19G16G 6
  22686594.833    10231003.501 7   7972189.30821
  22128170.614    -8970009.083 7  -6989583.42323
  23409926.427    -2200996.648 7  -1715043.86721
  21477271.3724    2468041.75846   1923148.34362
  24144331.8254   -1620463.10445  -1086775.94261
  23871177.231    -4191831.633 5  -3117959.34021
 91  4 15 21 37  0.0010000  0  6G18G 2G11G19G16G 6
  22696132.4274   10281122.22046   8011242.73361
  22123900.583    -8992448.757 7  -7007068.81222
  23412199.661    -2189049.593 7  -1705734.45421
  21480216.6694    2483513.29747   1935204.08162
  24145472.067    -1614426.106 5  -1082071.83221
  23866303.7474   -4217454.54445  -3137925.13161
 91  4 15 21 37 15.0010000  0  6G18G 2G11G19G16G 6
  22705682.458    10331318.731 6   8050356.76221
  22119645.419    -9014808.353 7  -7024491.79422
  23414505.2314   -2176948.67847  -1696305.16561
  21483169.3804    2499038.31647   1947301.49162
  24146640.1464   -1608257.13245  -1077264.89261
  23861429.294    -4243068.671 5  -3157884.07521
 91  4 15 21 37 30.0010000  0  6G18G 2G11G19G16G 6
  22715252.521    10381597.037 6   8089534.53622
  22115406.3254   -9037083.38347  -7041848.90762
  23416838.505    -2164689.683 7  -1686752.69421
  21486134.2164    2514621.39947   1959444.14662
  24147840.7554   -1601952.11145  -1072351.92861
  23856557.927    -4268669.701 5  -3177832.82621
 91  4 15 21 37 45.0010000  0  6G18G 2G11G19G16G 6
  22724836.833    10431951.883 6   8128771.96321
  22111183.396    -9059279.025 7  -7059144.13222
  23419200.5214   -2152277.62047  -1677080.94861
  21489108.7314    2530257.61347   1971628.19962
  24149064.8804   -1595516.28545  -1067337.03461
  23851687.239    -4294262.685 5  -3197775.26521
 91  4 15 21 38  0.0010000  0  6G18G 2G11G19G16G 6
  22734428.5754   10482380.95947   8168067.21961
  22106972.755    -9081397.192 7  -7076379.00122
  23421586.7244   -2139714.49546  -1667291.49261
  21492093.466     2545944.852 7   1983852.00522
  24150319.6774   -1588951.85045  -1062221.92361
  23846818.4814   -4319849.59245  -3217712.97861
 91  4 15 21 38 15.0010000  0  6G18G 2G11G19G16G 6
  22744043.7714   10532884.27646   8207420.32161
  22102776.427    -9103437.516 7  -7093553.21423
  23424011.9584   -2127000.06747  -1657384.13961
  21495090.1924    2561683.55347   1996115.91962
  24151599.388    -1582258.595 5  -1057006.45321
  23841947.8104   -4345430.25245  -3237645.85961
 91  4 15 21 38 30.0010000  0  6G18G 2G11G19G16G 6
  22753664.7714   10583463.59646   8246832.65561
  22098598.263    -9125398.201 7  -7110665.35722
  23426451.567    -2114132.544 6  -1647357.48821
  21498093.903     2577475.655 7   2008421.44022
  24152900.5444   -1575434.56445  -1051689.06361
  23837086.099    -4371002.814 5  -3257572.40621
 91  4 15 21 38 45.0010000  0  6G18G 2G11G19G16G 6
  22763306.1144   10634118.97946   8286304.24761
  22094434.763    -9147278.735 7  -7127715.04922
  23428930.1224   -2101111.48046  -1637211.19961
  21501111.8334    2593321.63047   2020768.94262
  24154217.7784   -1568479.46945  -1046269.55061
  23832219.8334   -4396566.79345  -3277492.26061
 91  4 15 21 39  0.0010000  0  6G18G 2G11G19G16G 6
  22772958.544    10684850.394 6   8325835.10021
  22090285.997    -9169078.987 7  -7144702.18323
  23431442.310    -2087936.792 7  -1626945.18921
  21504139.263     2609221.695 7   2033158.58822
  24155553.825    -1561393.303 5  -1040747.89221
  23827358.731    -4422122.016 5  -3297405.32521
 91  4 15 21 39 15.0010000  0  6G18G 2G11G19G16G 6
  22782630.286    10735655.908 6   8365423.68021
  22086152.958    -9190800.621 7  -7161628.05423
  23433979.841    -2074610.166 7  -1616560.79021
  21507172.981     2625174.408 7   2045589.26323
  24156930.7164   -1554177.69545  -1035125.37961
  23822497.224    -4447670.077 5  -3317312.77021
 91  4 15 21 39 30.0010000  0  6G18G 2G11G19G16G 6
  22792310.575    10786538.745 6   8405072.50721
  22082036.8334   -9212440.26147  -7178490.04362
  23436545.3104   -2061128.37446  -1606055.49561
  21510219.1304    2641183.11247   2058063.56663
  24158330.2864   -1546829.57545  -1029399.60861
  23817634.7634   -4473207.85645  -3337212.22961
 91  4 15 21 39 45.0010000  0  6G18G 2G11G19G16G 6
  22802012.239    10837495.518 6   8444778.94821
  22077934.810    -9234001.099 7  -7195290.61122
  23439140.1924   -2047494.54746  -1595431.72161
  21513277.7314    2657244.68447   2070579.06962
  24159753.2164   -1539351.92945  -1023572.93661
  23812776.177    -4498738.435 5  -3357106.06721
 91  4 15 21 40  0.0010000  0  6G18G 2G11G19G16G 6
  22811720.146    10888526.444 6   8484543.16921
  22073845.755    -9255482.263 7  -7212029.10322
  23441758.442    -2033708.100 6  -1584689.02221
  21516343.974     2673359.784 7   2083136.27022
  24161203.5134   -1531744.54045  -1017645.11961
  23807921.286    -4524261.167 5  -3376993.77821
 91  4 15 21 40 15.0010000  0  6G18G 2G11G19G16G 6
  22821441.950    10939631.184 6   8524364.90721
  22069773.435    -9276884.186 7  -7228705.84922
  23444414.286    -2019769.481 6  -1573827.74121
  21519420.942     2689528.187 7   2095735.00922
  24162682.200    -1524007.939 5  -1011616.64121
  23803060.263    -4549776.405 5  -3396875.64321
 91  4 15 21 40 30.0010000  0  6G18G 2G11G19G16G 6
  22831183.075    10990811.036 6   8564245.17621
  22065715.974    -9298205.137 7  -7245319.50422
  23447094.317    -2005676.927 6  -1562846.51321
  21522504.771     2705751.619 7   2108376.62522
  24164180.9894   -1516140.45945  -1005486.19561
  23798206.5604   -4575282.50245  -3416750.41361
 91  4 15 21 40 45.0010000  0  6G18G 2G11G19G16G 6
  22840938.1534   11042066.25847   8604184.17261
  22061673.3964   -9319444.34647  -7261869.45863
  23449803.5754   -1991429.79046  -1551744.84561
  21525602.614     2722030.721 7   2121061.63222
  24165696.7864   -1508141.63045   -999253.41761
  23793359.716    -4600778.795 5  -3436617.52821
 91  4 15 21 41  0.0010000  0  6G18G 2G11G19G16G 6
  22850705.356    11093396.646 6   8644181.74521
  22057645.435    -9340602.199 7  -7278356.02023
  23452541.216    -1977028.363 6  -1540522.94121
  21528712.4664    2738365.46047   2133789.98762
  24167241.005    -1500011.541 5   -992918.32221
  23788507.2474   -4626265.37645  -3456477.06461
 91  4 15 21 41 15.0010000  0  6G18G 2G11G19G16G 6
  22860488.3564   11144797.86646   8684234.49361
  22053636.4354   -9361682.61047  -7294782.24863
  23455312.3334   -1962476.74946  -1529184.01461
  21531831.3644    2754751.96747   2146558.68562
  24168809.3724   -1491754.25645   -986484.13361
  23783658.5994   -4651746.47545  -3476332.35161
 91  4 15 21 41 30.0010000  0  6G18G 2G11G19G16G 6
  22870279.6694   11196271.26746   8724343.49261
  22049637.7554   -9382684.24647  -7311147.09163
  23458116.9584   -1947773.56546  -1517726.98761
  21534956.888     2771191.836 7   2159368.96122
  24170414.669    -1483368.919 5   -979950.17721
  23778808.1384   -4677220.47345  -3496182.10461
 91  4 15 21 41 45.0010000  0  6G18G 2G11G19G16G 6
  22880090.411    11247816.378 6   8764508.37921
  22045658.2714   -9403606.94547  -7327450.42863
  23460936.8024   -1932918.80546  -1506151.84361
  21538097.9034    2787685.12647   2172220.86562
  24172031.575    -1474855.400 5   -973316.32521
  23773964.1464   -4702687.47646  -3516026.41261
 91  4 15 21 42  0.0010000  0  6G18G 2G11G19G16G 6
  22889914.067    11299432.388 6   8804728.51021
  22041689.4814   -9424451.24047  -7343692.66963
  23463798.8494   -1917913.00346  -1494459.00361
  21541244.0134    2804231.41547   2185114.07062
  24173672.130    -1466214.319 5   -966583.07321
  23769117.2314   -4728147.94145  -3535865.60661
 91  4 15 21 42 15.0010000  0  6G18G 2G11G19G16G 6
  22899749.005    11351119.712 6   8845004.20721
  22037737.6774   -9445216.19047  -7359873.08663
  23466679.927    -1902755.457 7  -1482647.91821
  21544404.8334    2820831.40447   2198049.10762
  24175335.4194   -1457445.11945   -959749.98461
  23764277.1464   -4753601.03545  -3555699.06861
 91  4 15 21 42 30.0010000  0  6G18G 2G11G19G16G 6
  22909598.724    11402878.989 6   8885335.98221
  22033804.5524   -9465901.56647  -7375991.50563
  23469593.419    -1887445.981 7  -1470718.44221
  21547576.3254    2837485.57047   2211026.37562
  24177039.544    -1448547.323 5   -952816.66621
  23759437.3174   -4779046.46045  -3575526.55261
 91  4 15 21 42 45.0010000  0  6G18G 2G11G19G16G 6
  22919460.3564   11454709.83646   8925723.50761
  22029882.5054   -9486507.19147  -7392047.76463
  23472533.911    -1871984.460 7  -1458670.49221
  21550755.5364    2854194.23847   2224046.10462
  24178754.8644   -1439521.18645   -945783.35561
  23754592.6224   -4804484.24045  -3595348.06361
 91  4 15 21 43  0.0010000  0  6G18G 2G11G19G16G 6
  22929337.263    11506607.952 6   8966163.46621
  22025975.4424   -9507036.97847  -7408044.93162
  23475510.0214   -1856374.88547  -1446507.18361
  21553944.7944    2870953.53047   2237105.28362
  24180491.7784   -1430370.66745   -938653.15061
  23749756.4114   -4829918.23645  -3615166.65961
 91  4 15 21 43 15.0010000  0  6G18G 2G11G19G16G 6
  22939226.192    11558575.523 6   9006657.53421
  22022084.0444   -9527488.51947  -7423981.13462
  23478507.0834   -1840614.97847  -1434226.75061
  21557142.7714    2887765.69347   2250205.65862
  24182259.450    -1421093.305 5   -931424.11621
  23744919.231    -4855345.992 5  -3634980.37021
 91  4 15 21 43 30.0010000  0  6G18G 2G11G19G16G 6
  22949128.708    11610617.390 6   9047209.50021
  22018206.4894   -9547856.74147  -7439852.41462
  23481530.3804   -1824699.68547  -1421825.21961
  21560355.6854    2904635.82047   2263351.19962
  24184049.583    -1411684.556 5   -924092.69121
  23740076.880    -4880762.589 5  -3654785.41121
 91  4 15 21 43 45.0010000  0  6G18G 2G11G19G16G 6
  22959048.2314   11662730.81646   9087817.23461
  22014346.302    -9568144.131 7  -7455660.69422
  23484598.0754   -1808631.55947  -1409304.60361
  21563570.1694    2921561.58347   2276540.09262
  24185872.638    -1402146.653 5   -916660.64021
  23735245.0524   -4906170.44945  -3674583.60661
 91  4 15 21 44  0.0010000  0  6G18G 2G11G19G16G 6
  22968978.7864   11714911.00746   9128476.97661
  22010501.4744   -9588355.08847  -7471409.42262
  23487679.8564   -1792415.07747  -1396668.38461
  21566803.9504    2938538.85547   2289769.12862
  24187709.747    -1392484.413 5   -909131.69221
  23730408.856    -4931573.950 5  -3694378.41021
 91  4 15 21 44 15.0010000  0  6G18G 2G11G19G16G 6
  22978919.3104   11767160.60146   9169190.79161
  22006670.146    -9608487.057 7  -7487096.59823
  23490796.9584   -1776047.78147  -1383914.63461
  21570044.8884    2955570.15047   2303040.25462
  24189565.1144   -1382695.58545   -901504.09761
  23725575.9744   -4956970.54945  -3714167.86761
 91  4 15 21 44 30.0010000  0  6G18G 2G11G19G16G 6
  22988877.958    11819482.535 6   9209960.98821
  22002855.903    -9628536.466 7  -7502719.43623
  23493936.5754   -1759526.26647  -1371040.72861
  21573298.505     2972658.933 7   2316356.17422
  24191458.7554   -1372776.40445   -893774.95761
  23720746.9194   -4982356.84245  -3733949.28061
 91  4 15 21 44 45.0010000  0  6G18G 2G11G19G16G 6
  22998844.521    11871873.688 6   9250785.12521
  21999056.6614   -9648506.56447  -7518280.48563
  23497106.5994   -1742853.67647  -1358049.09361
  21576560.802     2989802.302 7   2329714.63322
  24193361.044    -1362730.340 5   -885946.93521
  23715917.3644   -5007735.72545  -3753724.91361
 91  4 15 21 45  0.0010000  0  6G18G 2G11G19G16G 6
  23008826.5214   11924330.70746   9291660.58561
  21995267.0914   -9668400.26747  -7533782.00463
  23500309.1464   -1726033.00147  -1344942.06961
  21579829.9424    3006997.33647   2343113.35062
  24195297.8884   -1352560.72845   -878022.62861
  23711086.521    -5033110.308 5  -3773497.20121
 91  4 15 21 45 15.0010000  0  6G18G 2G11G19G16G 6
  23018823.403    11976854.173 6   9332587.81421
  21991496.5284   -9688216.65647  -7549223.28263
  23503537.4664   -1709063.59547  -1331719.16461
  21583113.2554    3024244.88347   2356552.98662
  24197258.1304   -1342266.64245   -870001.33161
  23706262.638    -5058479.808 5  -3793265.54021
 91  4 15 21 45 30.0010000  0  6G18G 2G11G19G16G 6
  23028830.763    12029444.663 6   9373567.27921
  21987742.3174   -9707954.81147  -7564603.60063
  23506800.0914   -1691944.54747  -1318379.64461
  21586400.450     3041546.163 7   2370034.48922
  24199248.036    -1331847.153 5   -861882.29221
  23701434.091    -5083843.190 5  -3813029.10721
 91  4 15 21 45 45.0010000  0  6G18G 2G11G19G16G 6
  23038849.771    12082105.277 6   9414601.37921
  21983998.2474   -9727611.64947  -7579920.55263
  23510084.0914   -1674672.92647
  21589709.5524    3058904.06147
  24201255.356    -1321299.710 5   -853663.54021
  23696609.739    -5109197.404 5  -3832785.52621
 91  4 15 21 46  0.0010000  0  5G18G 2G11G19G 6
  23048886.7164   12134833.23046   9455687.96561
  21980274.3024   -9747189.65647  -7595176.07563
  23513396.255    -1657251.204 7
  21593022.114     3076316.256 7   2397128.04422
  23691787.2164   -5134544.96445  -3852536.75261
 91  4 15 21 46 15.0010000  0  6G18G 2G11G19G16G 6
  23058932.450    12187629.559 6   9496827.82121
  21976565.8254   -9766687.50747  -7610369.13563
  23516745.419    -1639678.129 7
  21596347.544     3093784.055 7   2410739.30222
  24205337.731          -0.48315
  23686965.8884   -5159884.52045  -3872281.77361
 91  4 15 21 46 30.0010000  0  6G18G 2G11G19G16G 6
  23068992.700    12240490.368 6   9538017.91221
  21972869.356    -9786108.694 7  -7625502.46223
  23520109.6224   -1621957.37747
  21599682.0994    3111304.07847   2424391.25562
  24207414.692       10922.544 5
  23682142.356    -5185219.628 5  -3892023.30021
 91  4 15 21 46 45.0010000  0  6G18G 2G11G19G16G 6
  23079063.9744   12293417.08946   9579259.36261
  21969190.935    -9805451.622 7  -7640574.80423
  23523513.0754   -1604087.45246        -0.06171
  21603026.716     3128877.964 7   2438085.18022
  24209520.8964      21969.94145        -0.07871
  23677319.403    -5210548.682 5  -3911760.13921
 91  4 15 21 47  0.0010000  0  6G18G 2G11G19G16G 6
  23089144.630    12346406.401 6   9620549.60021
  21965521.2554   -9824719.41247  -7655588.59563
  23526944.3884   -1586071.37846     14038.44261
  21606381.606     3146502.931 7   2451818.90422
  24211648.396       33138.559 5      8702.64221
  23672498.3104   -5235874.70246  -3931494.58661
 91  4 15 21 47 15.0010000  0  6G18G 2G11G19G16G 6
  23099243.0674   12399460.90746   9661890.62861
  21961870.6064   -9843909.27347  -7670541.67263
  23530397.3964   -1567906.48346     28192.90761
  21609743.067     3164181.752 7   2465594.60122
  24213790.8414      44431.16245     17502.00061
  23667684.2864   -5261194.93446  -3951224.53661
 91  4 15 21 47 30.0010000  0  6G18G 2G11G19G16G 6
  23109352.9424   12452578.38046   9703280.72161
  21958234.2714   -9863022.92147  -7685435.35963
  23533882.0834   -1549594.69846     42461.83361
  21613116.817     3181912.765 7   2479410.95422
  24215965.0364      55846.08045     26396.68161
  23662866.263    -5286511.104 5  -3970951.33721
 91  4 15 21 47 45.0010000  0  6G18G 2G11G19G16G 6
  23119473.7164   12505758.55246   9744719.65661
  21954610.8964   -9882060.31147  -7700269.62163
  23537396.692    -1531136.096 6     56845.17521
  21616500.333     3199696.014 7   2493268.01622
  24218159.4274      67382.96045     35386.38261
  23658046.153    -5311823.201 5  -3990674.94621
 91  4 15 21 48  0.0010000  0  6G18G 2G11G19G16G 6
  23129604.2244   12558998.12046   9786204.87861
  21951001.7634   -9901024.69647  -7715047.00163
  23540941.2084   -1512534.02446     71340.30361
  21619897.341     3217528.210 6   2507163.21422
  24220382.0284      79038.29045     44468.39561
  23653233.169    -5337134.481 6  -4010397.90021
 91  4 15 21 48 15.0010000  0  6G18G 2G11G19G16G 6
  23139745.646    12612303.711 6   9827741.56421
  21947405.3964   -9919909.11647  -7729762.06563
  23544504.2244   -1493781.42946     85952.71861
  21623300.4814    3235416.42247   2521102.07262
  24222628.419       90818.943 5     53648.07521
  23648416.489    -5362437.985 5  -4030114.83721
 91  4 15 21 48 30.0010000  0  6G18G 2G11G19G16G 6
  23149899.310    12665672.569 6   9869327.54421
  21943828.1224   -9938716.04447  -7744416.74563
  23548103.7164   -1474881.12946    100680.23561
  21626708.942     3253358.421 7   2535082.83522
  24224880.9744     102722.28145     62923.33261
  23643600.028    -5387736.222 5  -4049827.65621
 91  4 15 21 48 45.0010000  0  6G18G 2G11G19G16G 6
  23160068.849    12719108.534 6   9910965.82321
  21940264.9194   -9957441.21747  -7759007.72563
  23551729.411    -1455829.035 6    115526.02721
  21630136.2634    3271358.26147   2549108.67062
  24227168.6064     114752.01745     72297.09061
  23638788.677    -5413025.015 5  -4069533.10921
 91  4 15 21 49  0.0010000  0  6G18G 2G11G19G16G 6
  23170253.9584   12772603.17846   9952649.81361
  21936716.8564   -9976093.13947  -7773541.62663
  23555381.419    -1436633.623 6    130483.50221
  21633574.661     3289407.714 7   2563173.16422
  24229490.536      126900.058 5     81763.04521
  23633976.8024   -5438312.58845  -4089237.61061
 91  4 15 21 49 15.0010000  0  6G18G 2G11G19G16G 6
  23180443.271    12826159.677 6   9994382.00221
  21933182.614    -9994668.163 7  -7788015.59623
  23559062.5134   -1417291.35346    145555.40861
  21637017.802     3307510.489 7   2577279.21122
  24231819.0524     139169.61045     91323.66961
  23629169.5674   -5463595.48846  -4108938.49361
 91  4 15 21 49 30.0010000  0  6G18G 2G11G19G16G 6
  23190646.599    12879781.716 6  10036165.25521
  21929660.8254  -10013162.43547  -7802426.64463
  23562765.6144   -1397798.54546    160744.60861
  21640471.786     3325670.227 7   2591429.63822
  24234179.966      151564.068 5    100981.61921
  23624360.0674   -5488869.94246  -4128632.76761
 91  4 15 21 49 45.0010000  0  6G18G 2G11G19G16G 6
  23200860.3884   12933464.93146  10077996.19361
  21926158.3414  -10031580.05547  -7816777.96663
  23566508.0054   -1378159.39046    176047.84361
  21643941.333     3343883.014 7   2605621.40322
  24236566.669      164079.524 5    110733.87421
  23619550.4664   -5514139.96446  -4148323.59561
 91  4 15 21 50  0.0010000  0  6G18G 2G11G19G16G 6
  23211088.450    12987209.422 6  10119874.87021
  21922666.4664  -10049920.61547  -7831069.26163
  23570276.5524   -1358373.46846    191465.43561
  21647414.419     3362149.532 7   2619855.03822
  24238969.4424     176716.08345    120580.46961
  23614739.9744   -5539405.15446  -4168010.65261
 91  4 15 21 50 15.0010000  0  6G18G 2G11G19G16G 6
  23221327.6774   13041017.58046  10161803.15861
  21919189.692   -10068181.668 7  -7845298.57223
  23574067.2714   -1338438.46746    206999.20261
  21650900.833     3380472.357 7   2634132.54922
  24241394.575      189475.964 5    130523.17821
  23609936.567    -5564662.909 6  -4187691.91321
 91  4 15 21 50 30.0010000  0  6G18G 2G11G19G16G 6
  23231578.122    13094884.984 6  10203777.61321
  21915731.5214  -10086367.06547  -7859468.94063
  23577889.7784   -1318358.37346    222646.03361
  21654397.583     3398847.617 7   2648450.92422
  24243843.271      202355.346 5    140558.98021
  23605128.536    -5589917.066 5  -4207370.38521
 91  4 15 21 50 45.0010000  0  6G18G 2G11G19G16G 6
  23241842.8024   13148809.92946  10245796.89961
  21912284.1464  -10104478.21647  -7873581.45263
  23581733.6224   -1298134.83246    238404.63661
  21657903.8644    3417274.02947   2662809.14962
  24246324.4894     215352.94445    150686.93361
  23600323.567    -5615169.075 6  -4227047.19221
 91  4 15 21 51  0.0010000  0  6G18G 2G11G19G16G 6
  23252114.2784   13202793.57646  10287861.93161
  21908852.1854  -10122513.97447  -7887635.23263
  23585611.060    -1277766.728 6    254275.86921
  21661421.302     3435752.694 7   2677208.09622
  24248819.9744     228469.27545    160907.39361
  23595518.208    -5640417.868 6  -4246721.45221
 91  4 15 21 51 15.0010000  0  6G18G 2G11G19G16G 6
  23262397.5674   13256838.10346  10329974.39461
  21905435.575   -10140471.801 7  -7901628.27023
  23589517.9194   -1257251.51446    270261.74061
  21664947.692     3454286.365 7   2691649.89922
  24251328.4894     241706.85245    171222.28461
  23590713.552    -5665660.813 6  -4266391.16821
 91  4 15 21 51 30.0010000  0  6G18G 2G11G19G16G 6
  23272691.7394   13310942.89246  10372133.82161
  21902033.0754  -10158351.90047  -7915560.75262
  23593445.0754   -1236589.63846    286361.89561
  21668484.1854    3472874.78347   2706134.37462
  24253878.419      255065.323 5    181631.42921
  23585911.5214   -5690898.10045  -4286056.49461
 91  4 15 21 51 45.0010000  0  6G18G 2G11G19G16G 6
  23282999.3254   13365105.91246  10414338.61161
  21898644.2084  -10176156.35247  -7929434.28162
  23597405.5994   -1215783.12246    302574.75761
  21672032.450     3491516.189 7   2720660.12622
  24256450.2004     268542.42145    192133.00561
  23581111.083    -5716131.780 6  -4305719.03221
 91  4 15 21 52  0.0010000  0  6G18G 2G11G19G16G 6
  23293318.1464   13419321.97346  10456584.73561
  21895267.4424  -10193889.98747  -7943252.62962
  23601394.4194   -1194836.96347    318896.43661
  21675588.653     3510205.597 7   2735223.28522
  24259024.380      282133.307 5    202723.23221
  23576311.153    -5741366.594 6  -4325382.40921
 91  4 15 21 52 15.0010000  0  6G18G 2G11G19G16G 6
  23303647.5834   13473599.67346  10498878.88861
  21891910.9744  -10211544.23447  -7957009.11962
  23605405.6064   -1173742.74246    335333.48961
  21679153.442     3528951.791 7   2749830.69322
  24261634.896      295846.151 5    213408.53021
  23571510.5994   -5766594.03146  -4345040.05561
 91  4 15 21 52 30.0010000  0  6G18G 2G11G19G16G 6
  23313986.544    13527935.628 6  10541218.43421
  21888565.8804  -10229121.69447  -7970705.77162
  23609446.8804   -1152503.34746    351883.65961
  21682733.700     3547752.163 7   2764480.31822
  24264264.997      309677.949 5    224186.47521
  23566710.599    -5791816.786 6  -4364694.08421
 91  4 15 21 52 45.0010000  0  6G18G 2G11G19G16G 6
  23324335.0214   13582326.88046  10583601.08661
  21885234.3414  -10246625.16147  -7984344.77162
  23613518.8644   -1131121.59846    368544.75761
  21686321.8564    3566604.06047   2779170.09862
  24266920.9744     323625.84945    235054.89161
  23561912.7474   -5817037.51946  -4384346.49361
 91  4 15 21 53  0.0010000  0  6G18G 2G11G19G16G 6
  23334697.7474   13636773.52846  10626026.88961
  21881916.9814  -10264054.40047  -7997925.93062
  23617610.0674   -1109597.39646    385316.85061
  21689921.896     3585507.834 7   2793900.29222
  24269605.317      337689.837 5    246013.81021
  23557110.036    -5842256.005 6  -4403997.14721
 91  4 15 21 53 15.0010000  0  6G18G 2G11G19G16G 6
  23345075.9354   13691281.41246  10668500.40961
  21878616.5364  -10281403.31547  -8011444.50463
  23621737.458    -1087924.862 6    402204.52521
  21693527.271     3604469.407 7   2808675.52822
  24272299.3414     351875.89445    257067.81661
  23552313.192    -5867466.138 6  -4423641.32421
 91  4 15 21 53 30.0010000  0  6G18G 2G11G19G16G 6
  23355460.435    13745847.893 6  10711019.57221
  21875327.8804  -10298674.04747  -8024902.15163
  23625890.505    -1066106.097 7    419206.14921
  21697146.372     3623486.939 7   2823494.37122
  24275017.341      366181.981 5    268215.34921
  23547517.5214   -5892670.06746  -4443280.63761
 91  4 15 21 53 45.0010000  0  6G18G 2G11G19G16G 6
  23365850.1384   13800473.78346  10753585.04161
  21872057.4814  -10315865.99147  -8038298.41163
  23630070.1304   -1044140.53446    436322.16361
  21700777.536     3642561.212 7   2838357.42622
  24277765.9894     380608.62745    279456.82761
  23542717.755    -5917866.955 6  -4462914.48021
 91  4 15 21 54  0.0010000  0  6G18G 2G11G19G16G 6
  23376253.856    13855155.466 6  10796193.97821
  21868798.3644  -10332982.33347  -8051635.75363
  23634271.864    -1022031.492 6    453549.97121
  21704413.427     3661689.006 7   2853262.18822
  24280538.5524     395152.31345    290789.48961
  23537921.216    -5943060.108 6  -4482545.43421
 91  4 15 21 54 15.0010000  0  6G18G 2G11G19G16G 6
  23386672.005    13909891.948 6  10838845.63521
  21865556.4664  -10350023.72747  -8064914.70263
  23638511.2394    -999779.91946    470888.83661
  21708063.341     3680869.719 7   2868208.18422
  24283326.8644     409811.97345    302212.55261
  23533135.5674   -5968250.16946  -4502173.96861
 91  4 15 21 54 30.0010000  0  6G18G 2G11G19G16G 6
  23397096.2474   13964681.89746  10881538.93361
  21862328.0284  -10366991.41847  -8078136.21663
  23642775.1224    -977386.93446    488337.88761
  21711723.653     3700102.349 7   2883194.63622
  24286135.1534     424586.40045    313724.96561
  23528340.380    -5993438.265 5  -4521800.97521
 91  4 15 21 54 45.0010000  0  6G18G 2G11G19G16G 6
  23407530.044    14019534.900 6  10924281.37121
  21859114.2714  -10383875.58247  -8091292.64863
  23647058.138     -954842.888 6    505904.66121
  21715399.505     3719396.824 7   2898229.27122
  24288966.3174     439485.08145    325334.26661
  23523548.3804   -6018614.54346  -4541418.78561
 91  4 15 21 55  0.0010000  0  6G18G 2G11G19G16G 6
  23417984.8254   14074445.13046  10967068.40761
  21855916.3724  -10400681.70847  -8104388.26663
  23651377.0834    -932153.59246    523584.62061
  21719077.192     3738747.518 7   2913307.71222
  24291831.192      454502.310 5    337035.90521
  23518758.4504   -6043784.58146  -4561031.72461
 91  4 15 21 55 15.0010000  0  6G18G 2G11G19G16G 6
  23428447.794    14129411.890 6  11009899.48421
  21852735.4354  -10417410.27047  -8117423.44463
  23655724.0674    -909319.68646    541377.25661
  21722773.278     3758154.150 7   2928429.74222
  24294715.989      469637.559 5    348829.53221
  23513966.7944   -6068948.86046  -4580640.13361
 91  4 15 21 55 30.0010000  0  6G18G 2G11G19G16G 6
  23438917.1384   14184434.34646  11052773.95761
  21849563.9664  -10434061.61847  -8130398.45963
  23660100.060     -886341.592 6    559282.25121
  21726474.341     3777616.440 7   2943595.14522
  24297613.317      484890.214 5    360714.62721
  23509184.3174   -6094107.61446  -4600244.26861
 91  4 15 21 55 45.0010000  0  6G18G 2G11G19G16G 6
  23449398.302    14239513.676 6  11095692.73821
  21846411.9114  -10450634.36247  -8143312.21863
  23664495.060     -863218.020 6    577300.60321
  21730190.794     3797135.780 7   2958805.00322
  24300533.2164     500261.56545    372692.19861
  23504396.630    -6119259.417 6  -4619842.99621
 91  4 15 21 56  0.0010000  0  6G18G 2G11G19G16G 6
  23459890.3884   14294648.24846  11138654.58561
  21843271.5834  -10467130.01947  -8156165.91463
  23668930.427     -839950.643 6    595431.00521
  21733912.794     3816710.768 7   2974058.22722
  24303487.060      515749.793 5    384760.88821
  23499614.2244   -6144405.79246  -4639437.47661
 91  4 15 21 56 15.0010000  0  6G18G 2G11G19G16G 6
  23470388.786    14349838.690 6  11181659.96621
  21840149.7474  -10483547.76647  -8168958.89963
  23673380.8564    -816538.64446    613674.11361
  21737649.544     3836342.377 7   2989355.57122
  24306455.169      531355.860 5    396921.39621
  23494827.1614   -6169545.67545  -4659026.90561
 91  4 15 21 56 30.0010000  0  6G18G 2G11G19G16G 6
  23480900.653    14405084.143 6  11224708.20021
  21837037.4424  -10499887.91247  -8181691.41763
  23677862.896     -792982.652 6    632029.41121
  21741396.606     3856030.203 7   3004696.71822
  24309452.450      547078.858 5    409173.01221
  23490042.950    -6194679.593 6  -4678611.71121
 91  4 15 21 56 45.0010000  0  6G18G 2G11G19G16G 6
  23491429.4424   14460383.04146  11267798.10361
  21833944.5364  -10516152.03047  -8194364.68963
  23682368.7634    -769284.27946    650495.67261
  21745154.106     3875772.997 7   3020080.70222
  24312462.6924     562917.42145    421514.69761
  23485262.653    -6219809.003 6  -4698192.97621
 91  4 15 21 57  0.0010000  0  6G18G 2G11G19G16G 6
  23501962.263    14515735.402 6  11310929.64421
  21830863.8494  -10532339.90247  -8206978.55263
  23686911.8724    -745443.36446    669073.00261
  21748923.3804    3895571.08247   3035507.76962
  24315498.661      578871.368 5    433946.26421
  23480477.8174   -6244933.59445  -4717770.49861
 91  4 15 21 57 15.0010000  0  6G18G 2G11G19G16G 6
  23512505.364    14571140.401 6  11354102.20821
  21827797.7554  -10548452.04747  -8219533.40963
  23691470.083     -721460.630 6    687760.81621
  21752702.560     3915424.147 7   3050977.67422
  24318552.692      594939.835 5    446467.07021
  23475701.364    -6270053.911 6  -4737344.70221
 91  4 15 21 57 30.0010000  0  6G18G 2G11G19G16G 6
  23523061.3174   14626599.32846  11397316.78261
  21824744.5834  -10564486.84947  -8232027.99563
  23696061.302     -697334.681 6    706560.23421
  21756489.817     3935333.657 7   3066491.56222
  24321633.8104     611124.34345    459078.30761
  23470921.0444   -6295168.42246  -4756914.37161
 91  4 15 21 57 45.0010000  0  6G18G 2G11G19G16G 6
  23533624.700    14682111.733 6  11440573.03321
  21821709.9354  -10580444.36247  -8244462.35163
  23700687.7394    -673065.64346    725471.16861
  21760290.669     3955299.580 7   3082049.40622
  24324737.833      627424.470 5    471779.62121
  23466141.552    -6320276.957 6  -4776479.37921
 91  4 15 21 58  0.0010000  0  6G18G 2G11G19G16G 6
  23544197.372    14737676.552 6  11483870.12721
  21818685.7314  -10596325.56747  -8256837.25463
  23705326.1064    -648654.46846    744492.84761
  21764094.513     3975321.184 7   3097650.64122
  24327862.396      643839.344 5    484570.35821
  23461365.677    -6345380.433 6  -4796040.45721
 91  4 15 21 58 15.0010000  0  6G18G 2G11G19G16G 6
  23554781.0834   14793296.02846  11527209.80261
  21815679.7084  -10612127.94047  -8269150.72763
  23710002.981     -624099.038 6    763626.93821
  21767915.974     3995400.907 7   3113297.15922
  24331004.841      660371.188 5    497452.25121
  23456593.6774   -6370476.42046  -4815595.67461
 91  4 15 21 58 30.0010000  0  6G18G 2G11G19G16G 6
  23565372.747    14848967.269 6  11570589.83821
  21812685.888   -10627854.146 7  -8281404.84223
  23714698.755     -599402.089 6    782871.29921
  21771747.388     4015536.296 7   3128987.05622
  24334166.4194     677017.08545    510422.99461
  23451815.177    -6395567.497 6  -4835147.07421
 91  4 15 21 58 45.0010000  0  6G18G 2G11G19G16G 6
  23575974.9664   14904689.26246  11614009.41761
  21809708.4894  -10643505.00747  -8293600.26263
  23719422.380     -574564.638 6    802225.12921
  21775589.755     4035726.722 7   3144719.84022
  24337359.4974     693776.34145    523482.08961
  23447041.981    -6420654.398 6  -4854695.23221
 91  4 15 21 59  0.0010000  0  6G18G 2G11G19G16G 6
  23586589.005    14960462.247 6  11657468.72721
  21806745.3804  -10659079.97447  -8305736.53763
  23724185.075     -549586.225 6    821688.80721
  21779446.458     4055972.965 7   3160496.12222
  24340581.216      710649.138 5    536629.65821
  23442268.106    -6445736.483 6  -4874239.64121
 91  4 15 21 59 15.0010000  0  6G18G 2G11G19G16G 6
  23597215.0214   15016288.37246  11700969.44461
  21803794.9424  -10674576.73247  -8317811.86963
  23728965.849     -524464.714 6    841263.98621
  21783307.239     4076277.132 7   3176317.53422
  24343810.4504     727637.35645    549867.16161
  23437498.5524   -6470811.57146  -4893778.58461
 91  4 15 21 59 30.0010000  0  6G18G 2G11G19G16G 6
  23607848.935    15072164.883 6  11744509.41421
  21800861.2244  -10689997.55847  -8329828.04363
  23733768.380     -499202.450 6    860948.85321
  21787182.669     4096636.967 7   3192182.31922
  24347061.786      744738.392 5    563192.58221
  23432724.935    -6495881.707 6  -4913313.66621
 91  4 15 21 59 45.0010000  0  6G18G 2G11G19G16G 6
  23618492.9584   15128094.16746  11788090.48761
  21797941.4744  -10705339.71447  -8341782.90063
  23738597.8104    -473796.90346    880745.37061
  21791067.349     4117055.480 7   3208092.83522
  24350337.5214     761955.17945    576608.17961
  23427956.3644   -6520944.21746  -4932842.82361
 91  4 15 22  0  0.0010000  0  6G18G 2G11G19G16G 6
  23629147.317    15184079.504 6  11831715.25921
  21795038.3724  -10720600.09347  -8353674.04763
  23743466.9274    -448245.05546    900655.89161
  21794969.724     4137535.975 7   3224051.64222
  24353636.3494     779290.55645    590116.22761
  23423189.653    -6545995.866 6  -4952363.51521
 91  4 15 22  0 15.0010000  0  6G18G 2G11G19G16G 6
  23639807.239    15240115.899 6  11875379.81021
  21792149.5834  -10735783.27947  -8365505.04463
  23748353.536     -422551.577 6    920676.76921
  21798874.755     4158073.778 7   3240055.11222
  24356949.6064     796739.94645    603713.06461
  23418424.536    -6571041.240 6  -4971879.28221
 91  4 15 22  0 30.0010000  0  6G18G 2G11G19G16G 6
  23650477.5524   15296200.56546  11919081.99661
  21789274.310   -10750892.051 7  -8377278.05823
  23753266.2864    -396719.34246    940805.75661
  21802799.989     4178666.378 7   3256101.27822
  24360303.9274     814300.23845    617396.37561
  23413656.1304   -6596082.92946  -4991392.19261
 91  4 15 22  0 45.0010000  0  6G18G 2G11G19G16G 6
  23661163.513    15352335.391 6  11962823.24021
  21786412.8024  -10765923.75547  -8388991.01563
  23758210.614     -370746.114 6    961044.60221
  21806723.622     4199316.545 7   3272192.29622
  24363659.419      831973.713 5    631167.85621
  23408895.114    -6621118.461 6  -5010900.31621
 91  4 15 22  1  0.0010000  0  6G18G 2G11G19G16G 6
  23671853.521    15408521.578 6  12006604.51721
  21783568.2244  -10780877.49847  -8400643.22363
  23763177.5754    -344630.81246    981394.16461
  21810663.630     4220025.257 7   3288328.93622
  24367051.7474     849761.03045    645028.02761
  23404131.083    -6646146.656 6  -5030402.69621
 91  4 15 22  1 15.0010000  0  6G18G 2G11G19G16G 6
  23682553.872    15464758.227 6  12050425.12421
  21780736.9274  -10795753.59447  -8412234.92463
  23768176.356     -318374.240 6   1001853.80021
  21814616.966     4240792.065 7   3304510.84722
  24370464.114      867661.652 5    658976.52521
  23399370.8414   -6671167.90746  -5049899.69261
 91  4 15 22  1 30.0010000  0  6G18G 2G11G19G16G 6
  23693264.044    15521044.009 6  12094283.99921
  21777921.1304  -10810553.16147  -8423766.99263
  23773200.1464    -291977.55146   1022422.62061
  21818579.622     4261616.096 7   3320737.34822
  24373868.5444     885674.36945    673012.29161
  23394611.489    -6696183.176 6  -5069392.01321
 91  4 15 22  1 45.0010000  0  6G18G 2G11G19G16G 6
  23703991.9274   15577382.90146  12138184.27261
  21775119.9584  -10825271.92747  -8435236.10463
  23778248.786     -265436.637 6   1043103.83621
  21822554.466     4282501.661 7   3337011.79622
  24377319.411      903803.461 5    687138.78421
  23389852.450    -6721188.311 6  -5088876.42821
 91  4 15 22  2  0.0010000  0  6G18G 2G11G19G16G 6
  23714721.239    15633771.157 6  12182123.00921
  21772334.1924  -10839913.60347  -8446645.14963
  23783324.677     -238755.268 6   1063894.49021
  21826537.802     4303445.232 7   3353331.43822
  24380806.146      922044.817 5    701352.79121
  23385095.411    -6746186.795 6  -5108355.66021
 91  4 15 22  2 15.0010000  0  6G18G 2G11G19G16G 6
  23725460.4504   15690208.77546  12226100.19861
  21769562.5674  -10854477.69247  -8457993.73063
  23788433.474     -211933.084 6   1084794.87621
  21830534.317     4324447.497 7   3369696.81822
  24384298.9894     940398.79945    715654.51161
  23380336.325    -6771177.979 6  -5127829.24121
 91  4 15 22  2 30.0010000  0  6G18G 2G11G19G16G 6
  23736204.2314   15746693.60346  12270114.18961
  21766805.6464  -10868966.14047  -8469283.36863
  23793564.9504    -184972.27846   1105803.26561
  21834543.013     4345506.586 7   3386106.47722
  24387797.7474     958863.46045    730042.47561
  23375584.255    -6796163.911 6  -5147298.68321
 91  4 15 22  2 45.0010000  0  6G18G 2G11G19G16G 6
  23746963.1144   15803223.93146  12314163.63161
  21764061.7314  -10883380.39947  -8480515.19563
  23798716.888     -157874.569 6   1126918.33521
  21838560.099     4366621.044 7   3402559.27722
  24391347.1774     977436.84245    744515.16661
  23370831.5994   -6821145.99846  -5166765.14261
 91  4 15 22  3  0.0010000  0  6G18G 2G11G19G16G 6
  23757733.606    15859803.722 6  12358251.60221
  21761335.052   -10897716.456 7  -8491686.09823
  23803907.1384    -130636.12446   1148143.06461
  21842590.286     4387794.868 7   3419058.34422
  24394910.896      996122.588 5    759075.45021
  23366077.427    -6846120.229 6  -5186225.50721
 91  4 15 22  3 15.0010000  0  6G18G 2G11G19G16G 6
  23768509.231    15916428.640 6  12402374.74821
  21758620.2164  -10911978.18147  -8502799.06463
  23809111.6304    -103260.89246   1169474.38761
  21846632.536     4409024.370 7   3435600.78822
  24398466.5914    1014916.78745    773720.21161
  23361327.1534   -6871090.37446  -5205682.67261
 91  4 15 22  3 30.0010000  0  6G18G 2G11G19G16G 6
  23779293.036    15973101.001 6  12446534.85421
  21755921.5524  -10926163.10747  -8513852.19863
  23814348.325      -75746.485 6   1190914.16121
  21850680.396     4430312.083 7   3452188.59722
  24402070.1064    1033821.66145    788451.24561
  23356574.919    -6896053.877 6  -5225134.65321
 91  4 15 22  3 45.0010000  0  6G18G 2G11G19G16G 6
  23790087.669    16029823.354 6  12490733.91321
  21753235.864   -10940268.372 7  -8524843.25723
  23819612.224      -48090.249 6   1212464.45021
  21854744.638     4451660.956 7   3468824.05722
  24405700.060     1052839.898 5    803270.58821
  23351826.981    -6921007.733 6  -5244579.13821
 91  4 15 22  4  0.0010000  0  6G18G 2G11G19G16G 6
  23800893.4114   16086587.62046  12534965.63561
  21750564.872   -10954301.823 7  -8535778.35623
  23824898.677      -20300.391 6   1234118.86421
  21858811.224     4473063.280 7   3485501.17122
  24409325.310     1071963.496 5    818172.01021
  23347078.747    -6945959.876 6  -5264022.28721
 91  4 15 22  4 15.0010000  0  6G18G 2G11G19G16G 6
  23811698.091    16143396.138 6  12579231.85321
  21747908.2244  -10968261.03247  -8546655.61163
  23830217.028        7625.461 6   1255879.24321
  21862900.099     4494521.672 7   3502221.97822
  24412991.560     1091194.661 5    833157.28121
  23342333.919    -6970907.767 6  -5283462.10021
 91  4 15 22  4 30.0010000  0  6G18G 2G11G19G16G 6
  23822520.911    16200253.567 6  12623536.15221
  21745268.161   -10982141.108 7  -8557471.19823
  23835556.739       35692.278 6   1277749.46121
  21866995.231     4516041.287 7   3518990.49022
  24416682.583     1110538.086 5    848230.02221
  23337589.286    -6995846.206 6  -5302894.56721
 91  4 15 22  4 45.0010000  0  6G18G 2G11G19G16G 6
  23833348.958    16257152.677 6  12667872.95521
  21742639.403   -10995948.704 7  -8568230.30523
  23840923.0994      63893.06146   1299724.07161
  21871099.552     4537615.294 7   3535801.37622
  24420367.8254    1129986.63045    863384.61461
  23332841.1384   -7020782.01646  -5322324.96361
 91  4 15 22  5  0.0010000  0  6G18G 2G11G19G16G 6
  23844179.263    16314095.644 6  12712243.93521
  21740028.513   -11009681.684 7  -8578931.26923
  23846316.6464      92229.78446   1321804.60661
  21875220.2314    4559246.10647   3552656.52762
  24424088.575     1149542.834 5    878623.14721
  23328095.7004   -7045712.96346  -5341751.57761
 91  4 15 22  5 15.0010000  0  6G18G 2G11G19G16G 6
  23855026.9424   16371082.06146  12756648.75861
  21737428.4424  -11023340.21947  -8589574.22663
  23851729.8174     120702.10646   1343990.79561
  21879343.458     4580933.597 7   3569555.84922
  24427839.927     1169206.141 5    893945.11421
  23323348.849    -7070639.020 6  -5361174.39021
 91  4 15 22  5 30.0010000  0  6G18G 2G11G19G16G 6
  23865876.114    16428111.997 6  12801087.50421
  21734841.9194  -11036923.74947  -8600158.73663
  23857174.7864     149310.39246   1366282.93761
  21883480.880     4602678.207 7   3586499.67922
  24431601.5134    1188976.69345    909350.64261
  23318608.888    -7095559.686 6  -5380593.02421
 91  4 15 22  5 45.0010000  0  6G18G 2G11G19G16G 6
  23876739.450    16485185.868 6  12845560.49021
  21732272.239   -11050431.656 7  -8610684.32823
  23862646.8724     178055.02946   1388681.32861
  21887631.075     4624480.811 7   3603488.69722
  24435380.083     1208854.843 5    924840.00221
  23313869.888    -7120474.396 6  -5400006.98721
 91  4 15 22  6  0.0010000  0  6G18G 2G11G19G16G 6
  23887609.896    16542306.250 6  12890069.71221
  21729716.974   -11063861.257 7  -8621148.89723
  23868143.747      206938.685 6   1411188.06121
  21891792.435     4646344.268 7   3620525.13122
  24439186.802     1228842.975 5    940415.07021
  23309132.606    -7145380.141 6  -5419413.97821
 91  4 15 22  6 15.0010000  0  6G18G 2G11G19G16G 6
  23898489.9034   16599471.91946  12934614.20961
  21727174.708   -11077213.642 7  -8631553.29723
  23873667.9114     235960.10346   1433802.11961
  21895960.6854    4668267.65147   3637608.26062
  24443004.0754    1248939.90545    956074.96161
  23304390.9424   -7170278.02646  -5438814.83461
 91  4 15 22  6 30.0010000  0  6G18G 2G11G19G16G 6
  23909375.9744   16656681.17446  12979192.66061
  21724648.677   -11090490.183 7  -8641898.60223
  23879214.0754     265117.68546   1456522.28661
  21900142.599     4690249.582 7   3654737.01622
  24446848.2864    1269143.89245    971818.20361
  23299654.208    -7195169.324 6  -5458210.56521
 91  4 15 22  6 45.0010000  0  6G18G 2G11G19G16G 6
  23920269.716    16713933.109 6  13023804.37221
  21722139.388   -11103691.184 7  -8652185.05023
  23884785.622      294410.945 6   1479348.18721
  21904337.028     4712289.791 7   3671911.17922
  24450723.864     1289454.766 5    987644.78721
  23294916.9274   -7220054.40946  -5477601.45561
 91  4 15 22  7  0.0010000  0  6G18G 2G11G19G16G 6
  23931169.302    16771228.942 6  13068450.30721
  21719639.599   -11116815.685 7  -8662411.88523
  23890385.3024     323840.80146   1502280.50861
  21908541.919     4734389.573 7   3689131.76622
  24454604.5134    1309873.16045   1003555.13761
  23290185.1064   -7244932.11246  -5496986.58061
 91  4 15 22  7 15.0010000  0  6G18G 2G11G19G16G 6
  23942082.8884   16828567.56646  13113129.59061
  21717156.622   -11129864.341 7  -8672579.62423
  23896013.6064     353406.23846   1525318.48661
  21912762.372     4756548.261 7   3706398.24522
  24458500.6694    1330398.27845   1019548.65261
  23285452.5284   -7269803.07846  -5516366.46561
 91  4 15 22  7 30.0010000  0  6G18G 2G11G19G16G 6
  23953001.161    16885949.119 5  13157842.31121
  21714689.005   -11142836.579 7  -8682687.81023
  23901666.6464     383107.65846   1548462.41461
  21916988.567     4778766.347 7   3723711.02722
  24462444.794     1351030.348 5   1035625.51721
  23280717.622    -7294666.545 6  -5535740.52321
 91  4 15 22  7 45.0010000  0  6G18G 2G11G19G16G 6
  23963932.3644   16943372.54646  13202587.66161
  21712234.239   -11155733.342 7  -8692737.18023
  23907345.4034     412943.85246   1571711.36061
  21921226.3644    4801042.96747   3741069.39862
  24466384.591     1371768.139 5   1051784.75421
  23275991.4894   -7319523.46446  -5555109.48561
 91  4 15 22  8  0.0010000  0  6G18G 2G11G19G16G 6
  23974867.271    17000837.562 5  13247365.43521
  21709794.6614  -11168555.19247  -8702728.17563
  23913049.6224     442914.30446   1595064.93061
  21925477.8254    4823377.97347   3758473.26862
  24470349.6384    1392610.86845   1068025.76261
  23271263.5994   -7344374.14146  -5574473.56061
 91  4 15 22  8 15.0010000  0  6G18G 2G11G19G16G 6
  23985811.6854   17058345.31746  13292176.47661
  21707367.927   -11181300.252 7  -8712659.33923
  23918778.4584     473020.58146   1618524.32461
  21929738.927     4845773.291 7   3775924.14022
  24474338.216     1413560.371 5   1084349.96121
  23266533.692    -7369216.800 6  -5593831.39221
 91  4 15 22  8 30.0010000  0  6G18G 2G11G19G16G 6
  23996765.786    17115895.332 6  13337020.46521
  21704958.911   -11193968.819 7  -8722530.89223
  23924532.0134     503262.35046   1642089.30261
  21934014.2864    4868228.75547   3793421.87662
  24478340.450     1434616.220 5   1100756.98921
  23261809.528    -7394051.505 6  -5613183.03221
 91  4 15 22  8 45.0010000  0  6G18G 2G11G19G16G 6
  24007721.9034   17173485.70445  13381895.90061
  21702562.231   -11206562.540 7  -8732344.12423
  23930312.9814     533637.66346   1665758.33961
  21938298.497     4890742.644 7   3810965.14422
  24482368.841     1455776.418 5   1117245.36121
  23257087.1924   -7418880.04646  -5632529.85661
 91  4 15 22  9  0.0010000  0  6G18G 2G11G19G16G 6
  24018687.1304   17231121.61345  13426806.82761
  21700180.677   -11219076.027 7  -8742094.84423
  23936119.356      564151.902 6   1689535.63921
  21942596.200     4913320.591 7   3828558.32122
  24486421.2784    1477046.17945   1133819.14061
  23252358.4194   -7443696.73846  -5651867.45361
 91  4 15 22  9 15.0010000  0  6G18G 2G11G19G16G 6
  24029666.3804   17288800.31945  13471751.09761
  21697815.271   -11231511.544 7  -8751784.80423
  23941949.5994     594802.33146   1713419.05361
  21946903.239     4935960.256 7   3846199.59022
  24490480.255     1498422.774 5   1150476.08421
  23247641.927    -7468503.911 6  -5671197.62021
 91  4 15 22  9 30.0010000  0  6G18G 2G11G19G16G 6
  24040642.5524   17346517.92845  13516725.68961
  21695461.271   -11243872.982 7  -8761417.03623
  23947808.724      625584.956 6   1737405.49421
  21951221.169     4958657.862 6   3863886.01222
  24494574.083     1519902.239 5   1167213.21921
  23242922.153    -7493305.336 6  -5690523.31821
 91  4 15 22  9 45.0010000  0  6G18G 2G11G19G16G 6
  24051635.661    17404278.749 5  13561733.95021
  21693122.747   -11256155.994 7  -8770988.16523
  23953692.060      656503.957 6   1761498.20021
  21955550.864     4981418.003 7   3881621.16022
  24498684.513     1541488.420 5   1184033.56821
  23238204.3564   -7518096.58546  -5709841.07961
 91  4 15 22 10  0.0010000  0  6G18G 2G11G19G16G 6
  24062638.646    17462082.079 5  13606775.33221
  21690801.466   -11268360.551 7  -8780498.16123
  23959602.3804     687559.21346   1785697.07661
  21959895.575     5004241.075 7   3899405.34622
  24502803.599     1563181.255 5   1200936.97621
  23233488.942    -7542877.504 6  -5729150.80621
 91  4 15 22 10 15.0010000  0  6G18G 2G11G19G16G 6
  24073647.9034   17519924.44845  13651847.12861
  21688493.216   -11280490.188 7  -8789949.77523
  23965536.106      718747.094 6   1809999.29221
  21964250.0674    5027123.55647   3917235.82062
  24506950.028     1584977.013 5   1217920.60021
  23228774.0604   -7567651.48846  -5748455.11561
 91  4 15 22 10 30.0010000  0  6G18G 2G11G19G16G 6
  24084668.6144   17577806.20245  13696949.61461
  21686199.817   -11292544.281 7  -8799342.51923
  23971498.9744     750067.88946   1834405.07161
  21968614.9814    5050065.93847   3935112.97362
  24511111.505     1606876.460 4   1234984.97621
  23224057.927    -7592417.759 6  -5767753.42821
 91  4 15 22 10 45.0010000  0  6G18G 2G11G19G16G 6
  24095682.778    17635722.324 5  13742078.87021
  21683918.567   -11304527.687 7  -8808680.18723
  23977482.2784     781516.63846   1858910.56161
  21972992.5134    5073063.56347   3953033.16962
  24515307.9034    1628874.34445   1252126.10261
  23219345.5914   -7617181.11546  -5787049.47861
 91  4 15 22 11  0.0010000  0  6G18G 2G11G19G16G 6
  24106713.8564   17693676.04946  13787237.43161
  21681653.239   -11316436.738 7  -8817959.92623
  23983491.4974     813096.75646   1883518.41161
  21977379.6304    5096120.22047   3970999.36762
  24519521.817     1650974.179 5   1269346.66721
  23214636.9424   -7641937.90246  -5806340.38061
 91  4 15 22 11 15.0010000  0  6G18G 2G11G19G16G 6
  24117752.4584   17751671.62146  13832428.61861
  21679401.231   -11328267.037 7  -8827178.29523
  23989524.419      844812.453 6   1908231.92421
  21981781.4504    5119240.39347   3989015.05762
  24523716.4894    1673180.10443   1286649.87561
  23209929.3174   -7666683.49746  -5825622.57461
 91  4 15 22 11 30.0010000  0  6G18G 2G11G19G16G 6
  24128790.864    17809703.721 5  13877648.24521
  21677163.0914  -11340023.64247  -8836339.23763
  23995585.9974     876658.32346   1933046.86261
  21986193.1304    5142418.93747   4007076.22962
  24527974.1614    1695486.75444   1304031.62461
  23205217.5364   -7691423.15246  -5844900.13461
 91  4 15 22 11 45.0010000  0  6G18G 2G11G19G16G 6
  24139841.606    17867773.119 6  13922896.94921
  21674940.599   -11351705.811 7  -8845442.18123
  24001672.356      908635.194 6   1957963.88821
  21990614.872     5165657.006 7   4025183.79122
  24532251.786     1717894.425 4   1321492.07721
  23200512.4974   -7716155.73746  -5864172.18161
 91  4 15 22 12  0.0010000  0  6G18G 2G11G19G16G 6
  24150896.9584   17925881.18545  13968175.78261
  21672733.739   -11363311.422 7  -8854485.46723
  24007779.0444     940744.90646   1982984.41061
  21995047.356     5188956.639 7   4043339.32122
  24536532.8644    1740405.02944   1339032.68261
  23195812.0524   -7740879.22946  -5883437.14361
 91  4 15 22 12 15.0010000  0  6G18G 2G11G19G16G 6
  24161962.6614   17984026.62646  14013483.73761
  21670538.942   -11374841.928 7  -8863470.23423
  24013916.099      972985.773 6   2008107.13821
  21999493.083     5212316.477 7   4061541.76322
  24540843.7864    1763017.07045   1356652.36161
  23191104.0214   -7765594.84346  -5902695.96161
 91  4 15 22 12 30.0010000  0  6G18G 2G11G19G16G 6
  24173030.1614   18042208.32645  14058819.95261
  21668358.544   -11386298.142 8  -8872397.10723
  24020075.0364    1005356.90246   2033331.35361
  22003949.528     5235736.032 7   4079790.74322
  24545156.856     1785729.625 5   1374350.33221
  23186404.013    -7790303.203 6  -5921949.15221
 91  4 15 22 12 45.0010000  0  6G18G 2G11G19G16G 6
  24184110.466    18100426.376 5  14104184.50221
  21666192.466   -11397679.611 7  -8881265.74123
  24026263.0674    1037858.60646   2058657.31461
  22008416.075     5259215.919 7   4098086.73722
  24549502.630     1808542.771 5   1392126.72521
  23181705.2314   -7815003.86446  -5941196.33061
 91  4 15 22 13  0.0010000  0  6G18G 2G11G19G16G 6
  24195197.544    18158681.793 5  14149578.15721
  21664041.575   -11408985.216 8  -8890075.25623
  24032470.4424    1070491.68946   2084085.64661
  22012899.177     5282757.402 6   4116430.72522
  24553857.950     1831457.552 5   1409982.27821
  23177002.864    -7839695.579 6  -5960436.54921
 91  4 15 22 13 15.0010000  0  6G18G 2G11G19G16G 6
  24206296.7244   18216973.80945  14195000.32561
  21661903.817   -11420215.546 8  -8898826.11123
  24038709.427     1103255.486 6   2109615.86421
  22017386.130     5306359.945 7   4134822.29122
  24558227.021     1854472.953 5   1427916.24621
  23172307.606    -7864378.826 6  -5979670.16721
 91  4 15 22 13 30.0010000  0  6G18G 2G11G19G16G 6
  24217400.474    18275302.249 6  14240450.85221
  21659780.778   -11431370.669 7  -8907518.36623
  24044967.7944    1136149.68246   2135247.67561
  22021889.106     5330023.380 7   4153261.30522
  24562646.341     1877588.842 5   1445928.54621
  23167612.700    -7889053.527 6  -5998897.12721
 91  4 15 22 13 45.0010000  0  6G18G 2G11G19G16G 6
  24228503.3104   18333667.25845  14285929.87861
  21657672.403   -11442449.901 7  -8916151.48923
  24051251.2554    1169174.54846   2160981.29861
  22026406.3724    5353748.49647   4171748.38462
  24567059.356     1900805.470 5   1464019.27921
  23162916.208    -7913719.103 6  -6018116.98321
 91  4 15 22 14  0.0010000  0  6G18G 2G11G19G16G 6
  24239613.372    18392069.931 5  14331438.25721
  21655578.325   -11453451.619 7  -8924724.20823
  24057556.3414    1202331.48246   2186817.83861
  22030933.997     5377536.977 7   4190284.83322
  24571501.044     1924124.083 5   1482189.53321
  23158226.685    -7938373.860 6  -6037328.40021
 91  4 15 22 14 15.0010000  0  6G18G 2G11G19G16G 6
  24250730.060    18450507.791 5  14376974.06821
  21653500.067   -11464378.548 8  -8933238.65223
  24063892.8564    1235617.92846   2212755.28561
  22035468.950     5401386.376 7   4208868.75822
  24575954.356     1947542.018 5   1500437.14921
  23153534.1924   -7963020.10046  -6056533.20361
 91  4 15 22 14 30.0010000  0  6G18G 2G11G19G16G 6
  24261858.3494   18508979.73845  14422536.46761
  21651433.771   -11475231.357 7  -8941695.34223
  24070252.7784    1269032.76346   2238792.78461
  22040019.552     5425296.156 7   4227499.73122
  24580415.888     1971058.325 5   1518761.46821
  23148848.380    -7987658.592 6  -6075731.96621
 91  4 15 22 14 45.0010000  0  6G18G 2G11G19G16G 6
  24272994.481    18567486.123 5  14468125.65621
  21649381.669   -11486009.544 7  -8950093.87923
  24076634.646     1302576.493 6   2264930.70221
  22044582.989     5449266.811 7   4246178.14722
  24584926.7944    1994673.36145   1537162.70061
  23144161.0604   -8012288.53146  -6094924.04161
 91  4 15 22 15  0.0010000  0  6G18G 2G11G19G16G 6
  24284134.4584   18626025.51045  14513740.62261
  21647345.786   -11496714.317 7  -8958435.21423
  24083043.5834    1336247.52846   2291167.83561
  22049154.1774    5473297.28347   4264903.15362
  24589422.185     2018385.510 4   1555639.58021
  23139473.2314   -8036911.20246  -6114110.45261
 91  4 15 22 15 15.0010000  0  6G18G 2G11G19G16G 6
  24295277.0674   18684596.78845  14559380.39161
  21645323.114   -11507346.558 7  -8966720.03223
  24089474.896     1370044.658 6   2317503.23921
  22053737.3024    5497386.78747   4283674.16062
  24593960.325     2042193.975 5   1574191.51921
  23134788.9504   -8061527.33946  -6133291.78461
 91  4 15 22 15 30.0010000  0  6G18G 2G11G19G16G 6
  24306428.755    18743200.607 5  14605045.54221
  21643312.630   -11517905.258 7  -8974947.54523
  24095926.442     1403968.732 6   2343937.56221
  22058338.271     5521536.496 7   4302492.09022
  24598512.903     2066099.070 5   1592818.78521
  23130107.560    -8086135.862 6  -6152467.17421
 91  4 15 22 15 45.0020000  0  6G18G 2G11G19G16G 6
  24317591.033    18801839.800 5  14650738.24121
  21641319.822   -11528392.065 7  -8983119.03423
  24102409.5494    1438020.87846   2370471.66961
  22062941.6434    5545747.07047   4321357.44562
  24603064.7684    2090101.21645   1611521.64361
  23125425.229    -8110739.288 6  -6171638.57421
 91  4 15 22 16  0.0020000  0  6G18G 2G11G19G16G 6
  24328753.752    18860507.120 5  14696452.84121
  21639336.033   -11538804.968 7  -8991232.93023
  24108911.8544    1472197.33046   2397102.63761
  22067562.8304    5570016.31647   4340268.51362
  24607674.721     2114197.688 5   1630298.00221
  23120744.088    -8135333.330 6  -6190802.68221
 91  4 15 22 16 15.0020000  0  6G18G 2G11G19G16G 6
  24339920.4324   18919203.96145  14742190.46361
  21637367.572   -11549146.732 7  -8999291.40123
  24115438.455     1506497.949 6   2423830.33821
  22072190.3614    5594343.75447   4359224.93362
  24612263.971     2138387.960 5   1649147.45021
  23116065.7214   -8159921.70646  -6209962.36361
 91  4 15 22 16 30.0020000  0  6G18G 2G11G19G16G 6
  24351105.0724   18977933.07745  14787953.20461
  21635414.369   -11559414.399 7  -9007292.13823
  24121989.346     1540925.450 6   2450656.91521
  22076829.9634    5618732.38747
  24616892.7754    2162674.98445
  23111390.2214   -8184501.33946  -6229115.23561
 91  4 15 22 16 45.0020000  0  6G18G 2G11G19G16G 6
  24362284.5334   19036696.59845  14833742.77161
  21633477.307   -11569605.626 7  -9015233.29923
  24128566.713     1575481.942 6   2477584.00521
  22081482.3224    5643184.74447
  24621537.3304    2187060.34545
  23106711.7054   -8209069.84946  -6248259.43361
 91  4 15 22 17  0.0020000  0  6G18G 2G11G19G16G 6
  24373475.572    19095492.637 5  14879557.67421
  21631551.174   -11579722.098 7  -9023116.22023
  24135170.9164    1610165.49546   2504610.10561
  22086147.0724    5667699.15947
  24626186.4554    2211542.47545
  23102042.947    -8233628.788 6  -6267396.18421
 91  4 15 22 17 15.0020000  0  6G18G 2G11G19G16G 6
  24384665.729    19154316.257 5  14925394.06521
  21629638.291   -11589768.586 7  -9030944.60023
  24141788.5804    1644971.22646   2531731.42961
  22090824.8464    5692271.21647
  24630868.9634    2236116.23145
  23097365.5804   -8258182.72546  -6286529.05361
 91  4 15 22 17 30.0020000  0  6G18G 2G11G19G16G 6
  24395865.135    19213171.720 5  14971255.27221
  21627740.049   -11599740.461 7  -9038714.84723
  24148442.213     1679903.371 6   2558951.25121
  22095509.8224    5716905.47546
  24635548.7444    2260786.01645
  23092697.729    -8282726.950 6  -6305654.34821
 91  4 15 22 17 45.0020000  0  6G18G 2G11G19G16G 6
  24407070.744    19272059.657 5  15017141.78821
  21625857.939   -11609636.895 7  -9046426.31123
  24155113.5574    1714962.68246   2586270.16061
  22100210.1044    5741602.90146
  24640282.5414    2285552.61245
  23088028.096    -8307260.557 6  -6324771.35621
 91  4 15 22 18  0.0020000  0  6G18G 2G11G19G16G 6
  24418279.564    19330976.638 5  15063050.92921
  21623987.2524  -11619460.97147  -9054081.39563
  24161805.268     1750145.753 6   2613685.51321
  22104925.479     5766360.413 6   4493263.66922
  24645009.4084    2310412.28545
  23083359.729    -8331786.552 6  -6343882.44521
 91  4 15 22 18 15.0020000  0  6G18G 2G11G19G16G 6
  24429498.580    19389924.301 5  15108984.01121
  21622132.455   -11629210.940 7  -9061678.72223
  24168524.2834    1785454.24346   2641198.58761
  22109645.9864    5791180.09247   4512603.65162
  24649747.9794    2335366.91345
  23078695.5644   -8356302.88746  -6362986.02361
 91  4 15 22 18 30.0020000  0  6G18G 2G11G19G16G 6
  24440717.9324   19448896.66245  15154936.32361
  21620287.971   -11638892.592 7  -9069222.82023
  24175269.7214    1820881.89546   2668804.51261
  22114379.2524    5816055.89347   4531987.35862
  24654516.221     2360410.059 5        -0.36531
  23074032.299    -8380815.555 6  -6382086.72621
 91  4 15 22 18 45.0020000  0  6G18G 2G11G19G16G 6
  24451952.221    19507898.576 5  15200911.65721
  21618461.650   -11648500.796 7  -9076709.68323
  24182031.049     1856433.867 6   2696507.29921
  22119124.0644    5840993.30346   4551419.08062
  24659306.033     2385546.722 5     19586.55121
  23069368.205    -8405318.963 6  -6401180.21121
 91  4 15 22 19  0.0020000  0  6G18G 2G11G19G16G 6
  24463188.682    19566927.182 5  15246907.79321
  21616646.947   -11658038.022 7  -9084141.24023
  24188820.158     1892107.549 6   2724304.92421
  22123881.6974    5865990.09247   4570897.05962
  24664111.916     2410774.234 4     39244.23021
  23064704.158    -8429815.548 6  -6420268.39121
 91  4 15 22 19 15.0020000  0  6G18G 2G11G19G16G 6
  24474423.7604   19625983.75345  15292925.66961
  21614846.010   -11667502.965 7  -9091516.47323
  24195633.252     1927903.925 6   2752198.15521
  22128647.9864    5891047.54847   4590422.32262
  24668909.158     2436093.871 4     58973.72121
  23060045.736    -8454303.927 6  -6439350.17321
 91  4 15 22 19 30.0020000  0  6G18G 2G11G19G16G 6
  24485663.307    19685067.343 5  15338964.67021
  21613057.877   -11676896.062 7  -9098835.71223
  24202469.1114    1963822.20846   2780186.36461
  22133430.1974    5916165.26847   4609994.54262
  24673755.2754    2461504.85245     78774.36961
  23055388.096    -8478784.585 6  -6458425.93621
 91  4 15 22 19 45.0020000  0  6G18G 2G11G19G16G 6
  24496916.2834   19744172.78445  15385020.66461
  21611281.439   -11686222.311 7  -9106102.86823
  24209325.1044    1999857.20746   2808265.52661
  22138221.0184    5941338.28747   4629609.85162
  24678608.174     2487002.060 5     98642.23221
  23050729.729    -8503262.307 6  -6477499.40621
 91  4 15 22 20  0.0020000  0  6G18G 2G11G19G16G 6
  24508162.611    19803305.082 5  15431097.59221
  21609523.314   -11695476.455 7  -9113313.83723
  24216206.596     2036014.007 6   2836439.60421
  22143021.7294    5966571.87147   4649272.35662
  24683473.104     2512589.990 5    118580.76521
  23046074.330    -8527731.551 6  -6496566.28221
 91  4 15 22 20 15.0020000  0  6G18G 2G11G19G16G 6
  24519421.838    19862466.991 5  15477197.58321
  21607776.877   -11704656.039 7  -9120466.70923
  24223108.143     2072295.033 6   2864710.49021
  22147833.5414    5991869.08246   4668984.42862
  24688361.760     2538271.163 5    138591.94521
  23041420.5104   -8552189.68646  -6515624.47961
 91  4 15 22 20 30.0020000  0  6G18G 2G11G19G16G 6
  24530683.424    19921653.984 5  15523317.13921
  21606040.619   -11713765.128 7  -9127564.65423
  24230037.5884    2108695.95546   2893074.80061
  22152659.3614    6017225.79746   4688742.87262
  24693265.650     2564041.506 5    158672.63121
  23036766.432    -8576640.610 6  -6534677.05721
 91  4 15 22 20 45.0020000  0  6G18G 2G11G19G16G 6
  24541954.9944   19980868.75545  15569458.33561
  21604322.861   -11722800.895 7  -9134605.46223
  24236986.682     2145219.341 6   2921534.54821
  22157496.3934    6042645.12946   4708550.11062
  24698190.8144    2589903.57245    178824.74361
  23032113.7524   -8601081.43646  -6553721.78861
 91  4 15 22 21  0.0020000  0  6G18G 2G11G19G16G 6
  24553233.127    20040109.749 5  15615619.95821
  21602617.6434  -11731764.59947  -9141590.12863
  24243958.4554    2181863.66646   2950088.52961
  22162346.0184    6068125.75847   4728405.11762
  24703128.8934    2615855.57945    199046.96261
  23027464.861    -8625513.346 6  -6572759.56321
 91  4 15 22 21 15.0020000  0  6G18G 2G11G19G16G 6
  24564509.7994   20099375.54745  15661800.89861
  21600925.150   -11740657.239 7  -9148519.41023
  24250955.1274    2218627.64846   2978735.75261
  22167208.2294    6093666.69246   4748307.10462
  24708084.7684    2641896.23145    219338.24661
  23022818.3224   -8649937.23846  -6591791.07261
 91  4 15 22 21 30.0020000  0  6G18G 2G11G19G16G 6
  24575785.666    20158664.371 5  15707999.80421
  21599244.979   -11749480.317 7  -9155394.48823
  24257973.455     2255509.649 6   3007474.93221
  22172079.7134    6119266.59047   4768255.04562
  24713049.7054    2668024.08745    239697.48261
  23018172.596    -8674354.424 6  -6610817.38721
 91  4 15 22 21 45.0020000  0  6G18G 2G11G19G16G 6
  24587076.479    20217979.650 5  15754219.29721
  21597580.393   -11758230.292 7  -9162212.60723
  24265014.8304    2292513.01146   3036308.67661
  22176964.002     6144929.002 6   4788251.70522
  24718058.104     2694242.255 5    260127.08721
  23013525.8384   -8698761.39346  -6629835.72761
 91  4 15 22 22  0.0020000  0  6G18G 2G11G19G16G 6
  24598369.4324   20277321.56945  15800459.58561
  21595930.057   -11766906.653 7  -9168973.36223
  24272078.947     2329637.962 6   3065237.15821
  22181859.2684    6170654.76746   4808297.72562
  24723055.182     2720551.171 5    280627.42221
  23008886.127    -8723157.282 6  -6648845.43921
 91  4 15 22 22 15.0020000  0  6G18G 2G11G19G16G 6
  24609665.6894   20336687.83145  15846718.82261
  21594292.838   -11775511.567 7  -9175678.44623
  24279169.4554    2366882.27046   3094258.63361
  22186764.3854    6196441.93347   4828391.57562
  24728076.346     2746948.441 5    301196.57021
  23004242.182    -8747544.079 6  -6667848.06821
 91  4 15 22 22 30.0020000  0  6G18G 2G11G19G16G 6
  24620968.424    20396081.809 5  15892999.65321
  21592668.650   -11784041.455 7  -9182325.07123
  24286276.166     2404249.235 6   3123375.70221
  22191683.7444    6222293.90247   4848535.93662
  24733122.7134    2773437.22745    321837.09161
  22999606.877    -8771918.145 6  -6686840.77221
 91  4 15 22 22 45.0020000  0  6G18G 2G11G19G16G 6
  24632273.8074   20455498.02045  15939297.80161
  21591057.291   -11792501.836 7  -9188917.52723
  24293411.9474    2441733.11546   3152583.86961
  22196614.1664    6248205.48546   4868726.74362
  24738169.6434    2800011.85345    342544.46461
  22994970.2994   -8796284.78746  -6705827.69361
 91  4 15 22 23  0.0020000  0  6G18G 2G11G19G16G 6
  24643587.4324   20514938.73145  15985615.04961
  21589462.268   -11800889.681 7  -9195453.46523
  24300570.7914    2479336.57246   3181885.20761
  22201557.4864    6274179.64847   4888966.32262
  24743247.2754    2826674.93245    363320.77161
  22990335.205    -8820641.064 6  -6724806.54221
 91  4 15 22 23 15.0020000  0  6G18G 2G11G19G16G 6
  24654904.182    20574401.412 5  16031949.41821
  21587880.768   -11809207.543 7  -9201934.87023
  24307744.885     2517056.853 6   3211277.58621
  22206513.3854    6300214.14646   4909252.91062
  24748339.783     2853423.664 5    384163.79221
  22985700.1894   -8844989.21946  -6743779.04761
 91  4 15 22 23 30.0020000  0  6G18G 2G11G19G16G 6
  24666223.5724   20633883.29245  16078298.74061
  21586310.400   -11817458.178 7  -9208363.89323
  24314944.658     2554891.042 6   3240758.72521
  22211476.7364    6326306.22847   4929584.36562
  24753447.6044    2880255.27245    405071.42261
  22981068.6354   -8869331.99646  -6762747.37561
 91  4 15 22 23 45.0020000  0  6G18G 2G11G19G16G 6
  24677547.6824   20693389.67945  16124667.17961
  21584752.799   -11825635.812 7  -9214736.03223
  24322168.893     2592844.700 6   3270332.94721
  22216455.7294    6352461.86547   4949965.34262
  24758557.2214    2907175.10544    426047.78461
  22976438.799    -8893663.222 6  -6781706.70721
 91  4 15 22 24  0.0020000  0  6G18G 2G11G19G16G 6
  24688880.2834   20752917.55545  16171052.34561
  21583211.5104  -11833743.11547  -9221053.36963
  24329413.260     2630914.806 6   3299997.91621
  22221444.6114    6378678.28846   4970393.69262
  24763711.604     2934180.261 5    447090.66821
  22971810.4794   -8917985.78446  -6800659.27761
 91  4 15 22 24 15.0020000  0  6G18G 2G11G19G16G 6
  24700210.1664   20812467.75945  16217454.92961
  21581680.760   -11841779.165 7  -9227315.18423
  24336679.986     2669102.088 6   3329754.18521
  22226446.2834    6404956.58547   4990870.25262
  24768852.5414    2961271.49545    468200.57761
  22967182.7364   -8942298.58146  -6819604.24761
 91  4 15 22 24 30.0020000  0  5G18G 2G11G19G 6
  24711540.885    20872036.233 5  16263871.71221
  21580165.158   -11849747.725 7  -9233524.41323
  24343967.166     2707402.595 6   3359598.69421
  22231456.5334    6431293.21946   5011392.26262
  22962557.377    -8966604.903 6  -6838544.16521
 91  4 15 22 24 45.0020000  0  5G18G 2G11G19G 6
  24722876.5184   20931626.70545  16310305.67361
  21578660.7754  -11857644.77247  -9239677.90963
  24351279.205     2745820.103 6   3389534.36321
  22236479.7834    6457692.12546   5031962.80462
  22957936.0884   -8990900.99346  -6857476.11161
 91  4 15 22 25  0.0020000  0  5G18G 2G11G19G 6
  24734223.549    20991238.810 5  16356756.47321
  21577173.5644  -11865470.66647  -9245775.96963
  24358610.7684    2784354.19946   3419560.88061
  22241515.6354    6484153.23946   5052581.82162
  22953314.189    -9015186.702 6  -6876399.96621
 91  4 15 22 25 15.0020000  0  5G18G 2G11G19G 6
  24745572.1744   21050869.34545  16403221.63261
  21575694.5574  -11873228.26247  -9251820.80963
  24365964.611     2823001.638 6   3449675.71321
  22246563.408     6510673.884 6   5073247.22922
  22948692.127    -9039464.882 6  -6895317.95621
 91  4 15 22 25 30.0020000  0  5G18G 2G11G19G 6
  24756923.9864   21110519.05245  16449701.72061
  21574233.447   -11880916.626 7  -9257811.69823
  24373339.229     2861763.269 6   3479879.52921
  22251623.822     6537255.017 6   5093959.75722
  22944075.5494   -9063734.32946  -6914229.15061
 91  4 15 22 25 45.0020000  0  5G18G 2G11G19G 6
  24768277.502    21170189.931 5  16496198.33121
  21572783.104   -11888533.874 7  -9263747.17223
  24380739.619     2900640.724 6   3510173.60221
  22256688.1434    6563898.72646   5114721.04862
  22939458.346    -9087993.039 6  -6933131.96821
 91  4 15 22 26  0.0020000  0  5G18G 2G11G19G 6
  24779636.150    21229880.570 5  16542710.31321
  21571344.986   -11896080.937 7  -9269627.95223
  24388158.7684    2939632.79446   3540556.98861
  22261772.8144    6590604.28447   5135530.53462
  22934844.5184   -9112241.65846  -6952026.92561
 91  4 15 22 26 15.0020000  0  5G18G 2G11G19G 6
  24791003.088    21289593.156 5  16589239.41021
  21569926.111   -11903555.367 7  -9275452.14123
  24395601.9394    2978741.52546   3571031.28861
  22266865.5644    6617374.06946   5156390.07362
  22930232.3074   -9136477.87246  -6970912.22361
 91  4 15 22 26 30.0020000  0  5G18G 2G11G19G 6
  24802372.3694   21349324.90245  16635783.42361
  21568516.955   -11910959.569 7  -9281221.60423
  24403065.846     3017964.399 6   3601594.52021
  22271973.666     6644205.766 6   5177297.84822
  22925622.314    -9160703.961 6  -6989789.61221
 91  4 15 22 26 45.0020000  0  5G18G 2G11G19G 6
  24813741.9794   21409075.90545  16682342.45161
  21567120.838   -11918293.477 7  -9286936.29523
  24410551.830     3057301.356 6   3632246.64021
  22277092.9474    6671099.75947   5198254.16662
  22921014.596    -9184919.388 6  -7008658.70621
 91  4 15 22 27  0.0020000  0  5G18G 2G11G19G 6
  24825109.9944   21468843.65745  16728914.53561
  21565738.1974  -11925559.33547  -9292597.96863
  24418054.604     3096749.971 6   3662985.77521
  22282219.275     6698053.956 7   5219257.39322
  22916405.861    -9209126.290 6  -7027521.14621
 91  4 15 22 27 15.0020000  0  5G18G 2G11G19G 6
  24836483.572    21528630.428 5  16775501.42021
  21564369.127   -11932754.698 7  -9298204.69923
  24425584.3384    3136312.32246   3693813.54561
  22287361.8774    6725070.69447   5240309.35562
  22911803.736    -9233322.111 6  -7046374.96221
 91  4 15 22 27 30.0020000  0  5G18G 2G11G19G 6
  24847867.1974   21588436.53145  16822103.41061
  21563012.4554  -11939879.01047  -9303756.07363
  24433136.9324    3175988.80746   3724730.25461
  22292512.3854    6752150.64946   5261410.58262
  22907200.830    -9257506.165 6  -7065219.60221
 91  4 15 22 27 45.0020000  0  5G18G 2G11G19G 6
  24859250.424    21648258.623 5  16868717.81621
  21561669.6584  -11946935.19147  -9309254.35463
  24440707.8934    3215776.10946   3755733.31061
  22297677.0884    6779290.90346   5282558.78962
  22902599.2364   -9281681.52146  -7084057.47361
 91  4 15 22 28  0.0020000  0  5G18G 2G11G19G 6
  24870639.221    21708097.468 5  16915345.31321
  21560341.666   -11953922.120 7  -9314698.67123
  24448301.861     3255675.163 6   3786823.42021
  22302852.393     6806492.831 6   5303755.05322
  22898001.283    -9305846.688 6  -7102887.40421
 91  4 15 22 28 15.0020000  0  5G18G 2G11G19G 6
  24882034.393    21767952.487 5  16961985.39821
  21559024.1824  -11960840.48747  -9320089.56463
  24455913.557     3295684.946 6   3817999.82821
  22308039.986     6833755.844 6   5324998.91922
  22893404.408    -9330002.147 6  -7121709.76121
 91  4 15 22 28 30.0020000  0  5G18G 2G11G19G 6
  24893425.2524   21827824.84345  17008639.02461
  21557721.2054  -11967688.85647  -9325425.91963
  24463548.3934    3335806.78846   3849263.55261
  22313246.1044    6861081.59446   5346291.66962
  22888811.4394   -9354146.25646  -7140523.28861
 91  4 15 22 28 45.0020000  0  5G18G 2G11G19G 6
  24904817.6504   21887712.18545  17055304.31261
  21556431.0644  -11974469.15948  -9330709.23063
  24471203.932     3376038.657 6   3880613.00921
  22318452.0964    6888468.40046   5367631.99162
  22884218.2444   -9378280.82346  -7159329.37061
 91  4 15 22 29  0.0020000  0  5G18G 2G11G19G 6
  24916213.838    21947615.002 5  17101981.68021
  21555152.6274  -11981181.19447  -9335939.34363
  24478883.5724    3416380.37146   3912048.04361
  22323678.6434    6915916.35147   5389019.96862
  22879623.8934   -9402405.42846  -7178127.69761
 91  4 15 22 29 15.0020000  0  5G18G 2G11G19G 6
  24927621.877    22007533.009 5  17148670.84421
  21553886.518   -11987824.788 7  -9341116.12723
  24486581.8774    3456831.86646   3943568.63261
  22328912.057     6943425.874 6   5410455.91022
  22875037.6824   -9426519.73646  -7196918.01461
 91  4 15 22 29 30.0020000  0  5G18G 2G11G19G 6
  24939022.119    22067466.512 4  17195372.10221
  21552636.7604  -11994399.37847  -9346239.15363
  24494296.0964    3497393.61846   3975175.13561
  22334155.7444    6970997.74446   5431940.44462
  22870452.260    -9450623.078 6  -7215699.78321
 91  4 15 22 29 45.0020000  0  5G18G 2G11G19G 6
  24950437.002    22127416.424 4  17242086.14621
  21551400.025   -12000903.707 8  -9351307.42323
  24502037.877     3538066.584 6   4006868.29721
  22339417.0964    6998633.10446   5453474.45362
  22865865.0024   -9474714.01746  -7234471.88261
 91  4 15 22 30  0.0020000  0  5G18G 2G11G19G 6
  24961845.9944   22187381.27344  17288811.76261
  21550175.7054  -12007339.02448  -9356321.91663
  24509800.6274    3578849.16346   4038646.87061
  22344689.3144    7026330.89446   5475057.11062
  22861284.2754   -9498793.59846  -7253235.12361
 91  4 15 22 30 15.0020000  0  5G18G 2G11G19G 6
  24973255.9244   22247360.45043  17335548.63061
  21548965.127   -12013705.992 8  -9361283.14723
  24517580.330     3619740.352 6   4070510.08521
  22349971.986     7054090.518 6   5496687.93522
  22856703.604    -9522862.566 6  -7271990.09421
 91  4 15 22 30 30.0020000  0  5G18G 2G11G19G 6
  24984672.3074   22307353.30943  17382296.13461
  21547765.885   -12020004.743 8  -9366191.21823
  24525382.252     3660739.822 6   4102457.68221
  22355266.564     7081911.748 6   5518366.77122
  22852125.2134   -9546920.70346  -7290736.62961
 91  4 15 22 30 45.0020000  0  5G18G 2G11G19G 6
  24996098.7994   22367361.23344  17429055.35761
  21546580.5644  -12026233.70648  -9371044.91563
  24533205.2834    3701848.99746   4134490.77661
  22360571.6274    7109796.40346   5540095.03762
  22847551.4394   -9570966.27746  -7309473.37562
 91  4 15 22 31  0.0020000  0  4G 2G11G19G 6
  21545407.713   -12032395.553 8  -9375846.31523
  24541048.0024    3743064.95546   4166607.06961
  22365890.8074    7137742.00746   5561870.79762
  22842975.0964   -9595001.77746  -7328202.28161
 91  4 15 22 31 15.0020000  0  4G 2G11G19G 6
  21544249.885   -12038487.191 8  -9380593.00123
  24548912.0804    3784390.66046   4198808.86961
  22371221.752     7165752.074 6   5583696.77522
  22838404.5184   -9619023.84446  -7346920.71061
 91  4 15 22 31 30.0020000  0  4G 2G11G19G 6
  21543102.900   -12044509.640 8  -9385285.77623
  24556798.2914    3825824.89746   4231095.25361
  22376563.9324    7193825.55346   5605572.16962
  22833836.6664   -9643033.14846  -7365629.18761
 91  4 15 22 31 45.0020000  0  4G 2G11G19G 6
  21541968.502   -12050465.206 8  -9389926.43023
  24564696.455     3867364.879 6   4263464.02221
  22381913.299     7221960.044 6   5627495.11021
  22829266.814    -9667032.072 6  -7384329.57521
 91  4 15 22 32  0.0020000  0  4G 2G11G19G 6
  21540848.893   -12056352.738 8  -9394514.07123
  24572624.3544    3909011.71846   4295916.04561
  22387282.916     7250156.875 6   5649466.62621
  22824703.580    -9691019.370 6  -7403020.89721
 91  4 15 22 32 15.0020000  0  4G 2G11G19G 6
  21539742.0414  -12062175.88048  -9399051.54263
  24580570.9244    3950761.43346   4328448.23361
  22392660.689     7278412.446 6   5671483.90821
  22820141.1664   -9714998.46346  -7421705.83861
 91  4 15 22 32 30.0020000  0  4G 2G11G19G 6
  21538645.1434  -12067930.43548  -9403535.57163
  24588533.5024    3992617.77346   4361063.50061
  22398047.0644    7306731.12446   5693550.36961
  22815581.291    -9738965.014 6  -7440380.99821
 91  4 15 22 32 45.0020000  0  4G 2G11G19G 6
  21537561.979   -12073621.321 8  -9407969.98723
  24596522.408     4034575.840 6   4393758.02821
  22403446.5574    7335108.30446   5715662.41761
  22811019.877    -9762923.703 6  -7459050.02621
 91  4 15 22 33  0.0020000  0  4G 2G11G19G 6
  21536491.3304  -12079247.08848  -9412353.66363
  24604522.7444    4076636.60046   4426532.59161
  22408853.4864    7363545.22946   5737821.02562
  22806463.1504   -9786872.93846  -7477711.70161
 91  4 15 22 33 15.0020000  0  4G 2G11G19G 6
  21535433.7054  -12084803.13748  -9416683.01163
  24612549.2294    4118804.47646   4459390.61461
  22414282.9324    7392046.57346   5760029.82462
  22801909.4084   -9810807.83346  -7496362.19961
 91  4 15 22 33 30.0020000  0  4G 2G11G19G 6
  21534390.6504  -12090291.14848  -9420959.34363
  24620593.939     4161077.575 6   4492330.64021
  22419718.3464    7420611.11146   5782287.86362
  22797355.7604   -9834730.07446  -7515002.84461
 91  4 15 22 33 45.0020000  0  4G 2G11G19G 6
  21533360.596   -12095710.314 8  -9425182.02823
  24628658.1894    4203456.41446   4525353.06161
  22425169.7604    7449239.45646   5804595.62062
  22792806.9394   -9858638.48046  -7533632.70761
 91  4 15 22 34  0.0020000  0  4G 2G11G19G 6
  21532341.8144  -12101058.33248  -9429349.28063
  24636741.354     4245943.272 6   4558459.65721
  22430625.9004    7477934.34046   5826955.23162
  22788259.5574   -9882530.59646  -7552249.87561
 91  4 15 22 34 15.0020000  0  4G 2G11G19G 6
  21531336.6194  -12106336.25448  -9433461.91263
  24644849.908     4288536.722 6   4591649.31021
  22436099.8544    7506694.65246   5849365.83462
  22783716.4004   -9906407.41846  -7570855.12461
 91  4 15 22 34 30.0020000  0  4G 2G11G19G 6
  21530343.1894  -12111548.75748  -9437523.56763
  24652975.111     4331231.850 6   4624918.19421
  22441585.229     7535515.883 6   5871823.88622
  22779174.010    -9930273.349 6  -7589451.87721
 91  4 15 22 34 45.0020000  0  4G 2G11G19G 6
  21529365.5884  -12116692.37248  -9441531.54863
  24661117.2444    4374031.89246   4658268.83161
  22447080.9944    7564401.59846   5894332.19962
  22774637.2994   -9954124.69946  -7608037.28461
 91  4 15 22 35  0.0020000  0  4G 2G11G19G 6
  21528400.0254  -12121769.64948  -9445487.83763
  24669281.955     4416933.941 6   4691698.94621
  22452586.111     7593349.273 6   5916888.78522
  22770098.9004   -9977963.69346  -7626613.05261
 91  4 15 22 35 15.0020000  0  4G 2G11G19G 6
  21527446.3774  -12126775.45948  -9449388.43063
  24677466.057     4459942.810 6   4725212.30721
  22458107.8694    7622364.18046   5939497.77162
  22765565.9004  -10001785.31946  -7645175.29561
 91  4 15 22 35 30.0020000  0  4G 2G11G19G 6
  21526507.8144  -12131712.22448  -9453235.23163
  24685668.6584    4503056.04345   4758806.97861
  22463643.0414    7651444.15846   5962157.45762
  22761040.979   -10025591.684 6  -7663725.64021
 91  4 15 22 35 45.0020000  0  4G 2G11G19G 6
  21525581.4004  -12136580.83848  -9457028.91963
  24693890.6114    4546272.27445   4792481.91661
  22469191.9244    7680588.15646   5984867.03062
  22756508.9634  -10049383.71446  -7682264.81361
 91  4 15 22 36  0.0020000  0  4G 2G11G19G 6
  21524666.3074  -12141385.06348  -9460772.42563
  24702136.275     4589587.636 5   4826234.08521
  22474748.104     7709792.778 6   6007623.83322
  22751982.8854  -10073164.69046  -7700795.38561
 91  4 15 22 36 15.0020000  0  4G 2G11G19G 6
  21523763.5964  -12146120.18547  -9464462.09963
  24710402.7834    4633006.43246   4860066.83761
  22480318.580     7739062.578 6   6030431.42022
  22747462.0254  -10096929.87846  -7719313.64261
 91  4 15 22 36 30.0020000  0  4G 2G11G19G 6
  21522877.0644  -12150784.68648  -9468096.74663
  24718676.5024    4676530.20746   4893981.42861
  22485902.3074    7768399.45546   6053291.28562
  22742942.0884  -10120677.40247  -7737818.13961
 91  4 15 22 36 45.0020000  0  4G 2G11G19G 6
  21522000.7134  -12155383.78348  -9471680.42563
  24726982.182     4720153.373 6   4927973.44021
  22491494.0804    7797798.25146   6076199.41162
  22738424.658   -10144412.346 6  -7756312.83021
 91  4 15 22 37  0.0020000  0  4G 2G11G19G 6
  21521139.2524  -12159915.97848  -9475211.97563
  24735303.080     4763877.144 6   4962043.85521
  22497102.7914    7827260.51546   6099156.97762
  22733910.1354  -10168133.05046  -7774796.43361
 91  4 15 22 37 15.0020000  0  4G 2G11G19G 6
  21520289.9714  -12164381.90148  -9478691.87563
  24743644.158     4807700.656 6   4996192.00421
  22502721.432     7856785.755 6   6122163.60722
  22729399.2754  -10191839.94446  -7793269.27161
 91  4 15 22 37 30.0020000  0  4G 2G11G19G 6
  21519451.9794  -12168783.02948  -9482121.28863
  24752002.580     4851622.060 6   5030416.42321
  22508350.486     7886372.475 6   6145218.15022
  22724890.275   -10215534.427 7  -7811732.44621
 91  4 15 22 37 45.0020000  0  4G 2G11G19G 6
  21518627.3614  -12173116.22548  -9485497.76963
  24760378.244     4895644.332 6   5064719.43521
  22513993.9474    7916024.03946   6168323.21762
  22720386.1584  -10239212.92747  -7830183.16561
 91  4 15 22 38  0.0020000  0  4G 2G11G19G 6
  21517818.1824  -12177380.31548  -9488820.40263
  24768778.8854    4939768.38446   5099101.75361
  22519650.869     7945741.696 6   6191479.79422
  22715882.072   -10262874.306 7  -7848620.54021
 91  4 15 22 38 15.0020000  0  4G 2G11G19G 6
  21517018.3694  -12181575.75048  -9492089.53463
  24777190.5104    4983993.55545   5133562.87161
  22525314.0334    7975525.05646   6214687.56262
  22711383.7364  -10286518.86647  -7867044.80761
 91  4 15 22 38 30.0020000  0  4G 2G11G19G 6
  21516231.8614  -12185703.92648  -9495306.26563
  24785625.7834    5028318.21945   5168101.49961
  22530993.4244    8005372.99446   6237945.66062
  22706887.7914  -10310147.60947  -7885456.74661
 91  4 15 22 38 45.0020000  0  4G 2G11G19G 6
  21515459.8544  -12189766.37948  -9498471.78063
  24794080.7134    5072740.47645   5202716.18261
  22536685.2294    8035283.99546   6261252.88761
  22702391.393   -10333762.022 7  -7903857.52021
 91  4 15 22 39  0.0020000  0  4G 2G11G19G 6
  21514700.0184  -12193762.55748  -9501585.65563
  24802549.1354    5117260.64145   5237407.15661
  22542394.174     8065258.786 6   6284609.82422
  22697900.3384  -10357361.22646  -7922246.44361
 91  4 15 22 39 15.0020000  0  4G 2G11G19G 6
  21513952.2134  -12197692.98148  -9504648.29063
  24811039.9714    5161878.10645   5272173.96261
  22548107.658     8095297.091 6   6308016.24822
  22693414.3384  -10380945.46546  -7940623.70861
 91  4 15 22 39 30.0020000  0  4G 2G11G19G 6
  21513214.4634  -12201560.03048  -9507661.53463
  24819548.0644    5206590.16646   5307014.46361
  22553835.213     8125396.508 6   6331470.30021
  22688930.1894  -10404516.97146  -7958991.05061
 91  4 15 22 39 45.0020000  0  4G 2G11G19G 6
  21512493.1434  -12205360.27648  -9510622.73363
  24828075.322     5251399.941 6   5341931.12021
  22559575.697     8155560.473 6   6354974.64121
  22684447.7524  -10428072.22447  -7977345.72162
 91  4 15 22 40  0.0020000  0  4G 2G11G19G 6
  21511782.5414  -12209095.32848  -9513533.12763
  24836619.8774    5296305.49946   5376922.40561
  22565327.986     8185787.412 6   6378528.05521
  22679966.1504  -10451612.67846  -7995688.86962
 91  4 15 22 40 15.0020000  0  4G 2G11G19G 6
  21511084.4394  -12212765.25748  -9516392.77863
  24845181.104     5341306.662 5   5411988.18721
  22571090.229     8216077.501 6   6402130.66922
  22675487.1584  -10475138.12846  -8014020.32862
 91  4 15 22 40 30.0020000  0  4G 2G11G19G 6
  21510399.1894  -12216369.22848  -9519201.03863
  24853764.3934    5386403.94946   5447128.87761
  22576866.213     8246431.714 6   6425783.25121
  22671015.6824  -10498647.27746  -8032339.09162
 91  4 15 22 40 45.0020000  0  4G 2G11G19G 6
  21509723.8774  -12219907.32648  -9521957.96263
  24862362.5964    5431597.07645   5482344.23961
  22582653.2604    8276850.17546   6449485.90761
  22666545.9714  -10522140.25546  -8050645.24962
 91  4 15 22 41  0.0020000  0  4G 2G11G19G 6
  21509061.6824  -12223383.28848  -9524666.47063
  24870982.510     5476881.851 5   5517631.02221
  22588456.354     8307329.162 6   6473235.72322
  22662077.2914  -10545620.61946  -8068941.57062
 91  4 15 22 41 15.0020000  0  4G 2G11G19G 6
  21508412.2994  -12226794.23348  -9527324.31963
  24879616.9004    5522260.93045   5552991.28661
  22594272.0334    8337871.57146   6497034.94761
  22657613.4164  -10569085.22546  -8087225.61962
 91  4 15 22 41 30.0020000  0  4G 2G11G19G 6
  21507776.5884  -12230138.71548  -9529930.37463
  24888270.658     5567735.560 5   5588425.99521
  22600091.041     8368479.137 6   6520884.94921
  22653151.0884  -10592532.40947  -8105496.08762
 91  4 15 22 41 45.0020000  0  4G 2G11G19G 6
  21507154.2914  -12233418.19748  -9532485.78663
  24896947.268     5613303.982 6   5623933.80721
  22605928.4944    8399150.35246   6544784.55961
  22648691.6194  -10615963.57246  -8123754.07062
 91  4 15 22 42  0.0020000  0  4G 2G11G19G 6
  21506541.5884  -12236634.44448  -9534991.91463
  24905633.6194    5658964.31746   5659513.22561
  22611778.549     8429883.519 6   6568732.43422
  22644236.8694  -10639380.16246  -8142000.71062
 91  4 15 22 42 15.0020000  0  4G 2G11G19G 6
  21505943.2604  -12239783.87848  -9537445.99063
  24914335.158     5704719.880 6   5695166.86321
  22617639.166     8460682.431 6   6592731.54122
  22639783.3934  -10662778.32846  -8160232.98762
 91  4 15 22 42 30.0020000  0  4G 2G11G19G 6
  21505354.7214  -12242869.27648  -9539850.16363
  24923065.3544    5750567.46446   5730892.21461
  22623505.908     8491544.448 6   6616779.80922
  22635334.1584  -10686160.76846  -8178453.00862
 91  4 15 22 42 45.0020000  0  4G 2G11G19G 6
  21504779.275   -12245888.671 8  -9542202.91023
  24931807.494     5796508.963 6   5766690.72621
  22629396.2054    8522471.51946   6640878.78861
  22630886.6434  -10709525.13146  -8196658.94362
 91  4 15 22 43  0.0020000  0  4G 2G11G19G 6
  21504215.8224  -12248842.75448  -9544504.76263
  24940567.846     5842543.448 6   5802561.70621
  22635293.502     8553463.212 6   6665028.11121
  22626442.8144  -10732871.99446  -8214851.24562
 91  4 15 22 43 15.0020000  0  4G 2G11G19G 6
  21503666.8224  -12251731.72548  -9546755.87763
  24949343.979     5888670.385 6   5838504.72221
  22641202.221     8584519.489 6   6689227.76721
  22622004.088   -10756201.266 6  -8233029.84122
 91  4 15 22 43 30.0020000  0  4G 2G11G19G 6
  21503130.5334  -12254555.92248  -9548956.52463
  24958142.166     5934888.965 6   5874519.14721
  22647125.6274    8615639.82846   6713477.32561
  22617568.7294  -10779513.21447  -8251194.93262
 91  4 15 22 43 45.0020000  0  4G 2G11G19G 6
  21502606.1974  -12257314.39648  -9551105.95263
  24966957.127     5981200.005 6   5910605.62221
  22653056.400     8646825.368 6   6737777.69021
  22613137.0024  -10802806.54947  -8269345.52362
 91  4 15 22 44  0.0020000  0  4G 2G11G19G 6
  21502093.0104  -12260006.49648  -9553203.66063
  24975785.479     6027603.834 6   5946764.40421
  22659006.908     8678076.951 6   6762129.53121
  22608705.299   -10826080.565 6  -8287481.06922
 91  4 15 22 44 15.0020000  0  4G 2G11G19G 6
  21501593.2444  -12262634.44148  -9555251.37463
  24984632.447     6074097.909 6   5982993.49421
  22664965.361     8709392.354 6   6786531.09822
  22604280.971   -10849337.146 6  -8305603.03022
 91  4 15 22 44 30.0020000  0  4G 2G11G19G 6
  21501106.5184  -12265197.53748  -9557248.56163
  24993493.6274    6120682.94346   6019293.45861
  22670934.799     8740772.471 6   6810983.09122
  22599859.697   -10872575.318 6  -8323710.64522
 91  4 15 22 44 45.0020000  0  4G 2G11G19G 6
  21500631.0724  -12267695.50648  -9559194.99763
  25002377.0024    6167358.82946   6055664.21561
  22676920.182     8772217.741 6   6835485.84422
  22595442.0334  -10895794.65847  -8341803.57862
 91  4 15 22 45  0.0020000  0  4G 2G11G19G 6
  21500166.729   -12270129.694 8  -9561091.74323
  25011279.0184    6214123.79146   6092104.39061
  22682913.424     8803726.693 6   6860038.22022
  22591025.182   -10918996.410 7  -8359882.80822
 91  4 15 22 45 15.0020000  0  4G 2G11G19G 6
  21499715.5644  -12272502.13348  -9562940.36063
  25020193.049     6260975.630 6   6128612.26921
  22688927.221     8835297.446 6   6884638.75521
  22586615.0964  -10942182.39347  -8377949.74662
 91  4 15 22 45 30.0020000  0  4G 2G11G19G 6
  21499275.096   -12274812.016 8  -9564740.24423
  25029121.057     6307914.908 5   6165188.27421
  22694944.213     8866930.978 6   6909288.21022
  22582204.057   -10965351.328 7  -8396003.40822
 91  4 15 22 45 45.0020000  0  4G 2G11G19G 6
  21498847.080   -12277059.577 8  -9566491.56423
  25038074.8854    6354941.04946   6201831.98361
  22700976.104     8898627.149 6   6933986.47722
  22577798.4084  -10988503.50646  -8414044.01361
 91  4 15 22 46  0.0020000  0  4G 2G11G19G 6
  21498432.455   -12279243.075 8  -9568192.96723
  25047037.8854    6402055.61446   6238544.57361
  22707021.4864    8930387.91046   6958735.06661
  22573396.752   -11011636.904 7  -8432069.98221
 91  4 15 22 46 15.0020000  0  4G 2G11G19G 6
  21498028.4474  -12281362.57348  -9569844.49363
  25056021.635     6449258.252 6   6275325.79221
  22713076.971     8962213.185 6   6983533.93121
  22568999.2754  -11034751.26247  -8450081.10761
 91  4 15 22 46 30.0020000  0  4G 2G11G19G 6
  21497637.8464  -12283417.48248  -9571445.69863
  25065017.400     6496549.240 6   6312175.85021
  22719147.2604    8994103.71846   7008383.64461
  22564601.799   -11057845.821 6  -8468076.81621
 91  4 15 22 46 45.0020000  0  4G 2G11G19G 6
  21497258.3384  -12285408.49848  -9572997.10863
  25074039.541     6543927.717 6   6349094.09521
  22725226.174     9026059.005 6   7033283.81622
  22560211.4794  -11080921.00747  -8486057.42561
 91  4 15 22 47  0.0020000  0  4G 2G11G19G 6
  21496891.7444  -12287335.85248  -9574498.91263
  25083068.408     6591393.285 6   6386080.21221
  22731322.658     9058078.881 6   7058234.32022
  22555824.877   -11103976.604 7  -8504022.77922
 91  4 15 22 47 15.0020000  0  4G 2G11G19G 6
  21496536.9244  -12289199.36348  -9575950.97263
  25092118.4864    6638945.59446   6423133.91161
  22737424.463     9090163.583 6   7083235.33221
  22551442.424   -11127012.623 7  -8521972.87122
 91  4 15 22 47 30.0020000  0  4G 2G11G19G 6
  21496194.252   -12291001.505 8  -9577355.21723
  25101181.924     6686581.976 6   6460253.13021
  22743542.291     9122310.770 6   7108285.04122
  22547061.525   -11150031.253 7  -8539909.42122
 91  4 15 22 47 45.0020000  0  4G 2G11G19G 6
  21495863.189   -12292745.571 8  -9578714.20523
  25110263.033     6734299.024 6   6497435.18621
  22749672.627     9154517.214 6   7133380.91421
  22542684.588   -11173035.439 7  -8557834.71221
 91  4 15 22 48  0.0020000  0  4G 2G11G19G 6
  21495542.064   -12294427.975 8  -9580025.14623
  25119355.7444    6782099.98446   6534682.62661
  22755810.346     9186786.529 6   7158525.78322
  22538309.580   -11196021.352 7  -8575745.76222
 91  4 15 22 48 15.0020000  0  4G 2G11G19G 6
  21495233.229   -12296050.429 8  -9581289.37623
  25128469.1354    6829982.85845   6571993.89561
  22761963.010     9219117.088 6   7183718.37021
  22533937.861   -11218990.548 7  -8593643.79222
 91  4 15 22 48 30.0020000  0  4G 2G11G19G 6
  21494937.635   -12297610.792 8  -9582505.22123
  25137600.432     6877949.522 6   6609370.45721
  22768128.283     9251511.169 6   7208960.45622
  22529570.322   -11241940.476 7  -8611526.80622
 91  4 15 22 48 45.0020000  0  4G 2G11G19G 6
  21494650.916   -12299109.374 8  -9583672.92323
  25146743.682     6925999.319 6   6646811.81221
  22774307.0884    9283968.39446   7234251.74861
  22525206.416   -11264871.522 7  -8629395.10222
 91  4 15 22 49  0.0020000  0  4G 2G11G19G 6
  21494379.463   -12300544.137 8  -9584790.89523
  25155900.6044    6974134.22246   6684319.46861
  22780494.8464    9316491.12346   7259594.06261
  22520848.135   -11287781.141 7  -8647246.70722
 91  4 15 22 49 15.0020000  0  4G 2G11G19G 6
  21494116.7604  -12301915.91448  -9585859.78763
  25165079.1274    7022352.89146   6721892.39661
  22786694.346     9349078.544 6   7284986.80621
  22516492.064   -11310670.257 7  -8665082.33222
 91  4 15 22 49 30.0020000  0  3G 2G19G 6
  21493868.619   -12303223.769 8  -9586878.86423
  22792910.236     9381731.676 6   7310430.76021
  22512141.189   -11333537.428 7  -8682900.85722
 91  4 15 22 49 45.0020000  0  3G 2G19G 6
  21493629.807   -12304465.577 8  -9587846.48623
  22799136.236     9414452.684 6   7335927.58721
  22507794.939   -11356380.550 7  -8700700.64322
 91  4 15 22 50  0.0020000  0  3G 2G19G 6
  21493408.0644  -12305644.56948  -9588765.15463
  22805373.658     9447238.811 6   7361475.15421
  22503449.861   -11379202.329 7  -8718483.80122
 91  4 15 22 50 15.0020000  0  3G 2G19G 6
  21493195.713   -12306758.782 8  -9589633.34523
  22811626.697     9480091.947 6   7387074.94521
  22499112.721   -11402000.550 7  -8736248.59622
 91  4 15 22 50 30.0020000  0  3G 2G19G 6
  21492996.588   -12307808.850 8  -9590451.55724
  22817893.658     9513011.538 6   7412726.52821
  22494777.260   -11424775.629 6  -8753995.36622
 91  4 15 22 50 45.0020000  0  3G 2G19G 6
  21492806.932   -12308795.698 8  -9591220.50723
  22824169.9714    9545996.76246   7438429.23561
  22490446.439   -11447528.346 6  -8771724.70722
 91  4 15 22 51  0.0020000  0  3G 2G19G 6
  21492631.7214  -12309714.90448  -9591936.75063
  22830458.0574    9579052.13946   7464186.60561
  22486122.783   -11470253.946 7  -8789432.91922
 91  4 15 22 51 15.0020000  0  3G 2G19G 6
  21492471.6044  -12310571.00348  -9592603.80963
  22836759.854     9612173.138 6   7489995.11821
  22481802.705   -11492956.885 7  -8807123.47322
 91  4 15 22 51 30.0020000  0  3G 2G19G 6
  21492320.7214  -12311365.68148  -9593223.00563
  22843080.8464    9645357.94846   7515853.35461
  22477488.760   -11515638.720 7  -8824797.58522
 91  4 15 22 51 45.0020000  0  3G 2G19G 6
  21492181.072   -12312096.137 8  -9593792.17023
  22849403.9324    9678609.61446   7541763.67861
  22473174.596   -11538296.371 7  -8842452.84922
 91  4 15 22 52  0.0020000  0  3G 2G19G 6
  21492050.939   -12312765.023 8  -9594313.35123
  22855742.979     9711925.623 6   7567724.13921
  22468869.213   -11560932.078 7  -8860091.01422
 91  4 15 22 52 15.0020000  0  3G 2G19G 6
  21491935.643   -12313370.751 8  -9594785.32323
  22862096.002     9745308.000 6   7593736.33221
  22464563.807   -11583543.931 7  -8877710.59722
 91  4 15 22 52 30.0020000  0  3G 2G19G 6
  21491832.8854  -12313914.82248  -9595209.24563
  22868462.1194    9778755.08646   7619798.92861
  22460266.088   -11606133.384 7  -8895312.71322
 91  4 15 22 52 45.0020000  0  3G 2G19G 6
  21491744.471   -12314397.859 8  -9595585.61623
  22874835.0254    9812265.96546   7645911.24161
  22455971.4554  -11628700.97847  -8912897.80862
 91  4 15 22 53  0.0020000  0  3G 2G19G 6
  21491665.0414  -12314821.94348  -9595916.04563
  22881221.9394    9845838.83546   7672071.86161
  22451681.525   -11651248.427 7  -8930467.19922
 91  4 15 22 53 15.0020000  0  3G 2G19G 6
  21491594.854   -12315183.642 8  -9596197.86423
  22887627.611     9879477.512 6   7698283.76921
  22447392.814   -11673771.965 6  -8948017.96322
 91  4 15 22 53 30.0020000  0  3G 2G19G 6
  21491534.205   -12315480.848 8  -9596429.42723
  22894040.0644    9913184.09746   7724548.57261
  22443113.057   -11696269.158 7  -8965548.19622
 91  4 15 22 53 45.0020000  0  3G 2G19G 6
  21491491.2914  -12315716.22548  -9596612.81463
  22900466.1744    9946955.91546   7750864.21861
  22438839.619   -11718742.619 7  -8983059.93522
 91  4 15 22 54  0.0020000  0  3G 2G19G 6
  21491458.471   -12315891.292 8  -9596749.20423
  22906904.1354    9980791.47146   7777229.52061
  22434565.0804  -11741193.46547  -9000554.04262
 91  4 15 22 54 15.0020000  0  3G 2G19G 6
  21491435.0724  -12316004.89348
  22913357.119    10014692.131 6   7803645.56521
  22430298.666   -11763620.449 7  -9018029.56322
 91  4 15 22 54 30.0020000  0  3G 2G19G 6
  21491425.6194  -12316054.38648
  22919822.377    10048660.778 6   7830114.57221
  22426033.814   -11786020.509 7  -9035484.09522
 91  4 15 22 54 45.0020000  0  3G 2G19G 6
  21491427.1974  -12316042.37748
  22926297.8694   10082694.70846   7856634.45361
  22421776.752   -11808396.078 7  -9052919.54922
 91  4 15 22 55  0.0020000  0  3G 2G19G 6
  21491444.3224  -12315974.47148
  22932788.6274   10116788.30746   7883200.83461
  22417521.689   -11830752.652 7  -9070340.20122
 91  4 15 22 55 15.0020000  0  3G 2G19G 6
  21491466.9474  -12315843.85848
  22939287.9164   10150948.60946   7909819.17661
  22413273.7134  -11853083.06047  -9087740.45762
 91  4 15 22 55 30.0020000  0  3G 2G19G 6
  21491501.4394  -12315653.39648
  22945802.4244   10185172.89846   7936487.39061
  22409029.9324  -11875389.87847  -9105122.33762
 91  4 15 22 55 45.0020000  0  3G 2G19G 6
  21491553.393   -12315403.221 8
  22952323.9944   10219460.80546   7963205.17661
  22404786.8934  -11897673.21247  -9122485.91462
 91  4 15 22 56  0.0020000  0  3G 2G19G 6
  21491607.260   -12315093.127 8  -9596127.03923
  22958859.4084   10253812.78646   7989972.89761
  22400553.6584  -11919932.46047  -9139830.72362
 91  4 15 22 56 15.0020000  0  3G 2G19G 6
  21491678.650   -12314723.812 8  -9595839.24323
  22965409.9164   10288228.59646   8016790.34761
  22396320.9004  -11942167.79147  -9157156.89462
 91  4 15 22 56 30.0020000  0  3G 2G19G 6
  21491760.346   -12314291.926 8  -9595502.68423
  22971972.7684   10322711.50746   8043660.08961
  22392094.2994  -11964375.75847  -9174461.74662
 91  4 15 22 56 45.0020000  0  3G 2G19G 6
  21491855.807   -12313798.831 8  -9595118.43023
  22978549.2444   10357260.06546   8070580.99061
  22387873.2994  -11986557.72447  -9191746.32862
 91  4 15 22 57  0.0020000  0  3G 2G19G 6
  21491962.541   -12313242.076 8  -9594684.56923
  22985134.9084   10391876.83146   8097555.02361
  22383658.3304  -12008710.83347  -9209008.42962
 91  4 15 22 57 15.0020000  0  3G 2G19G 6
  21492079.369   -12312619.647 8  -9594199.54223
  22991732.7444   10426563.87346   8124583.82161
  22379448.1434  -12030832.83047  -9226246.29362
 91  4 15 22 57 30.0020000  0  3G 2G19G 6
  21492212.705   -12311932.677 8  -9593664.21723
  22998346.768    10461320.052 6   8151666.51421
  22375244.4474  -12052924.59047  -9243460.59362
 91  4 15 22 57 45.0020000  0  3G 2G19G 6
  21492356.0414  -12311181.80348  -9593079.09663
  23004976.7524   10496144.99546   8178802.76661
  22371047.2994  -12074986.42347  -9260651.56862
 91  4 15 22 58  0.0020000  0  3G 2G19G 6
  21492509.689   -12310368.961 8  -9592445.69123
  23011615.463    10531036.875 6   8205991.17421
  22366852.1504  -12097020.16247  -9277820.65562
 91  4 15 22 58 15.0020000  0  2G19G 6
  23018269.955    10565995.520 6   8233231.60421
  22362667.0804  -12119025.75347  -9294967.81562
 91  4 15 22 58 30.0020000  0  3G 2G19G 6
  21492852.5574         -0.90358
  23024934.2134   10601022.26946   8260525.11361
  22358484.8614  -12141001.59647  -9312091.78662
 91  4 15 22 58 45.0020000  0  3G 2G19G 6
  21493046.0024       1004.58548
  23031614.502    10636122.228 6   8287875.66321
  22354308.799   -12162942.416 7  -9329188.47322
 91  4 15 22 59  0.0020000  0  3G 2G19G 6
  21493247.861        2074.363 8        -0.02233
  23038305.525    10671291.671 6   8315280.36421
  22350139.9324  -12184851.78547  -9346260.64662
 91  4 15 22 59 15.0020000  0  3G 2G19G 6
  21493464.283        3208.527 8       883.76523
  23045014.7834   10706530.70946   8342739.28961
  22345975.643   -12206729.396 7  -9363308.08322
 91  4 15 22 59 30.0020000  0  3G 2G19G 6
  21493690.463        4402.456 8      1814.12324
  23051729.627    10741834.984 6   8370249.05821
  22341817.8304  -12228579.35947  -9380333.97462
 91  4 15 22 59 45.0020000  0  3G 2G19G 6
  21493928.760        5657.953 8      2792.45223
  23058458.1354   10777206.29546   8397811.05261
  22337665.229   -12250399.839 7  -9397336.90222
 91  4 15 23  0  0.0020000  0  3G 2G19G 6
  21494181.643        6976.722 8      3820.08223
  23065206.4084   10812646.59346   8425426.79861
  22333519.955   -12272188.592 7  -9414315.10522
 91  4 15 23  0 15.0020000  0  3G 2G19G 6
  21494443.439        8354.280 8      4893.52723
  23071961.0494   10848151.22346   8453092.68261
  22329380.900   -12293950.065 7  -9431272.05522
 91  4 15 23  0 30.0020000  0  3G 2G19G 6
  21494717.049        9790.501 8      6012.68524
  23078729.2994   10883720.15146   8480808.67461
  22325243.314   -12315684.116 7  -9448207.63522
 91  4 15 23  0 45.0020000  0  3G 2G19G 6
  21495002.643       11288.700 8      7180.13724
  23085510.557    10919356.720 6   8508577.34921
  22321114.588   -12337387.251 7  -9465119.12522
 91  4 15 23  1  0.0020000  0  3G 2G19G 6
  21495297.9244      12847.40648      8394.73864
  23092305.8934   10955059.76146   8536397.83561
  22316987.713   -12359060.568 7  -9482007.38022
 91  4 15 23  1 15.0020000  0  3G 2G19G 6
  21495607.338       14472.090 8      9660.74524
  23099115.5024   10990834.79746   8564274.43061
  22312872.400   -12380698.289 7  -9498867.89522
 91  4 15 23  1 30.0020000  0  3G 2G19G 6
  21495928.408       16158.619 8     10974.94524
  23105937.643    11026677.642 6   8592203.84121
  22308760.236   -12402304.314 7  -9515703.71622
 91  4 15 23  1 45.0020000  0  3G 2G19G 6
  21496261.314       17906.257 8     12336.76324
  23112768.111    11062587.687 6   8620185.61721
  22304653.830   -12423879.113 7  -9532515.20222
 91  4 15 23  2  0.0020000  0  3G 2G19G 6
  21496607.064       19713.036 8     13744.66523
  23119615.7834   11098562.99646   8648218.26561
  22300552.744   -12445424.625 7  -9549303.87122
 91  4 15 23  2 15.0020000  0  3G 2G19G 6
  21496960.729       21582.513 8     15201.42023
  23126474.1504   11134607.34146   8676304.70161
  22296459.3934  -12466936.62147  -9566066.42962
 91  4 15 23  2 30.0020000  0  3G 2G19G 6
  21497327.682       23511.476 8     16704.53124
  23133346.6274   11170717.44846   8704442.38661
  22292374.1894  -12488418.31047  -9582805.36662
 91  4 15 23  2 45.0020000  0  3G 2G19G 6
  21497704.986       25503.171 8     18256.52123
  23140229.338    11206896.708 6   8732633.93521
  22288290.424   -12509866.104 7  -9599517.88822
 91  4 15 23  3  0.0020000  0  3G 2G19G 6
  21498098.330       27555.796 8     19855.98823
  23147131.6274   11243143.23346   8760877.92261
  22284215.3464  -12531281.60647  -9616205.24962
 91  4 15 23  3 15.0020000  0  3G 2G19G 6
  21498497.0024      29665.87948     21500.23963
  23154033.9324   11279453.78446   8789171.79661
  22280145.252   -12552667.884 7  -9632869.83422
 91  4 15 23  3 30.0020000  0  3G 2G19G 6
  21498911.0184      31836.37948     23191.55864
  23160958.6194   11315831.41646   8817517.94061
  22276082.3694  -12574021.76447  -9649509.17962
 91  4 15 23  3 45.0020000  0  4G13G 2G19G 6
  24713170.8384         -0.95054
  21499334.393       34060.805 8     24924.90324
  23167891.291    11352269.624 6   8845911.27621
  22272024.580   -12595349.551 7  -9666128.18822
 91  4 15 23  4  0.0020000  0  4G13G 2G19G 6
  24702614.1434     -55475.93745
  21499768.299       36342.232 8     26702.65824
  23174840.4084   11388771.45346   8874354.19161
  22267969.6894  -12616647.90547  -9682724.26562
 91  4 15 23  4 15.0020000  0  4G13G 2G19G 6
  24692065.9394    -110928.42545
  21500214.471       38678.382 8     28523.05823
  23181798.6504   11425334.55546   8902844.84761
  22263923.635   -12637918.973 7  -9699299.08122
 91  4 15 23  4 30.0020000  0  4G13G 2G19G 6
  24681513.4714    -166357.41444        -0.13771
  21500668.463       41069.343 8     30386.16424
  23188765.416    11461959.514 6   8931383.70421
  22259879.697   -12659162.064 7  -9715852.09522
 91  4 15 23  4 45.0020000  0  4G13G 2G19G 6
  24670971.4864    -221761.59444    -43171.95161
  21501135.650       43516.064 8     32292.72124
  23195747.6744   11498647.16746   8959971.42061
  22255840.002   -12680376.082 7  -9732382.45322
 91  4 15 23  5  0.0020000  0  4G13G 2G19G 6
  24660438.0024    -277142.32844    -86325.46761
  21501610.236       46016.683 8     34241.28024
  23202742.4474   11535395.87346   8988606.71161
  22251810.3384  -12701562.57847  -9748891.36762
 91  4 15 23  5 15.0020000  0  4G13G 2G19G 6
  24649896.322     -332500.372 4   -129461.31421
  21502095.127       48570.148 8     36231.00824
  23209750.088    11572204.443 6   9017288.63221
  22247785.057   -12722722.347 7  -9765379.45722
 91  4 15 23  5 30.0020000  0  4G13G 2G19G 6
  24639368.682     -387834.025 3
  21502592.049       51177.566 8     38262.78124
  23216761.1434   11609074.19946   9046018.22061
  22243762.3144  -12743854.09147  -9781845.71062
 91  4 15 23  5 45.0020000  0  4G13G 2G19G 6
  24628844.8384    -443141.98944
  21503098.627       53839.773 8     40337.25524
  23223788.5254   11646006.01946   9074796.19261
  22239748.2684  -12764956.65847  -9798289.22762
 91  4 15 23  6  0.0020000  0  4G13G 2G19G 6
  24618325.3144    -498425.78645
  21503614.838       56554.661 8     42452.77424
  23230827.6114   11682997.79346   9103620.89461
  22235737.1504  -12786031.82047  -9814711.39062
 91  4 15 23  6 15.0020000  0  4G13G 2G19G 6
  24607812.0104    -553683.40145        -0.08271
  21504142.463       59324.003 8     44610.72424
  23237879.924    11720051.254 6   9132493.64421
  22231731.807   -12807077.721 7  -9831110.75022
 91  4 15 23  6 30.0020000  0  4G13G 2G19G 6
  24597298.0884    -608915.30245    -43037.65261
  21504681.275       62146.784 8     46810.31424
  23244941.7294   11757165.57146   9161413.80561
  22227731.979   -12828094.927 7  -9847487.75923
 91  4 15 23  6 45.0020000  0  4G13G 2G19G 6
  24586790.2604    -664117.23145    -86051.86461
  21505226.689       65026.757 8     49054.47124
  23252014.6044   11794344.44546   9190384.29761
  22223740.080   -12849079.500 7  -9863839.32623
 91  4 15 23  7  0.0020000  0  4G13G 2G19G 6
  24576295.713     -719292.008 5   -129044.89421
  21505784.463       67960.590 8     51340.59824
  23259103.4864   11831584.73346   9219402.64761
  22219752.611   -12870034.479 7  -9880167.83723
 91  4 15 23  7 15.0020000  0  4G13G 2G19G 6
  24565803.580     -774438.708 4   -172016.07521
  21506353.088       70948.674 8     53668.99224
  23266201.447    11868886.895 6   9248469.19221
  22215772.150   -12890959.069 7  -9896472.66523
 91  4 15 23  7 30.0020000  0  4G13G 2G19G 6
  24555312.807     -829560.684 4   -214967.94721
  21506933.424       73987.510 8     56036.93324
  23273310.963    11906247.314 6   9277581.12221
  22211793.932   -12911856.737 7  -9912756.51423
 91  4 15 23  7 45.0020000  0  4G13G 2G19G 6
  24544824.650     -884653.794 4   -257897.36721
  21507521.432       77080.425 8     58447.01623
  23280432.174    11943669.541 6   9306741.23421
  22207823.213   -12932723.597 7  -9929016.35422
 91  4 15 23  8  0.0020000  0  5G13G 2G15G19G 6
  24534344.7294    -939717.88545   -300804.09461
  21508119.369       80227.027 8     60898.93423
  24928883.6114         -0.05755
  23287569.1584   11981153.34146   9335949.32161
  22203857.361   -12953559.882 7  -9945252.36923
 91  4 15 23  8 15.0020000  0  5G13G 2G15G19G 6
  24523873.611     -994749.665 4   -343685.79121
  21508728.525       83430.312 8     63395.01723
  24925298.3774     -18842.80545
  23294713.229    12018701.732 6   9365207.72021
  22199900.752   -12974362.337 7  -9961462.01923
 91  4 15 23  8 30.0020000  0  5G13G 2G15G19G 6
  24513401.2994   -1049752.77545   -386545.09961
  21509350.025       86686.326 8     65932.19024
  24921728.3544     -37599.57545
  23301867.572    12056310.758 6   9394513.37121
  22195946.2834  -12995134.72547  -9977648.23562
 91  4 15 23  8 45.0020000  0  5G13G 2G15G19G 6
  24502945.760    -1104729.288 5   -429383.64021
  21509978.182       89992.606 8     68508.52723
  24918175.4004     -56272.60645
  23309035.533    12093977.937 6   9423864.34721
  22191998.721   -13015879.200 7  -9993812.70822
 91  4 15 23  9  0.0020000  0  5G13G 2G15G19G 6
  24492491.0644   -1159674.96245   -472198.16561
  21510618.736       93352.765 8     71126.85323
  24914641.9394     -74858.00945        -0.28171
  23316216.416    12131706.906 6   9453263.46021
  22188056.689   -13036591.896 7 -10009952.41422
 91  4 15 23  9 15.0020000  0  5G13G 2G15G19G 6
  24482038.236    -1214584.515 5   -514984.58021
  21511266.557       96771.460 8     73790.78823
  24911120.018      -93350.107 5    -14409.57321
  23323407.768    12169502.366 6   9482714.39421
  22184124.025   -13057267.801 7 -10026063.45322
 91  4 15 23  9 30.0020000  0  5G13G 2G15G19G 6
  24471598.5104   -1269462.98345   -557746.72161
  21511929.932      100243.428 8     76496.23123
  24907618.564     -111754.061 5    -28750.21921
  23330610.4164   12207359.26046   9512213.19261
  22180194.354   -13077911.851 7 -10042149.68222
 91  4 15 23  9 45.0020000  0  5G13G 2G15G19G 6
  24461158.166    -1324310.284 4   -600484.56021
  21512598.314      103768.125 8     79242.76523
  24904136.416     -130070.087 6    -43022.32021
  23337827.768    12245277.203 6   9541759.55521
  22176272.150   -13098524.387 7 -10058211.34722
 91  4 15 23 10  0.0020000  0  5G13G 2G15G19G 6
  24450725.8144   -1379122.03345   -643194.73661
  21513280.143      107349.657 8     82033.58023
  24900665.1354    -148293.78845    -57222.46961
  23345056.229    12283260.277 6   9571356.67621
  22172357.596   -13119101.034 7 -10074245.05022
 91  4 15 23 10 15.0020000  0  5G13G 2G15G19G 6
  24440307.018    -1433899.632 5   -685878.32121
  21513973.533      110985.942 8     84867.06723
  24897214.3144    -166426.84545    -71352.01161
  23352295.1194   12321306.32046   9601002.88561
  22168447.338   -13139643.675 7 -10090252.25622
 91  4 15 23 10 30.0020000  0  5G13G 2G15G19G 6
  24429889.080    -1488639.891 5   -728532.78621
  21514676.432      114679.633 8     87745.28323
  24893778.4554    -184465.96645    -85408.38161
  23359545.158    12359418.144 6   9630700.31721
  22164543.244   -13160149.266 7 -10106230.59422
 91  4 15 23 10 45.0020000  0  5G13G 2G15G19G 6
  24419474.8694   -1543345.14745   -771159.98961
  21515389.846      118428.121 8     90666.20223
  24890362.1354    -202413.54545    -99393.41061
  23366810.5254   12397592.82846   9660446.76661
  22160647.885   -13180620.172 7 -10122181.90022
 91  4 15 23 11  0.0020000  0  5G13G 2G15G19G 6
  24409076.260    -1598014.692 5   -813759.35621
  21516111.963      122231.581 8     93629.95223
  24886969.705     -220268.972 5   -113306.61421
  23374092.3774   12435830.90546   9690242.57561
  22156758.416   -13201055.868 7 -10138105.76722
 91  4 15 23 11 15.0020000  0  5G13G 2G15G19G 6
  24398676.221    -1652650.265 5   -856332.25521
  21516847.377      126087.751 8     96634.77923
  24883585.5414    -238034.01945   -127149.40561
  23381379.119    12474130.341 6   9720086.22221
  22152876.424   -13221458.420 7 -10154003.81422
 91  4 15 23 11 30.0020000  0  5G13G 2G15G19G 6
  24388284.7364   -1707254.14545   -898880.46661
  21517589.041      129993.861 8     99678.51823
  24880217.8074    -255710.98045   -140923.56761
  23388676.7364   12512488.39846   9749975.54361
  22149000.713   -13241830.091 7 -10169877.79323
 91  4 15 23 11 45.0020000  0  5G13G 2G15G19G 6
  24377903.1664   -1761825.87045   -941403.60961
  21518342.9164     133949.90948    102761.15864
  24876870.213     -273299.622 5   -154628.90621
  23395990.221    12550905.050 6   9779910.52521
  22145129.908   -13262170.850 7 -10185727.68923
 91  4 15 23 12  0.0020000  0  5G13G 2G15G19G 6
  24367525.8934   -1816356.73645   -983894.94661
  21519106.260      137964.283 8    105889.25623
  24873546.1044    -290791.29545   -168258.71561
  23403313.3774   12589388.63346   9809897.65561
  22141268.307   -13282471.899 7 -10201546.63423
 91  4 15 23 12 15.0020000  0  5G13G 2G15G19G 6
  24357151.2684   -1870850.31945  -1026357.19861
  21519881.893      142033.007 8    109059.70624
  24870239.8224    -308189.42945   -181815.58961
  23410646.463    12627935.237 6   9839933.88921
  22137412.627   -13302736.967 7 -10217337.55223
 91  4 15 23 12 30.0020000  0  5G13G 2G15G19G 6
  24346791.7524   -1925305.47345  -1068789.49661
  21520665.252      146156.891 8    112273.14023
  24866950.111     -325492.694 5   -195298.54021
  23417993.518    12666545.664 6   9870019.85921
  22133561.916   -13322965.103 7 -10233099.68823
 91  4 15 23 12 45.0020000  0  5G13G 2G15G19G 6
  24336435.260    -1979722.292 5  -1111191.93521
  21521460.018      150335.112 8    115528.91324
  24863670.080     -342701.464 5   -208707.89221
  23425353.346    12705219.265 6   9900155.06521
  22129719.330   -13343156.665 7 -10248833.32123
 91  4 15 23 13  0.0020000  0  5G13G 2G15G19G 6
  24326083.307    -2034101.365 5  -1153564.98321
  21522265.658      154566.560 8    118826.16023
  24860416.2364    -359816.81345   -222044.42461
  23432722.150    12743954.918 6   9930338.61921
  22125883.455   -13363312.476 7 -10264539.09922
 91  4 15 23 13 15.0020000  0  5G13G 2G15G19G 6
  24315739.424    -2088441.429 4  -1195907.66821
  21523081.314      158852.109 8    122165.56824
  24857175.2054    -376837.14045   -235306.91661
  23440105.518    12782753.469 6   9960571.17421
  22122054.760   -13383431.385 7 -10280216.12023
 91  4 15 23 13 30.0020000  0  5G13G 2G15G19G 6
  24305414.682    -2142740.724 5  -1238218.51821
  21523908.119      163192.927 8    125548.03824
  24853954.4244    -393760.89945   -248494.18261
  23447500.447    12821616.266 6   9990853.80221
  22118233.002   -13403511.993 7 -10295863.29222
 91  4 15 23 13 45.0020000  0  5G13G 2G15G19G 6
  24295085.424    -2197001.670 5  -1280499.54321
  21524741.627      167586.178 8    128971.37023
  24850748.9944    -410590.57145   -261608.11961
  23454910.502    12860540.523 6  10021184.33721
  22114420.057   -13423556.811 7 -10311482.57823
 91  4 15 23 14  0.0020000  0  5G13G 2G15G19G 6
  24284768.682    -2251222.939 5  -1322749.62021
  21525591.072      172032.882 8    132436.35224
  24847568.463     -427324.922 5   -274647.77521
  23462329.1664   12899527.34946  10051563.60161
  22110611.104   -13443564.724 7 -10327073.10423
 91  4 15 23 14 15.0020000  0  5G13G 2G15G19G 6
  24274455.2914   -2305403.44044  -1364967.93161
  21526445.268      176533.376 8    135943.24224
  24844399.018     -443963.060 5   -287612.46821
  23469756.072    12938577.225 6  10081991.99121
  22106811.986   -13463534.770 7 -10342634.12723
 91  4 15 23 14 30.0020000  0  5G13G 2G15G19G 6
  24264156.5414   -2359541.54145  -1407153.17261
  21527313.229      181088.764 8    139492.90823
  24841248.4794    -460503.40545   -300500.97661
  23477207.3224   12977691.14246  10112470.30361
  22103020.385   -13483465.689 7 -10358164.66423
 91  4 15 23 14 45.0020000  0  5G13G 2G15G19G 6
  24253864.486    -2413640.217 5  -1449307.73721
  21528188.244      185695.827 8    143082.85224
  24838122.7754    -476948.85145   -313315.48461
  23484660.994    13016865.949 6  10142996.05421
  22099232.080   -13503360.384 7 -10373666.97823
 91  4 15 23 15  0.0020000  0  5G13G 2G15G19G 6
  24243573.6194   -2467694.55945  -1491427.72561
  21529076.721      190359.079 8    146716.57423
  24835012.0104    -493294.69045   -326052.42761
  23492128.049    13056106.111 6  10173572.72021
  22095456.393   -13523214.107 7 -10389137.36523
 91  4 15 23 15 15.0020000  0  5G13G 2G15G19G 6
  24233294.9164   -2521706.47645  -1533514.66261
  21529975.541      195076.251 8    150392.31323
  24831920.580     -509542.733 5   -338713.19221
  23499603.580    13095409.370 6  10204198.56121
  22091683.666   -13543028.890 7 -10404577.40823
 91  4 15 23 15 30.0020000  0  5G13G 2G15G19G 6
  24223023.057    -2575676.315 5  -1575568.83421
  21530881.455      199846.383 8    154109.32124
  24828845.2134    -525693.53745   -351298.09761
  23507097.3934   13134774.88046  10234872.92661
  22087923.150   -13562805.289 7 -10419987.54423
 91  4 15 23 15 45.0020000  0  5G13G 2G15G19G 6
  24212765.096    -2629600.928 5  -1617587.78421
  21531799.377      204672.260 8    157869.76624
  24825792.6354    -541744.18046   -363805.02561
  23514600.689    13174205.270 6  10265597.82321
  22084167.549   -13582540.470 7 -10435365.56022
 91  4 15 23 16  0.0020000  0  5G13G 2G15G19G 6
  24202510.416    -2683479.064 5  -1659570.46621
  21532728.8224     209554.59048    161674.18664
  24822755.275     -557693.093 5   -376232.66421
  23522115.791    13213701.423 6  10296373.96621
  22080416.994   -13602233.195 7 -10450710.49922
 91  4 15 23 16 15.0020000  0  5G13G 2G15G19G 6
  24192267.9634   -2737315.08745  -1701520.39361
  21533669.018      214488.421 8    165518.75024
  24819739.666     -573544.827 5   -388584.59121
  23529638.1114   13253258.48646  10327197.57461
  22076677.158   -13621888.116 7 -10466025.97522
 91  4 15 23 16 30.0020000  0  5G13G 2G15G19G 6
  24182028.5644   -2791106.46845  -1743435.49861
  21534616.330      219475.948 8    169405.15324
  24816740.5884    -589297.04245   -400858.94561
  23537183.7294   13292878.73646  10358070.43061
  22072944.064   -13641502.827 7 -10481310.11822
 91  4 15 23 16 45.0020000  0  5G13G 2G15G19G 6
  24171798.6114   -2844853.02245  -1785315.65161
  21535577.619      224516.619 8    173332.96124
  24813766.189     -604949.849 5   -413055.86721
  23544733.236    13332561.784 6  10388992.20321
  22069220.518   -13661077.455 7 -10496563.02322
 91  4 15 23 17  0.0020000  0  5G13G 2G15G19G 6
  24161583.369    -2898554.090 5  -1827160.41121
  21536546.908      229610.907 8    177302.55524
  24810804.9394    -620502.57745   -425174.79961
  23552295.2754   13372307.80046  10419963.03361
  22065502.736   -13680611.464 7 -10511784.28023
 91  4 15 23 17 15.0020000  0  5G13G 2G15G19G 6
  24151376.494    -2952210.191 5  -1868970.07621
  21537525.619      234757.968 8    181313.26924
  24807862.588     -635955.675 5   -437216.07321
  23559871.955    13412115.956 5  10450982.30221
  22061793.447   -13700105.502 7 -10526974.38723
 91  4 15 23 17 30.0020000  0  5G13G 2G15G19G 6
  24141170.0414   -3005821.99145  -1910745.26261
  21538515.400      239956.592 8    185364.15824
  24804942.127     -651309.956 5   -449180.35921
  23567460.455    13451985.038 6  10482049.05021
  22058090.314   -13719560.411 7 -10542134.00722
 91  4 15 23 17 45.0020000  0  5G13G 2G15G19G 6
  24130977.619    -3059386.173 5  -1952483.30821
  21539513.682      245209.456 8    189457.31324
  24802037.5104    -666562.21545   -461065.19961
  23575060.0804   13491918.19746  10513165.70261
  22054398.674   -13738973.028 7 -10557260.67023
 91  4 15 23 18  0.0020000  0  5G13G 2G15G19G 6
  24120799.549    -3112902.490 5  -1994184.07621
  21540524.705      250516.319 8    193592.53924
  24799153.322     -681712.300 5   -472870.35021
  23582668.1274   13531914.94945  10544331.91861
  22050712.197   -13758343.301 7 -10572354.33622
 91  4 15 23 18 15.0020000  0  5G13G 2G15G19G 6
  24110618.0494   -3166369.54545  -2035846.45161
  21541545.705      255878.245 8    197770.68324
  24796296.510     -696758.887 5   -484594.88021
  23590288.4244   13571976.43045  10575548.59161
  22047031.8074  -13777669.88747 -10587413.97062
 91  4 15 23 18 30.0020000  0  5G13G 2G15G19G 6
  24100447.127    -3219788.123 5  -2077471.11921
  21542574.869      261293.967 8    201990.74324
  24793449.2444    -711702.74145   -496239.36161
  23597927.557    13612101.428 6  10606814.74021
  22043364.096   -13796953.844 7 -10602440.39522
 91  4 15 23 18 45.0020000  0  5G13G 2G15G19G 6
  24090294.299    -3273161.222 5  -2119060.27221
  21543615.0334     266760.01548    206250.00764
  24790624.8144    -726546.97445   -507806.20261
  23605574.6354   13652286.40146  10638127.61861
  22039700.2444  -13816198.33247 -10617436.05362
 91  4 15 23 19  0.0020000  0  5G13G 2G15G19G 6
  24080152.9164   -3326486.41945  -2160612.13761
  21544663.736      272278.561 8    210550.18724
  24787815.557     -741289.228 5   -519293.58021
  23613230.713    13692533.429 6  10669488.86421
  22036046.1974  -13835401.05947 -10632399.19262
 91  4 15 23 19 15.0020000  0  5G13G 2G15G19G 6
  24070013.7364   -3379765.64745  -2202128.17261
  21545724.150      277846.940 8    214889.19524
  24785034.2834    -755931.72045   -530703.24361
  23620901.9324   13732840.00146  10700896.52461
  22032400.2444  -13854564.22747 -10647331.49262
 91  4 15 23 19 30.0020000  0  5G13G 2G15G19G 6
  24059880.736    -3432998.623 5  -2243608.13421
  21546792.666      283464.851 8    219266.80024
  24782257.268     -770474.358 4   -542035.09321
  23628589.580    13773205.984 6  10732350.45321
  22028761.7684  -13873687.73647 -10662232.89262
 91  4 15 23 19 45.0020000  0  5G13G 2G15G19G 6
  24049761.4794   -3486183.09745  -2285050.36461
  21547873.736      289134.314 8    223684.57923
  24779521.6974    -784914.50845   -553287.09261
  23636280.338    13813633.581 6  10763852.39021
  22025130.9324  -13892769.28247 -10677101.58763
 91  4 15 23 20  0.0020000  0  5G13G 2G15G19G 6
  24039649.385    -3539319.465 5  -2326455.07121
  21548959.908      294854.511 8    228141.88724
  24776778.182     -799252.994 4   -564459.84721
  23643982.9634   13854121.82246  10795401.59961
  22021507.791   -13911809.535 7 -10691938.10723
 91  4 15 23 20 15.0020000  0  5G13G 2G15G19G 6
  24029544.846    -3592403.402 5  -2367818.93421
  21550060.5884     300629.11248    232641.58764
  24774078.299     -813485.639 4   -575550.17321
  23651698.2604   13894674.37746  10827000.90861
  22017892.533   -13930804.405 7 -10706739.25823
 91  4 15 23 20 30.0020000  0  5G13G 2G15G19G 6
  24019454.8224   -3645439.11945  -2409145.20761
  21551169.174      306453.409 8    237180.01423
  24771392.3144    -827616.82545   -586561.41761
  23659430.111    13935286.574 5  10858646.69321
  22014285.229   -13949758.363 7 -10721508.53223
 91  4 15 23 20 45.0020000  0  5G13G 2G15G19G 6
  24009375.7604   -3698423.52445  -2450431.50361
  21552288.072      312330.254 8    241759.39223
  24768722.2604    -841643.12645   -597490.90161
  23667165.814    13975961.421 5  10890341.29421
  22010687.8694  -13968668.20147 -10736243.43563
 91  4 15 23 21  0.0020000  0  5G13G 2G15G19G 6
  23999302.330    -3751356.679 5  -2491677.86021
  21553415.033      318259.211 8    246379.37223
  24766071.2914    -855564.80345   -608338.89961
  23674916.861    14016698.327 5  10922084.27021
  22007098.0414  -13987534.16647 -10750944.14763
 91  4 15 23 21 15.0020000  0  5G13G 2G15G19G 6
  23989237.9004   -3804240.44445  -2532885.73061
  21554553.510      324237.876 8    251038.08923
  24763446.447     -869383.934 5   -619106.96921
  23682688.9554   14057495.03646  10953873.80461
  22003515.3614  -14006358.23347 -10765612.22163
 91  4 15 23 21 30.0020000  0  5G13G 2G15G19G 6
  23979181.9864   -3857072.03245  -2574052.94661
  21555700.244      330268.519 8    255737.31523
  24760834.3144    -883097.77245   -629792.98061
  23690452.9554   14098353.65045  10985711.61061
  21999942.5884  -14025137.90347 -10780245.69763
 91  4 15 23 21 45.0020000  0  5G13G 2G15G19G 6
  23969143.5024   -3909851.74846  -2615179.74261
  21556858.760      336350.426 8    260476.47924
  24758242.377     -896706.822 5   -640397.36921
  23698246.7834   14139273.50045  11017597.13561
  21996376.4554  -14043873.64747 -10794844.93963
 91  4 15 23 22  0.0020000  0  5G13G 2G15G19G 6
  23959103.979    -3962584.109 5  -2656269.65921
  21558024.525      342478.649 8    265251.72824
  24755672.299     -910215.747 5   -650923.71721
  23706044.3934   14180249.76345  11049526.60361
  21992819.6194  -14062570.10147 -10809413.57363
 91  4 15 23 22 15.0020000  0  5G13G 2G15G19G 6
  23949074.814    -4015266.151 5  -2697320.32521
  21559198.830      348655.451 8    270064.83224
  24753125.580     -923621.782 5   -661369.88821
  23713850.2834   14221284.76745  11081501.83061
  21989267.8774  -14081224.59147 -10823949.50163
 91  4 15 23 22 30.0020000  0  5G13G 2G15G19G 6
  23939060.963    -4067891.454 5  -2738326.80121
  21560385.760      354887.052 8    274920.63724
  24750588.8304    -936918.51445   -671730.88961
  23721676.7444   14262384.60346  11113527.59561
  21985726.0334  -14099830.84547 -10838447.85063
 91  4 15 23 22 45.0020000  0  5G13G 2G15G19G 6
  23929057.5104   -4120463.86745  -2779292.07961
  21561580.018      361169.078 8    279815.74224
  24748079.080     -950109.530 5   -682009.52821
  23729503.9794   14303545.05945  11145600.58261
  21982195.6274  -14118392.71647 -10852911.61063
 91  4 15 23 23  0.0020000  0  5G13G 2G15G19G 6
  23919065.7994   -4172981.92545  -2820215.00461
  21562786.650      367502.425 8    284750.83324
  24745589.5884    -963193.63245   -692204.86461
  23737351.189    14344767.045 5  11177721.52821
  21978672.4634  -14136909.01247 -10867339.85763
 91  4 15 23 23 15.0020000  0  5G13G 2G15G19G 6
  23909083.557    -4225445.910 6  -2861095.75321
  21564000.174      373886.458 8    289725.42324
  24743120.619     -976171.349 5   -702317.27221
  23745210.3074   14386050.08645  11209890.04761
  21975158.0104  -14155380.13547 -10881732.90663
 91  4 15 23 23 30.0020000  0  5G13G 2G15G19G 6
  23899108.877    -4277854.494 5  -2901933.35921
  21565226.064      380321.988 8    294740.13824
  24740668.354     -989041.621 5   -712345.98021
  23753074.3304   14427394.79045  11242106.61361
  21971650.1824  -14173804.93147 -10896089.85763
 91  4 15 23 23 45.0020000  0  5G13G 2G15G19G 6
  23889146.221    -4330209.234 5  -2942728.98921
  21566458.955      386807.206 8    299793.57424
  24738242.1744   -1001806.07045   -722292.23361
  23760957.119    14468799.331 6  11274369.81521
  21968154.4004  -14192185.01747 -10910411.96663
 91  4 15 23 24  0.0020000  0  5G13G 2G15G19G 6
  23879195.8694   -4382507.05546  -2983480.30061
  21567701.760      393344.670 8    304887.71624
  24735836.221    -1014461.239 5   -732153.32821
  23768839.0884   14510266.32345  11306681.67161
  21964665.1274  -14210517.39347 -10924696.90063
 91  4 15 23 24 15.0020000  0  5G13G 2G15G19G 6
  23869252.268    -4434748.286 5  -3024187.48021
  21568958.119      399933.488 8    310021.87624
  24733442.8144   -1027007.92646   -741929.87261
  23776746.2294   14551794.87745  11339041.50261
  21961184.8854  -14228802.69747 -10938945.15763
 91  4 15 23 24 30.0020000  0  5G13G 2G15G19G 6
  23859319.5104   -4486932.92545  -3064850.57561
  21570219.682      406573.176 8    315195.67124
  24731077.518    -1039446.557 5   -751622.21521
  23784662.510    14593384.628 5  11371449.00321
  21957715.5184  -14247041.05947 -10953156.83163
 91  4 15 23 24 45.0020000  0  5G13G 2G15G19G 6
  23849402.174    -4539058.097 5  -3105467.34821
  21571493.1194     413266.41548    320411.19864
  24728734.8074   -1051773.78446   -761227.79561
  23792585.7684   14635038.18745  11403906.23161
  21954253.9794  -14265229.60347 -10967329.68763
 91  4 15 23 25  0.0020000  0  5G13G 2G15G19G 6
  23839487.8074   -4591127.15345  -3146040.40661
  21572776.939      420009.086 8    325665.24024
  24726410.8934   -1063993.38146   -770749.47561
  23800523.7524   14676751.51046  11436410.03161
  21950800.9634  -14283372.04247 -10981466.61363
 91  4 15 23 25 15.0020000  0  5G13G 2G15G19G 6
  23829593.096    -4643136.294 5  -3186566.76021
  21574069.7834     426804.55948    330960.42264
  24724107.9944   -1076101.62246   -780184.36761
  23808474.986    14718527.884 6  11468962.95821
  21947357.0804  -14301464.70347 -10995564.75363
 91  4 15 23 25 30.0020000  0  5G13G 2G15G19G 6
  23819708.830    -4695086.579 5  -3227047.26221
  21575373.455      433651.685 8    336295.85024
  24721823.838    -1088099.470 5   -789533.25621
  23816437.7054   14760366.11245  11501564.08361
  21943924.064   -14319508.664 7 -11009624.93323
 91  4 15 23 25 45.0020000  0  5G13G 2G15G19G 6
  23809835.8854   -4746978.79646  -3267482.51061
  21576685.510      440549.065 8    341670.44024
  24719558.182    -1099988.005 5   -798796.97021
  23824409.3774   14802264.76445  11534212.28861
  21940498.869   -14337504.930 7 -11023647.94923
 91  4 15 23 26  0.0020000  0  5G13G 2G15G19G 6
  23799971.932    -4798811.659 6  -3307871.50421
  21578008.3384     447497.28548    347084.65264
  24717318.104    -1111766.023 5   -807974.57121
  23832394.541    14844224.821 5  11566908.34621
  21937082.6354  -14355452.42147 -11037632.96863
 91  4 15 23 26 15.0020000  0  5G13G 2G15G19G 6
  23790116.2524   -4850585.11945  -3348214.21961
  21579340.174      454496.120 8    352538.30224
  24715098.3384   -1123433.43745   -817065.96661
  23840389.2684   14886245.77145  11599651.84761
  21933678.166   -14373351.143 7 -11051579.97923
 91  4 15 23 26 30.0020000  0  5G13G 2G15G19G 6
  23780277.6194   -4902299.83245  -3388511.16661
  21580681.3614     461544.49348    358030.54764
  24712898.6354   -1134990.97345   -826071.73961
  23848401.299    14928326.542 5  11632441.95921
  21930282.643   -14391201.911 7 -11065489.62223
 91  4 15 23 26 45.0020000  0  5G13G 2G15G19G 6
  23770446.6584   -4953950.62345  -3428758.28261
  21582033.6974     468647.18248    363565.11464
  24710721.479    -1146433.562 5   -834987.99421
  23856420.924    14970471.955 6  11665282.44121
  21926893.8464  -14408999.70047 -11079357.99363
 91  4 15 23 27  0.0020000  0  5G13G 2G15G19G 6
  23760629.7604   -5005548.54546  -3468964.21161
  21583391.9864     475792.69748    369133.05864
  24708557.346    -1157772.634 6   -843823.54621
  23864452.5414   15012670.54246  11698164.36861
  21923515.3544  -14426755.60047 -11093193.72363
 91  4 15 23 27 15.0020000  0  5G13G 2G15G19G 6
  23750822.6584   -5057084.57946  -3509121.94461
  21584763.2524     482989.45448    374740.92464
  24706422.283    -1168999.450 6   -852571.58321
  23872492.4864   15054930.74046  11731094.29061
  21920145.7994  -14444460.93147 -11106990.04563
 91  4 15 23 27 30.0020000  0  5G13G 2G15G19G 6
  23741026.9554   -5108558.66546  -3549231.36261
  21586140.5964     490237.07648    380388.42764
  24704306.8544   -1180114.09646   -861232.27661
  23880543.674    15097251.965 5  11764071.78221
  21916786.471   -14462115.919 7 -11120747.13523
 91  4 15 23 27 45.0020000  0  5G13G 2G15G19G 6
  23731244.166    -5159970.348 5  -3589292.19421
  21587529.4944     497535.43048    386075.46564
  24702218.416    -1191116.139 6   -869805.22221
  23888610.291    15139634.494 5  11797097.04821
  21913435.0334  -14479720.13447 -11134464.66563
 91  4 15 23 28  0.0020000  0  5G13G 2G15G19G 6
  23721475.236    -5211320.969 6  -3629305.43621
  21588926.7754     504882.91748    391800.78464
  24700147.4714   -1202007.01646   -878291.50861
  23896688.2214   15182076.43045  11830168.57861
  21910095.8464  -14497275.03847 -11148143.76863
 91  4 15 23 28 15.0020000  0  5G13G 2G15G19G 6
  23711712.924    -5262611.760 6  -3669272.06721
  21590336.5574     512277.76748    397563.00964
  24698094.0494   -1212788.14346   -886692.29361
  23904771.908    15224576.038 5  11863285.06221
  21906764.619   -14514781.943 7 -11161785.46623
 91  4 15 23 28 30.0020000  0  5G13G 2G15G19G 6
  23701961.666    -5313839.611 6  -3709189.63821
  21591752.0964     519722.63048    403364.21264
  24696063.299    -1223456.256 6   -895005.02421
  23912875.6584   15267136.16645  11896448.69761
  21903441.939   -14532237.905 7 -11175387.47023
 91  4 15 23 28 45.0020000  0  5G13G 2G15G19G 6
  23692226.260    -5365004.772 6  -3749058.36821
  21593178.8614     527216.84548    409203.86264
  24694051.9394   -1234011.86946   -903230.08361
  23920983.8224   15309756.02145  11929658.89761
  21900131.244   -14549643.327 7 -11188950.09223
 91  4 15 23 29  0.0020000  0  5G13G 2G15G19G 6
  23682503.0254   -5416106.02246  -3788877.31561
  21594614.674      534761.401 8    415082.74524
  24692067.9794   -1244453.79946   -911366.56861
  23929108.4474   15352436.65045  11962916.42361
  21896828.369   -14566996.995 7 -11202472.38823
 91  4 15 23 29 15.0020000  0  5G13G 2G15G19G 6
  23672794.4794   -5467143.34746  -3828646.44761
  21596057.9164     542355.75648    421000.43064
  24690100.4004   -1254782.05346   -919414.46461
  23937237.7364   15395177.55945  11996220.92461
  21893534.830   -14584299.069 7 -11215954.47723
 91  4 15 23 29 30.0020000  0  5G13G 2G15G19G 6
  23663092.8074   -5518115.04846  -3868364.42361
  21597513.7914     550000.85448    426957.65164
  24688153.869    -1264995.340 6   -927372.77521
  23945383.6194   15437979.76645  12029573.21161
  21890253.9164  -14601548.16547 -11229395.29263
 91  4 15 23 29 45.0020000  0  5G13G 2G15G19G 6
  23653405.166    -5569020.170 6  -3908030.53921
  21598979.6744     557697.54048    432955.07864
  24686237.3074   -1275092.64446   -935240.71261
  23953547.2524   15480844.04545  12062973.85261
  21886979.7134  -14618743.37747 -11242794.12563
 91  4 15 23 30  0.0020000  0  5G13G 2G15G19G 6
  23643730.9084   -5619859.58446  -3947645.44661
  21600452.361      565444.529 8    438991.70524
  24684336.3774   -1285074.91046   -943019.01661
  23961710.2604   15523768.97645  12096421.72461
  21883719.3144  -14635885.64147 -11256151.69463
 91  4 15 23 30 15.0020000  0  5G13G 2G15G19G 6
  23634067.549    -5670631.976 6  -3987208.12721
  21601936.8694     573242.90748    445068.36964
  24682457.471    -1294940.881 5   -950706.67821
  23969889.3224   15566755.46745  12129917.59461
  21880467.8384  -14652973.57947 -11269466.94163
 91  4 15 23 30 30.0020000  0  5G13G 2G15G19G 6
  23624420.111    -5721335.816 6  -4026717.40321
  21603431.0494     581093.49148    451185.72363
  24680604.189    -1304689.356 5   -958302.80221
  23978082.2604   15609804.54446  12163462.25161
  21877225.4004  -14670006.06947 -11282738.96863
 91  4 15 23 30 45.0020000  0  5G13G 2G15G19G 6
  23614781.768    -5771974.225 6  -4066175.69121
  21604932.5184     588992.72248    457340.96964
  24678770.650    -1314323.716 5   -965810.03121
  23986285.7604   15652912.35346  12197052.62261
  21873995.7214  -14686986.42847 -11295970.37963
 91  4 15 23 31  0.0020000  0  5G13G 2G15G19G 6
  23605159.096    -5822544.804 6  -4105581.12021
  21606445.979      596942.353 8    463535.49624
  24676959.729    -1323841.784 6   -973226.64421
  23994501.213    15696080.819 5  12230690.28621
  21870773.2604  -14703912.49247 -11309159.48763
 91  4 15 23 31 15.0020000  0  5G13G 2G15G19G 6
  23595549.0964   -5873048.48046  -4144934.41761
  21607968.8304     604941.31348    469768.45964
  24675170.4794   -1333244.43346   -980553.26161
  24002724.361    15739309.024 5  12264374.50021
  21867565.1114  -14720785.00947 -11322306.87163
 91  4 15 23 31 30.0020000  0  5G13G 2G15G19G 6
  23585948.9084   -5923486.14746  -4184236.28861
  21609499.2994     612988.08948    476038.68263
  24673398.447    -1342532.642 6   -987790.76221
  24010964.2364   15782595.58546  12298104.20361
  21864361.1114  -14737605.14447 -11335413.43463
 91  4 15 23 31 45.0020000  0  5G13G 2G15G19G 6
  23576363.533    -5973854.498 6  -4223484.15021
  21611040.3614     621085.64248    482348.46764
  24671659.5104   -1351703.08246   -994936.48961
  24019210.3074   15825943.24945  12331881.49261
  21861171.8934  -14754369.67247 -11348476.67263
 91  4 15 23 32  0.0020000  0  5G13G 2G15G19G 6
  23566790.439    -6024158.002 6  -4262681.48621
  21612590.6894     629229.05648    488693.99364
  24669935.2994   -1360760.54346  -1001994.19061
  24027471.1744   15869346.93145  12365702.45561
  21857991.7054  -14771083.27747 -11361500.23263
 91  4 15 23 32 15.0020000  0  5G13G 2G15G19G 6
  23557231.3934   -6074392.00846  -4301824.65661
  21614149.8774     637422.75148    495078.69864
  24668234.1744   -1369700.08345  -1008959.95261
  24035740.0574   15912811.33445  12399570.73561
  21854821.4004  -14787741.17247 -11374480.37863
 91  4 15 23 32 30.0020000  0  5G13G 2G15G19G 6
  23547691.4474   -6124560.13546  -4340916.48961
  21615717.3384     645662.23048    501499.07763
  24666553.752    -1378525.701 6  -1015836.98521
  24044021.572    15956331.974 5  12433482.82921
  21851662.6354  -14804347.39547 -11387420.26563
 91  4 15 23 32 45.0020000  0  5G13G 2G15G19G 6
  23538150.314    -6174658.719 6  -4379954.14221
  21617293.3614     653950.97348    507957.84264
  24664894.064    -1387234.058 6  -1022622.66121
  24052319.088    15999911.996 5  12467441.17121
  21848511.2684  -14820898.33747 -11400317.07563
 91  4 15 23 33  0.0020000  0  5G13G 2G15G19G 6
  23528628.963    -6224689.309 6  -4418938.80121
  21618882.0644     662286.92248    514453.39164
  24663262.119    -1395826.937 5  -1029318.33421
  24060619.713    16043549.404 5  12501444.26821
  21845373.7134  -14837395.78147 -11413172.19563
 91  4 15 23 33 15.0020000  0  5G13G 2G15G19G 6
  23519120.7444   -6274653.84746  -4457872.01161
  21620475.8464     670667.96048    520984.07364
  24661643.354    -1404306.315 5  -1035925.56321
  24068931.8694   16087242.00245  12535490.35461
  21842242.7914  -14853841.68847 -11425987.16463
 91  4 15 23 33 30.0020000  0  5G13G 2G15G19G 6
  23509629.729    -6324552.111 6  -4496753.54821
  21622077.6824     679093.70848    527549.60264
  24660052.588    -1412672.036 5  -1042444.21721
  24077263.736    16130989.693 5  12569579.37021
  21839124.1274  -14870235.86147 -11438761.81363
 91  4 15 23 33 45.0020000  0  5G13G 2G15G19G 6
  23500148.166    -6374379.827 6  -4535580.13521
  21623692.7524     687567.95748    534152.92364
  24658487.229    -1420919.999 5  -1048871.15821
  24085595.861    16174796.261 5  12603714.24121
  21836013.8694  -14886574.26247 -11451493.01163
 91  4 15 23 34  0.0020000  0  5G13G 2G15G19G 6
  23490679.4324   -6424137.18346  -4574351.88061
  21625313.7754     696090.07848    540793.54664
  24656939.6354   -1429050.59845  -1055206.62061
  24093939.932    16218660.870 5  12637894.37921
  21832916.400   -14902857.260 7 -11464181.03823
 91  4 15 23 34 15.0020000  0  5G13G 2G15G19G 6
  23481224.408    -6473826.977 6  -4613071.00921
  21626943.8074     704656.62948    547468.78364
  24655410.4474   -1437066.80345  -1061452.93361
  24102304.080    16262580.138 5  12672117.08521
  21829827.2754  -14919087.85247 -11476828.22563
 91  4 15 23 34 30.0020000  0  5G13G 2G15G19G 6
  23471781.697    -6523445.967 6  -4651734.96421
  21628584.1504     713270.81248    554181.13964
  24653910.369    -1444964.994 5  -1067607.30021
  24110669.916    16306557.099 5  12706384.72921
  21826749.1584  -14935262.65347 -11489431.93463
 91  4 15 23 34 45.0020000  0  5G13G 2G15G19G 6
  23462348.299    -6572996.199 6  -4690345.33221
  21630230.057      721930.117 8    560928.66224
  24652427.541    -1452747.685 5  -1073671.62921
  24119047.0414   16350589.35745  12740695.47561
  21823681.8074  -14951383.88448 -11501993.90863
 91  4 15 23 35  0.0020000  0  5G13G 2G15G19G 6
  23452932.0414   -6622478.37346  -4728902.68061
  21631886.6824     730633.42848    567710.46864
  24650970.064    -1460415.871 5  -1079646.78021
  24127436.713    16394675.858 5  12775048.51721
  21820624.4164  -14967452.28348 -11514514.71063
 91  4 15 23 35 15.0020000  0  5G13G 2G15G19G 6
  23443531.5644   -6671887.69346  -4767403.25361
  21633551.7214     739384.89147    574529.79464
  24649532.846    -1467964.834 5  -1085529.02821
  24135839.572    16438820.800 5  12809447.05721
  21817577.4864  -14983463.39747 -11526990.87363
 91  4 15 23 35 30.0020000  0  5G13G 2G15G19G 6
  23434141.033    -6721223.892 6  -4805846.83121
  21635227.0964     748184.27147    581386.45564
  24648124.057    -1475394.684 5  -1091318.42821
  24144246.8384   16483023.92945  12843890.94561
  21814541.3614  -14999417.07547 -11539422.28363
 91  4 15 23 35 45.0020000  0  5G13G 2G15G19G 6
  23424768.6894   -6770485.95646  -4844232.67161
  21636909.6974     757032.27047    588281.00763
  24646734.2914   -1482704.43745  -1097014.30061
  24152674.080    16527285.771 5  12878380.60021
  21811514.0254  -15015312.43447 -11551808.24663
 91  4 15 23 36  0.0020000  0  5G13G 2G15G19G 6
  23415408.5104   -6819676.90646  -4882563.08761
  21638602.8774     765925.55448    595210.84663
  24645356.799    -1489897.028 5  -1102618.83621
  24161101.666    16571602.801 5  12912913.26221
  21808500.9004  -15031152.42447 -11564151.06563
 91  4 15 23 36 15.0020000  0  5G13G 2G15G19G 6
  23406060.049    -6868794.814 6  -4920836.56821
  21640303.3304     774865.69147    602177.19163
  24644016.041    -1496970.682 5  -1108130.71521
  24169554.768    16615976.887 5  12947490.36521
  21805498.0574  -15046935.24847 -11576449.34263
 91  4 15 23 36 30.0020000  0  5G13G 2G15G19G 6
  23396728.525    -6917837.190 6  -4959051.20421
  21642014.1274     783854.75547    609181.66363
  24642684.3694   -1503922.84145  -1113547.94561
  24178008.244    16660409.918 5  12982113.38821
  21802506.1744  -15062658.48247 -11588701.18363
 91  4 15 23 36 45.0020000  0  5G13G 2G15G19G 6
  23387409.7684   -6966805.54246  -4997208.17261
  21643733.6744     792890.65148    616222.62663
  24641393.0574   -1510755.56745  -1118872.07761
  24186469.6664   16704899.78145  13016780.71861
  21799524.807   -15078323.863 7 -11600907.94723
 91  4 15 23 37  0.0020000  0  5G13G 2G15G19G 6
  23378102.8694   -7015702.98846  -5035309.88661
  21645461.8544     801969.96448    623297.42163
  24640111.729    -1517472.179 5  -1124105.74621
  24194951.2994   16749442.79345  13051489.45961
  21796555.135   -15093934.803 7 -11613072.29123
 91  4 15 23 37 15.0020000  0  5G13G 2G15G19G 6
  23368811.486    -7064533.628 6  -5073359.53821
  21647196.0724     811087.98047    630402.37263
  24638857.018    -1524076.678 5  -1129252.04221
  24203436.729    16794034.540 5  13086236.17021
  21793595.588   -15109495.366 8 -11625197.38223
 91  4 15 23 37 30.0020000  0  5G13G 2G15G19G 6
  23359530.322    -7113290.897 6  -5111352.03221
  21648941.4634     820250.78548    637542.22163
  24637622.463    -1530562.697 5  -1134306.03721
  24211932.9554   16838681.04645  13121025.56261
  21790644.7834  -15124999.10447 -11637278.19163
 91  4 15 23 37 45.0020000  0  5G13G 2G15G19G 6
  23350268.002    -7161975.951 6  -5149288.24821
  21650692.2294     829456.66047    644715.63463
  24636411.041    -1536931.728 5  -1139268.83321
  24220438.3304   16883380.81745  13155856.44261
  21787704.9554  -15140447.41047 -11649315.80363
 91  4 15 23 38  0.0020000  0  5G13G 2G15G19G 6
  23341020.9394   -7210587.49146  -5187167.18161
  21652450.9324     838706.69047    651923.45463
  24635226.8304   -1543182.45045  -1144139.45661
  24228951.072    16928134.536 5  13190729.34821
  21784775.8614  -15155839.11347 -11661309.30963
 91  4 15 23 38 15.0020000  0  5G13G 2G15G19G 6
  23331780.5184   -7259123.83946  -5224987.52661
  21654221.7364     848002.47948    659166.92963
  24634056.7364   -1549313.16745  -1148916.57561
  24237473.361    16972943.624 5  13225645.40721
  21781856.5254  -15171172.23447 -11673257.16663
 91  4 15 23 38 30.0020000  0  5G13G 2G15G19G 6
  23322561.557    -7307587.524 6  -5262751.25221
  21655998.0884     857340.97447    666443.68263
  24632915.471    -1555326.736 5  -1153602.40921
  24246019.3224   17017805.13045  13260602.33761
  21778949.7604  -15186449.71947 -11685161.66763
 91  4 15 23 38 45.0020000  0  5G13G 2G15G19G 6
  23313350.8224   -7355978.53746  -5300458.33561
  21657784.1194     866721.56848    673753.23563
  24631786.4474   -1561223.43445  -1158197.19061
  24254566.3934   17062718.73445  13295599.82561
  21776053.4474  -15201671.67347 -11697022.89963
 91  4 15 23 39  0.0020000  0  5G13G 2G15G19G 6
  23304155.6354   -7404297.42046  -5338109.23661
  21659575.0334     876143.13348    681094.71764
  24630686.0884   -1567003.88445  -1162701.37361
  24263123.463    17107683.170 5  13330636.96121
  21773166.7834  -15216838.80347 -11708841.40863
 91  4 15 23 39 15.0020000  0  5G13G 2G15G19G 6
  23294972.8464   -7452544.55346  -5375704.22261
  21661378.1824     885605.29048    688467.83063
  24629615.1664   -1572668.62345  -1167115.39061
  24271687.9084   17152697.72045  13365713.12861
  21770291.6044  -15231951.37347 -11720617.40963
 91  4 15 23 39 30.0020000  0  5G13G 2G15G19G 6
  23285809.7604   -7500719.65346  -5413243.07161
  21663185.6584     895107.72348    695872.32963
  24628551.611    -1578217.475 5  -1171439.12421
  24280265.4394   17197762.14345  13400828.16661
  21767425.0644  -15247009.40547 -11732350.91363
 91  4 15 23 39 45.0020000  0  5G13G 2G15G19G 6
  23276658.479    -7548813.770 6  -5450718.81021
  21665002.4794     904659.11948    703314.98163
  24627523.4084   -1583641.47945  -1175665.56061
  24288847.1744   17242885.04245  13435988.73461
  21764571.9324  -15262003.96547 -11744034.95863
 91  4 15 23 40  0.0020000  0  5G13G 2G15G19G 6
  23267515.557    -7596832.388 6  -5488135.72021
  21666828.5334     914253.44248    710791.08163
  24626504.775    -1588946.444 5  -1179799.24121
  24297446.057    17288060.505 5  13471190.29521
  21761731.1744  -15276940.60847 -11755673.87163
 91  4 15 23 40 15.0020000  0  5G13G 2G15G19G 6
  23258397.236    -7644770.498 6  -5525489.91421
  21668662.6824     923895.27448    718304.20164
  24625523.947    -1594127.526 5  -1183836.38521
  24306052.2994   17333293.35545  13506436.55461
  21758899.314   -15291814.507 7 -11767263.90023
 91  4 15 23 40 30.0020000  0  5G13G 2G15G19G 6
  23249289.6744   -7692629.92646  -5562782.80361
  21670507.9394     933582.11548    725852.38263
  24624567.1434   -1599186.85345  -1187778.67861
  24314674.111    17378580.770 5  13541725.33721
  21756080.947   -15306627.710 7 -11778806.62623
 91  4 15 23 40 45.0020000  0  5G13G 2G15G19G 6
  23240196.0724   -7740408.13446  -5600012.39661
  21672360.1974     943316.28348    733437.45263
  24623621.8304   -1604122.09745  -1191624.27961
  24323300.0494   17423925.11445  13577058.45661
  21753273.7754  -15321377.81647 -11790300.18563
 91  4 15 23 41  0.0020000  0  5G13G 2G15G19G 6
  23231121.025    -7788107.870 6  -5637180.83821
  21674220.2444     953094.83948    741057.10464
  24622713.9714   -1608935.79145  -1195375.16261
  24331934.6504   17469323.09645  13612433.40561
  21750478.0964  -15336067.35547 -11801746.54464
 91  4 15 23 41 15.0020000  0  5G13G 2G15G19G 6
  23222059.299    -7835727.181 6  -5674286.61221
  21676088.3854     962919.30348    748712.52763
  24621795.2524   -1613626.26945  -1199030.04661
  24340587.1744   17514776.18345  13647851.28061
  21747694.119   -15350694.637 7 -11813144.39923
 91  4 15 23 41 30.0020000  0  5G13G 2G15G19G 6
  23213010.3074   -7883262.49946  -5711326.95461
  21677969.2994     972792.43448    756405.87264
  24620955.744    -1618190.539 5  -1202586.57621
  24349247.744    17560287.342 5  13683314.41521
  21744925.1114  -15365256.27947 -11824491.10864
 91  4 15 23 41 45.0020000  0  5G13G 2G15G19G 6
  23203980.799    -7930708.807 6  -5748297.93321
  21679859.2294     982719.04948    764140.89364
  24620109.494    -1622623.422 5  -1206040.71521
  24357920.0964   17605861.43045  13718826.57261
  21742165.2214  -15379747.32547 -11835782.80364
 91  4 15 23 42  0.0020000  0  5G13G 2G15G19G 6
  23194970.502    -7978068.553 6  -5785201.43421
  21681756.3224     992696.47548    771915.51064
  24619280.6744   -1626927.27145  -1209394.30261
  24366600.5494   17651495.70045  13754385.62861
  21739422.5024  -15394170.06247 -11847021.27564
 91  4 15 23 42 15.0020000  0  5G13G 2G15G19G 6
  23185971.5494   -8025342.70146  -5822038.26461
  21683663.4164    1002723.22648    779728.56464
  24618489.7754   -1631103.54745  -1212648.48361
  24375301.260    17697188.500 5  13789990.30721
  21736689.854   -15408525.746 7 -11858207.49723
 91  4 15 23 42 30.0020000  0  5G13G 2G15G19G 6
  23176992.986    -8072531.975 6  -5858808.95021
  21685582.8614    1012798.00048    787579.03063
  24617717.682    -1635152.978 6  -1215803.83621
  24384008.955    17742938.600 5  13825639.62621
  21733970.6354  -15422815.45447 -11869342.30763
 91  4 15 23 42 45.0020000  0  5G13G 2G15G19G 6
  23168032.229    -8119632.722 6  -5895510.65321
  21687506.1114    1022924.14748    795469.54064
  24616974.6274   -1639072.18346  -1218857.69861
  24392719.9324   17788749.25845  13861336.12561
  21731266.143   -15437035.436 7 -11880422.78423
 91  4 15 23 43  0.0020000  0  5G13G 2G15G19G 6
  23159083.6824   -8166647.65746  -5932145.49361
  21689444.6894    1033098.61048    803397.69564
  24616250.502    -1642864.220 5  -1221812.47221
  24401452.7294   17834617.23945  13897077.31061
  21728570.8074  -15451188.56747 -11891451.17264
 91  4 15 23 43 15.0020000  0  5G13G 2G15G19G 6
  23150156.330    -8213569.061 6  -5968707.44421
  21691389.6044    1043328.76048    811369.24464
  24615549.752    -1646521.511 6  -1224662.25621
  24410192.213    17880549.962 5  13932868.91821
  21725894.189   -15465267.140 7 -11902421.46023
 91  4 15 23 43 30.0020000  0  5G13G 2G15G19G 6
  23141240.4394   -8260400.69246  -6005199.45361
  21693348.1114    1053610.57548    819381.04663
  24614891.400    -1650047.519 6  -1227409.73621
  24418939.502    17926543.351 5  13968707.80421
  21723226.025   -15479274.715 7 -11913336.43223
 91  4 15 23 43 45.0020000  0  5G13G 2G15G19G 6
  23132344.502    -8307141.159 6  -6041620.42621
  21695315.2684    1063944.86548    827433.74564
  24614246.963    -1653441.262 5  -1230054.15421
  24427705.8934   17972598.21645  14004594.60961
  21720573.8144  -15493210.31847 -11924195.31464
 91  4 15 23 44  0.0020000  0  5G13G 2G15G19G 6
  23123469.7524   -8353796.25146  -6077974.86761
  21697288.2524    1074325.28648    835522.38564
  24613618.0884   -1656708.64345  -1232600.13961
  24436480.361    18018708.378 5  14040524.48921
  21717935.9714  -15507079.74947 -11935002.63264
 91  4 15 23 44 15.0020000  0  5G13G 2G15G19G 6
  23114608.7524   -8400363.83546  -6114261.10661
  21699273.0884    1084753.69348    843648.42264
  24613012.7524   -1659847.78845  -1235046.17261
  24445266.877    18064875.451 5  14076498.71221
  21715310.0724  -15520881.13047 -11945756.92364
 91  4 15 23 44 30.0020000  0  5G13G 2G15G19G 6
  23105763.557    -8446841.209 6  -6150477.08121
  21701267.2444    1095232.35648    851813.61564
  24612440.338    -1662856.090 5  -1237390.26521
  24454066.1354   18111101.71945  14112519.07561
  21712695.9394  -15534611.62747 -11956455.97764
 91  4 15 23 44 45.0020000  0  5G13G 2G15G19G 6
  23096935.5254   -8493228.97446  -6186623.22661
  21703270.9164    1105760.31348    860017.22264
  24611891.189    -1665734.523 5  -1239633.16021
  24462872.5414   18157385.99345  14148584.64061
  21710096.7214  -15548272.05647 -11967100.43064
 91  4 15 23 45  0.0020000  0  5G13G 2G15G19G 6
  23088123.0254   -8539530.97246  -6222702.53461
  21705283.5724    1116333.26348    868255.89163
  24611382.400    -1668486.995 5  -1241777.90421
  24471695.4244   18203724.12545  14184692.16061
  21707509.7684  -15561866.27247 -11977693.29963
 91  4 15 23 45 15.0020000  0  5G13G 2G15G19G 6
  23079329.9394   -8585744.80146  -6258713.14661
  21707304.7994    1126953.32048    876531.26663
  24610871.877    -1671111.313 5  -1243822.76821
  24480522.8464   18250117.93845  14220843.06661
  21704937.0254  -15575391.99347 -11988232.79563
 91  4 15 23 45 30.0020000  0  5G13G 2G15G19G 6
  23070551.697    -8631872.314 6  -6294656.49421
  21709334.5574    1137618.27148    884841.62063
  24610394.8074   -1673609.33345  -1245769.22861
  24489358.260    18296565.196 5  14257035.60921
  21702375.0644  -15588851.25247 -11998720.50463
 91  4 15 23 45 45.0020000  0  5G13G 2G15G19G 6
  23061791.158    -8677910.598 6  -6330530.31121
  21711371.3304    1148330.38748    893188.73163
  24609944.0884   -1675978.38345  -1247615.20161
  24498211.9474   18343068.20145  14293271.58961
  21699825.6974  -15602241.30447 -12009154.28364
 91  4 15 23 46  0.0030000  0  5G13G 2G15G19G 6
  23053047.780    -8723867.257 6  -6366340.53321
  21713418.9764    1159085.88248    901569.64263
  24609516.233    -1678223.392 5  -1249364.49021
  24507066.3124   18389625.45745  14329549.86161
  21697290.9914  -15615567.28647 -12019538.13364
 91  4 15 23 46 15.0030000  0  5G13G 2G15G19G 6
  23044318.647    -8769734.030 6  -6402080.69821
  21715473.6874    1169884.82048    909984.41163
  24609120.702    -1680342.232 5  -1251015.50021
  24515935.897    18436232.159 5  14365866.63221
  21694766.0224  -15628825.62147 -12029869.26564
 91  4 15 23 46 30.0030000  0  5G13G 2G15G19G 6
  23035606.726    -8815512.549 6  -6437752.09721
  21717536.9294    1180728.88848    918434.34664
  24608735.304    -1682333.614 5  -1252567.18721
  24524815.882    18482892.517 5  14402225.24521
  21692258.2494  -15642015.87847 -12040147.35563
 91  4 15 23 46 45.0030000  0  5G13G 2G15G19G 6
  23026914.491    -8861203.436 6  -6473355.22621
  21719608.9294    1191617.12748    926918.69563
  24608383.3824   -1684198.48945  -1254020.27061
  24533706.960    18529605.534 5  14438624.88321
  21689760.0464  -15655138.71847 -12050372.91063
 91  4 15 23 47  0.0030000  0  5G13G 2G15G19G 6
  23018236.491    -8906807.257 6  -6508890.50221
  21721688.8974    1202548.44048    935436.61064
  24608043.812    -1685937.598 5  -1255375.39421
  24542600.6554   18576369.78745  14475064.44061
  21687275.7184  -15668194.93647 -12060546.56263
 91  4 15 23 47 15.0030000  0  5G13G 2G15G19G 6
  23009573.9834   -8952325.54546  -6544359.12161
  21723775.7414    1213521.09748    943986.73764
  24607752.2414   -1687552.39545  -1256633.62061
  24551510.249    18623183.534 4  14511542.56121
  21684803.9214  -15681186.17747 -12070669.58263
 91  4 15 23 47 30.0030000  0  5G13G 2G15G19G 6
  23000928.687    -8997755.736 6  -6579759.10721
  21725874.1474    1224537.07248    952570.61264
  24607456.632    -1689040.959 5  -1257793.45921
  24560429.4994   18670048.93145  14548060.97061
  21682344.343   -15694109.778 7 -12080739.89623
 91  4 15 23 47 45.0030000  0  5G13G 2G15G19G 6
  22992300.2654   -9043099.45846  -6615091.72061
  21727977.7804    1235594.38148    961186.70564
  24607196.444    -1690404.993 5  -1258856.30521
  24569364.2964   18716963.85745  14584617.92661
  21679898.0694  -15706967.54247 -12090758.90363
 91  4 15 23 48  0.0030000  0  5G13G 2G15G19G 6
  22983685.608    -9088354.268 6  -6650355.04321
  21730088.8434    1246695.21048    969836.70864
  24606972.0694   -1691642.14145  -1259820.25161
  24578292.7804   18763930.44845  14621215.16961
  21677462.5224  -15719757.02347 -12100724.70363
 91  4 15 23 48 15.0030000  0  5G13G 2G15G19G 6
  22975089.741    -9133518.863 6  -6685548.08121
  21732209.2884    1257840.23248    978521.14463
  24606759.796    -1692751.395 5  -1260684.57321
  24587241.7184   18810949.09544  14657852.96561
  21675043.5544  -15732477.37247 -12110636.63464
 91  4 15 23 48 30.0030000  0  5G13G 2G15G19G 6
  22966514.866    -9178594.366 6  -6720671.67021
  21734337.9684    1269028.18048    987239.03163
  24606567.5934   -1693733.84545  -1261450.06661
  24596204.0384   18858018.50445  14694530.32161
  21672634.4054  -15745129.46847 -12120495.37663
 91  4 15 23 48 45.0030000  0  5G13G 2G15G19G 6
  22957954.210    -9223580.201 6  -6755725.39621
  21736475.8974    1280259.47348    995990.69463
  24606408.046    -1694588.954 5  -1262116.34621
  24605163.796    18905139.132 5  14731247.56021
  21670240.0934  -15757712.57947 -12130300.36363
 91  4 15 23 49  0.0030000  0  5G13G 2G15G19G 6
  22949409.9294   -9268472.35746  -6790706.13261
  21738622.3744    1291537.65148   1004778.89164
  24606267.702    -1695312.996 5  -1262680.47621
  24614150.968    18952314.672 5  14768007.61921
  21667861.3904  -15770222.79947 -12140048.55863
 91  4 15 23 49 15.0030000  0  5G13G 2G15G19G 6
  22940883.796    -9313270.432 6  -6825613.55821
  21740780.0224    1302862.65148   1013603.57164
  24606159.405    -1695905.879 5  -1263142.43421
  24623131.062    18999544.808 5  14804810.16321
  21665493.655   -15782659.886 7 -12149739.77223
 91  4 15 23 49 30.0030000  0  5G13G 2G15G19G 6
  22932379.3824   -9357978.31946  -6860450.71861
  21742941.2964    1314230.19548   1022461.40064
  24606075.4294   -1696371.62845  -1263505.29761
  24632137.030    19046825.116 5  14841651.85221
  21663140.968   -15795027.907 7 -12159377.16823
 91  4 15 23 49 45.0030000  0  5G13G 2G15G19G 6
  22923884.983    -9402594.226 6  -6895216.18521
  21745113.9444    1325641.60648   1031353.41764
  24606008.866    -1696708.531 5  -1263767.76621
  24641143.007    19094157.002 5  14878533.68921
  21660799.937   -15807325.101 7 -12168959.37323
 91  4 15 23 50  0.0030000  0  5G13G 2G15G19G 6
  22915412.968    -9447118.918 6  -6929910.59021
  21747294.4134    1337095.89548   1040278.83564
  24605958.265    -1696917.478 5
  24650156.1244   19141539.13445  14915454.71161
  21658473.6554  -15819552.38647 -12178487.09363
 91  4 15 23 50 15.0030000  0  5G13G 2G15G19G 6
  22906962.616    -9491546.375 6  -6964529.23321
  21749482.5464    1348598.49348   1049241.90764
  24605951.288    -1696992.997 5
  24659184.9764   19188977.03445  14952419.18961
  21656162.3744  -15831703.82547 -12187955.71763
 91  4 15 23 50 30.0030000  0  5G13G 2G15G19G 6
  22898523.7184   -9535881.73846  -6999076.11261
  21751679.3354    1360143.79048   1058238.25164
  24605952.640    -1696940.540 5
  24668214.3904   19236465.18445  14989422.83061
  21653860.7024  -15843784.76047 -12197369.40264
 91  4 15 23 50 45.0030000  0  5G13G 2G15G19G 6
  22890104.874    -9580122.873 6  -7033549.55721
  21753883.2724    1371733.90448   1067269.51264
  24605986.780    -1696757.580 5
  24677267.8274   19284005.27545  15026466.93461
  21651577.437   -15855792.900 7 -12206726.36723
 91  4 15 23 51  0.0030000  0  5G13G 2G15G19G 6
  22881704.624    -9624267.981 6  -7067948.18221
  21756098.2964    1383370.19148   1076336.75464
  24606049.835    -1696442.586 5
  24686327.1474   19331598.80045  15063552.67861
  21649305.9214  -15867726.50347 -12216025.25063
 91  4 15 23 51 15.0030000  0  5G13G 2G15G19G 6
  22873321.663    -9668316.404 6  -7102271.46221
  21758323.7654    1395052.84648   1085440.12164
  24606138.960    -1695995.232 5  -1263211.63121
  24695387.085    19379245.858 4  15100680.12321
  21647048.327   -15879585.166 7 -12225265.74623
 91  4 15 23 51 30.0030000  0  5G13G 2G15G19G 6
  22864955.5154   -9712268.69946  -7136519.84161
  21760552.3434    1406780.94848   1094578.90864
  24606246.8514   -1695416.37445  -1262760.52961
  24704465.476    19426945.416 4  15137848.49921
  21644806.530   -15891369.335 7 -12234448.18923
 91  4 15 23 51 45.0030000  0  5G13G 2G15G19G 6
  22856614.319    -9756125.244 6  -7170693.61321
  21762793.2024    1418553.72548   1103752.50164
  24606384.335    -1694706.596 6  -1262207.39321
  24713549.937    19474696.691 5  15175057.16821
  21642578.8194  -15903079.55947 -12243573.00663
 91  4 15 23 52  0.0030000  0  5G13G 2G15G19G 6
  22848281.851    -9799886.271 6  -7204792.94921
  21765042.8274    1430370.40448   1112960.30664
  24606541.679    -1693866.346 5  -1261552.61821
  24722654.030    19522499.089 5  15212305.66221
  21640364.1324  -15914716.19647 -12252640.48663
 91  4 15 23 52 15.0030000  0  5G13G 2G15G19G 6
  22839972.882    -9843553.081 6  -7238818.88521
  21767299.2724    1442229.38848   1122201.07364
  24606718.8904   -1692897.17045  -1260797.37961
  24731756.2724   19570350.68845  15249592.48161
  21638162.3434  -15926280.69447 -12261651.75463
 91  4 15 23 52 30.0030000  0  5G13G 2G15G19G 6
  22831683.0694   -9887124.83746  -7272770.73161
  21769563.6794    1454131.30848   1131475.30564
  24606942.077    -1691798.314 5  -1259941.07621
  24740878.163    19618251.989 5  15286918.06121
  21635975.710   -15937772.043 7 -12270606.02823
 91  4 15 23 52 45.0030000  0  5G13G 2G15G19G 6
  22823408.663    -9930597.360 6  -7306645.28221
  21771837.7724    1466079.81548   1140785.83364
  24607178.7264   -1690566.05145  -1258980.80361
  24749995.6634   19666206.66745  15324285.21161
  21633804.249   -15949186.313 7 -12279500.24423
 91  4 15 23 53  0.0030000  0  5G13G 2G15G19G 6
  22815155.8974   -9973971.88546  -7340443.45661
  21774120.2104    1478073.39848   1150131.48364
  24607422.2024   -1689201.81345  -1257917.70161
  24759139.8744   19714213.13245  15361692.72361
  21631646.069   -15960524.799 7 -12288335.40323
 91  4 15 23 53 15.0030000  0  5G13G 2G15G19G 6
  22806920.257   -10017249.544 6  -7374166.14921
  21776410.9914    1490110.45448   1159511.00864
  24607713.0694   -1687706.57245  -1256752.54561
  24768278.0694   19762269.75745  15399139.33161
  21629502.491   -15971788.647 7 -12297112.40423
 91  4 15 23 53 30.0030000  0  5G13G 2G15G19G 6
  22798701.8044  -10060428.72146  -7407812.11161
  21778709.3584    1502192.47048   1168925.56964
  24608015.265    -1686078.802 5  -1255484.12321
  24777434.2804   19810377.65845  15436625.87361
  21627375.210   -15982976.123 7 -12305829.89823
 91  4 15 23 53 45.0030000  0  5G13G 2G15G19G 6
  22790504.5694  -10103508.94546  -7441380.95961
  21781016.3824    1514319.62448   1178375.29864
  24608353.7964   -1684318.36845  -1254112.32061
  24786597.0224   19858537.21945  15474152.66761
  21625259.233   -15994086.819 7 -12314487.56523
 91  4 15 23 54  0.0030000  0  5G13G 2G15G19G 6
  22782329.171   -10146489.469 6  -7474872.12021
  21783332.6164    1526492.20548   1187860.42664
  24608723.2184   -1682424.53745  -1252636.56761
  24795773.562    19906748.424 4  15511719.70921
  21623160.710   -16005120.178 7 -12323084.96023
 91  4 15 23 54 15.0030000  0  5G13G 2G15G19G 6
  22774168.655   -10189372.234 6  -7508287.11821
  21785658.4444    1538708.09748   1197379.29464
  24609098.9914   -1680399.77945  -1251058.77761
  24804955.0854   19955008.94144  15549325.18061
  21621074.929   -16016078.113 7 -12331623.59723
 91  4 15 23 54 30.0030000  0  5G13G 2G15G19G 6
  22766024.3824  -10232157.41446  -7541626.06461
  21787990.9604    1550966.34048   1206931.16964
  24609522.9214   -1678244.52146  -1249379.25761
  24814148.538    20003318.225 3  15586968.65521
  21619004.499   -16026960.910 7 -12340103.68423
 91  4 15 23 54 45.0030000  0  5G13G 2G15G19G 6
  22757903.4604  -10274840.18646  -7574885.20761
  21790332.7964    1563271.42648   1216519.54063
  24609947.5384   -1675954.09345  -1247594.48861
  24823349.9604   20051680.35743  15624653.30861
  21616946.890   -16037764.051 7 -12348521.69823
 91  4 15 23 55  0.0030000  0  5G13G 2G15G19G 6
  22749799.3584  -10317420.95746  -7608064.87961
  21792684.2024    1575622.74148   1226143.94064
  24610416.0304   -1673529.15445  -1245704.87861
  24832557.937    20100094.596 3  15662378.55821
  21614907.147   -16048487.943 7 -12356877.95823
 91  4 15 23 55 15.0030000  0  5G13G 2G15G19G 6
  22741713.3904  -10359905.83646  -7641169.83161
  21795042.6014    1588013.75848   1235799.27664
  24610894.171    -1670976.051 5  -1243715.40721
  24841783.968    20148554.546 4  15700139.44621
  21612881.429   -16059138.760 7 -12365177.27423
 91  4 15 23 55 30.0030000  0  5G13G 2G15G19G 6
  22733649.0074  -10402290.07946  -7674196.36461
  21797407.3664    1600448.76248   1245488.88364
  24611404.812    -1668290.267 5  -1241622.56021
  24851014.772    20197064.454 5  15737939.22921
  21610869.030   -16069711.676 7 -12373415.89123
 91  4 15 23 55 45.0030000  0  5G13G 2G15G19G 6
  22725602.765   -10444571.851 6  -7707143.06121
  21799780.8744    1612929.36748   1255214.03264
  24611953.0544   -1665470.12746  -1239425.02061
  24860250.085    20245625.725 4  15775779.07721
  21608872.351   -16080204.913 7 -12381592.42223
 91  4 15 23 56  0.0030000  0  5G13G 2G15G19G 6
  22717577.288   -10486754.647 6  -7740012.62821
  21802166.4294    1625451.97148   1264971.89964
  24612504.7654   -1662518.90746  -1237125.33161
  24869506.288    20294234.689 4  15813656.07721
  21606890.687   -16090621.794 7 -12389709.45123
 91  4 15 23 56 15.0030000  0  5G13G 2G15G19G 6
  22709566.7804  -10528835.43046  -7772802.71061
  21804556.2024    1638019.14148   1274764.49564
  24613091.3584   -1659434.14145  -1234721.57361
  24878773.3354   20342893.78745  15851572.10961
  21604922.233   -16100959.645 7 -12397764.90123
 91  4 15 23 56 30.0030000  0  5G13G 2G15G19G 6
  22701580.3904  -10570815.00746  -7805513.92261
  21806956.8824    1650629.62248   1284590.84264
  24613705.3824   -1656216.59145  -1232214.34061
  24888034.866    20391601.851 5  15889526.31321
  21602971.046   -16111219.154 7 -12405759.30123
 91  4 15 23 56 45.0030000  0  5G13G 2G15G19G 6
  22693610.405   -10612693.806 6  -7838146.62321
  21809364.2884    1663282.63048   1294450.32264
  24614342.0154   -1652867.04246  -1229604.28161
  24897308.374    20440357.820 4  15927517.82921
  21601032.171   -16121400.859 7 -12413693.07723
 91  4 15 23 57  0.0030000  0  5G13G 2G15G19G 6
  22685657.413   -10654469.266 6  -7870698.79821
  21811779.0774    1675980.38548   1304344.67764
  24615005.4214   -1649383.10246  -1226889.46261
  24906601.0074   20489163.69644  15965548.24661
  21599110.663   -16131502.202 7 -12421564.23223
 91  4 15 23 57 15.0030000  0  5G13G 2G15G19G 6
  22677730.171   -10696138.081 6  -7903167.86621
  21814205.6324    1688725.84648   1314276.19864
  24615695.6944   -1645761.71246  -1224067.55661
  24915900.1874   20538022.50644  16003619.86561
  21597204.866   -16141520.091 7 -12429370.36123
 91  4 15 23 57 30.0030000  0  5G13G 2G15G19G 6
  22669820.897   -10737700.882 6  -7935554.33221
  21816640.6324    1701518.06348   1324244.15864
  24616412.8044   -1642003.87646  -1221139.34661
  24925215.1794   20586933.06844  16041731.92661
  21595315.624   -16151455.215 7 -12437112.00123
 91  4 15 23 57 45.0030000  0  5G13G 2G15G19G 6
  22661933.647   -10779158.534 6  -7967858.85421
  21819082.1714    1714355.69948   1334247.50764
  24617151.9294   -1638110.53746  -1218105.54061
  24934523.9684   20635894.24544  16079883.30261
  21593440.593   -16161308.393 7 -12444789.78323
 91  4 15 23 58  0.0030000  0  4G13G 2G15G 6
  22654064.280   -10820511.491 6  -8000081.80521
  21821535.6874    1727237.74548   1344285.46564
  24617918.593    -1634082.780 6  -1214966.99121
  21591578.858   -16171080.579 7 -12452404.45123
 91  4 15 23 58 15.0030000  0  5G13G 2G15G19G 6
  22646214.022   -10861762.425 6  -8032225.25221
  21823993.5224    1740161.45248   1354355.88864
  24618708.319    -1629923.231 6  -1211725.74321
  24953182.593          -0.05413
  21589734.772   -16180774.065 7 -12459957.79623
 91  4 15 23 58 30.0030000  0  5G13G 2G15G19G 6
  22638381.827   -10902911.076 6  -8064288.99921
  21826460.7574    1753126.65048   1364458.63264
  24619521.9834   -1625631.83246  -1208381.76861
  24962538.382       49103.398 4
  21587904.327   -16190388.753 7 -12467449.73523
 91  4 15 23 58 45.0030000  0  5G13G 2G15G19G 6
  22630573.0774  -10943955.80646  -8096271.76761
  21828936.9834    1766134.92248   1374594.94664
  24620369.194    -1621206.963 6  -1204933.79521
  24971882.2884      98254.56144
  21586090.335   -16199922.861 7 -12474878.89523
 91  4 15 23 59  0.0030000  0  5G13G 2G15G19G 6
  22622784.046   -10984895.028 7  -8128172.32121
  21831421.7334    1779187.60448   1384765.85764
  24621232.3194   -1616647.06246  -1201380.59261
  24981243.3974     147454.59044
  21584292.921   -16209374.810 7 -12482244.02923
 91  4 15 23 59 15.0030000  0  5G13G 2G15G19G 6
  22615012.2884  -11025728.03647  -8159990.10961
  21833911.7964    1792284.88348   1394971.53164
  24622128.2804   -1611951.66546  -1197721.80961
  24990621.6404     196703.74445
  21582507.976   -16218743.940 7 -12489544.63223
 91  4 15 23 59 30.0030000  0  5G13G 2G15G19G 6
  22607260.6474  -11066455.46646  -8191725.64561
  21836412.7494    1805425.74848   1405211.15564
  24623048.5934   -1607121.90946  -1193958.32261
  25000001.163      246000.997 4        -0.04531
  21580742.366   -16228031.023 7 -12496781.30023
 91  4 15 23 59 45.0030000  0  5G13G 2G15G19G 6
  22599530.241   -11107076.025 6  -8223377.90421
  21838921.7104    1818611.18448   1415485.52464
  24623995.8044   -1602156.48346  -1190089.12861
  25009390.538      295347.036 5     38451.25121
  21578989.858   -16237234.866 7 -12503953.10124
 91  4 16  0  0  0.0030000  0  5G13G 2G15G19G 6
  22591823.2884  -11147593.19746  -8254949.59661
  21841438.0694    1831837.23548   1425791.53464
  24624963.382    -1597059.430 6  -1186117.37221
  25018797.804      344737.876 5     76937.45521
  21577254.921   -16246358.965 7 -12511062.76523
 91  4 16  0  0 15.0030000  0  5G13G 2G15G19G 6
  22584129.499   -11188000.127 6  -8286435.39121
  21843965.1874    1845110.55748   1436134.38664
  24625962.8664   -1591823.96446  -1182037.76061
  25028194.757      394179.985 4    115463.65121
  21575534.460   -16255396.603 7 -12518105.05623
 91  4 16  0  0 30.0030000  0  5G13G 2G15G19G 6
  22576459.7804  -11228304.34246  -8317841.14861
  21846498.5544    1858423.46348   1446508.07564
  24626979.522    -1586457.752 6  -1177856.27121
  25037614.827      443665.529 4    154023.64721
  21573829.147   -16264355.089 7 -12525085.67823
 91  4 16  0  0 45.0030000  0  5G13G 2G15G19G 6
  22568813.507   -11268498.338 7  -8349161.01721
  21849040.3664    1871782.74148   1456917.90764
  24628027.890    -1580953.707 6  -1173567.35321
  25047045.8194     493201.18844    192622.71461
  21572140.077   -16273227.445 7 -12531999.17823
 91  4 16  0  1  0.0030000  0  5G13G 2G15G19G 6
  22561181.3124  -11308585.31746  -8380397.50261
  21851591.5224    1885185.00648   1467361.23264
  24629099.4834   -1575315.01746  -1169173.53061
  25056482.101      542783.704 5    231258.31621
  21570468.382   -16282016.495 7 -12538847.76923
 91  4 16  0  1 15.0030000  0  5G13G 2G15G19G 6
  22553576.101   -11348564.262 6  -8411549.80721
  21854149.6244    1898630.91548   1477838.56464
  24630199.3354   -1569541.09546  -1164674.33361
  25065910.7574     592413.42744    269930.66161
  21568811.2184  -16290721.43047 -12545630.80363
 91  4 16  0  1 30.0030000  0  5G13G 2G15G19G 6
  22545987.765   -11388438.437 7  -8442620.46821
  21856714.7804    1912117.27248   1488347.41564
  24631322.1874   -1563635.11846  -1160072.23661
  25075364.8974     642087.03043    308637.25561
  21567169.1634  -16299345.38147 -12552350.73763
 91  4 16  0  1 45.0030000  0  5G13G 2G15G19G 6
  22538422.5464  -11428204.44746  -8473606.84161
  21859288.9684    1925646.77948   1498889.88664
  24632473.2184   -1557594.39446  -1155365.15861
  25084832.116      691807.021 3    347379.95321
  21565546.3584  -16307885.08147 -12559005.02163
 91  4 16  0  2  0.0030000  0  5G13G 2G15G19G 6
  22530873.3584  -11467865.14146  -8504511.15561
  21861872.6244    1939216.47948   1509463.67964
  24633651.3664   -1551421.64346  -1150555.19561
  25094314.507      741570.583 4    386156.63721
  21563936.3274  -16316343.41147 -12565595.90063
 91  4 16  0  2 15.0030000  0  5G13G 2G15G19G 6
  22523346.1714  -11507420.60946  -8535333.47461
  21864461.4374    1952825.58948   1520068.18465
  24634844.2884   -1545117.30346  -1145642.69061
  25103781.8194     791377.03643    424966.70061
  21562343.101   -16324720.563 7 -12572123.53023
 91  4 16  0  2 30.0030000  0  5G13G 2G15G19G 6
  22515841.476   -11546869.714 7  -8566072.92321
  21867059.1944    1966475.17148   1530704.22364
  24636070.1014   -1538680.23046  -1140626.77361
  25113259.3904     841227.23843    463810.88061
  21560764.897   -16333015.294 7 -12578586.93623
 91  4 16  0  2 45.0030000  0  5G13G 2G15G19G 6
  22508355.2494  -11586210.98447  -8596728.33361
  21869665.2884    1980166.41348   1541372.72564
  24637323.5544   -1532109.13446  -1135506.41561
  25122751.1244     891122.09042
  21559201.1244  -16341226.23047 -12584985.03364
 91  4 16  0  3  0.0030000  0  5G13G 2G15G19G 6
  22500885.6874  -11625442.56747  -8627298.27161
  21872278.2574    1993900.87148   1552074.90464
  24638593.991    -1525402.411 6  -1130280.38121
  25132262.2414     941062.98543
  21557655.1714  -16349351.57247 -12591316.43664
 91  4 16  0  3 15.0030000  0  5G13G 2G15G19G 6
  22493441.522   -11664560.758 7  -8657779.86821
  21874899.9684    2007681.92648   1562813.38864
  24639900.226    -1518556.893 6  -1124946.17021
  25141791.1164     991053.07944
  21556124.0544  -16357387.83847 -12597578.42964
 91  4 16  0  3 30.0030000  0  5G13G 2G15G19G 6
  22486020.6474  -11703571.35447  -8688177.60961
  21877530.9134    2021503.35648   1573583.33164
  24641230.7884   -1511578.83246  -1119508.68761
  25151303.2724    1041086.24543        -0.44871
  21554610.772   -16365340.710 7 -12603775.45123
 91  4 16  0  3 45.0030000  0  5G13G 2G15G19G 6
  22478618.9444  -11742470.48047  -8718488.50561
  21880168.1554    2035368.87248   1584387.62964
  24642591.577    -1504464.039 6  -1113964.67121
  25160826.3584                         -0.08553
  21553116.022   -16373206.236 7 -12609904.40523
 91  4 16  0  4  0.0030000  0  5G13G 2G15G19G 6
  22471238.022   -11781258.012 7  -8748712.43421
  21882814.2574    2049278.10248   1595225.99064
  24643959.6244   -1497212.63846  -1108314.18761
  25170364.655                       50125.691 2
  21551636.702   -16380984.399 7 -12615965.28923
 91  4 16  0  4 15.0030000  0  5G13G 2G15G19G 6
  22463877.5544  -11819933.13347  -8778848.76961
  21885471.1944    2063231.57748   1606098.82764
  24645368.8974   -1489824.36346  -1102557.05961
  25179928.6634                     100298.09544
  21550171.249   -16388674.467 7 -12621957.53023
 91  4 16  0  4 30.0030000  0  5G13G 2G15G19G 6
  22456539.241   -11858495.121 7  -8808896.96121
  21888133.5934    2077229.88147   1617006.59864
  24646802.218    -1482298.602 6  -1096692.81521
  25189486.3274     150517.59644        -0.42271
  21548727.741   -16396275.534 7 -12627880.41423
 91  4 16  0  4 45.0030000  0  5G13G 2G15G19G 6
  22449222.0544  -11896942.17847  -8838855.59861
  21890806.7574    2091274.46048   1627950.42964
  24648260.6014   -1474633.69046  -1090720.12861
  25199031.397      200785.384 2     39169.12921
  21547297.897   -16403786.035 7 -12633732.72623
 91  4 16  0  5  0.0030000  0  4G13G 2G15G 6
  22441925.601   -11935277.396 7  -8868727.07421
  21893487.8904    2105362.07148   1638927.79064
  24649746.6794   -1466832.48346  -1084641.23561
  21545884.585   -16411208.900 7 -12639516.75423
 91  4 16  0  5 15.0030000  0  4G13G 2G15G 6
  22434656.054   -11973498.418 7  -8898509.56621
  21896175.7654    2119494.28348   1649939.90664
  24651253.2654   -1458893.53146  -1078455.00461
  21544490.0774  -16418542.09447 -12645230.90363
 91  4 16  0  5 30.0030000  0  4G13G 2G15G 6
  22427403.155   -12011604.018 7  -8928202.12321
  21898876.4684    2133672.08848   1660987.55064
  24652789.382    -1450815.965 6  -1072160.76121
  21543111.7414  -16425784.47747 -12650874.29363
 91  4 16  0  5 45.0030000  0  4G13G 2G15G 6
  22420172.6404  -12049593.17247  -8957803.94761
  21901582.9374    2147896.46848   1672071.49164
  24654357.6014   -1442598.79146  -1065757.73661
  21541750.827   -16432934.834 7 -12656445.97623
 91  4 16  0  6  0.0030000  0  4G13G 2G15G 6
  22412968.7264  -12087467.00647  -8987315.89861
  21904299.0154    2162165.79348   1683190.44564
  24655945.9374   -1434243.11346  -1059246.78861
  21540406.679   -16439994.364 7 -12661946.89524
 91  4 16  0  6 15.0030000  0  4G13G 2G15G 6
  22405781.1084  -12125224.81247  -9016737.44361
  21907021.3664    2176480.84548   1694345.03864
  24657561.6794   -1425748.33845  -1052627.45661
  21539081.577   -16446962.148 7 -12667376.31923
 91  4 16  0  6 30.0030000  0  4G13G 2G15G 6
  22398619.7964  -12162865.01247  -9046067.35161
  21909755.3194    2190842.71448   1705536.10664
  24659206.4684   -1417113.41145  -1045898.91361
  21537774.038   -16453836.887 7 -12672733.24324
 91  4 16  0  6 45.0030000  0  4G13G 2G15G 6
  22391478.3584  -12200386.08947  -9075304.42961
  21912496.1554    2205252.42648   1716764.45964
  24660877.1164   -1408337.05245  -1039060.16261
  21536482.218   -16460617.078 7 -12678016.48624
 91  4 16  0  7  0.0030000  0  4G13G 2G15G 6
  22384362.5384  -12237790.71947  -9104450.77861
  21915249.8274    2219707.15948   1728027.88864
  24662564.296    -1399422.326 5  -1032113.60421
  21535209.116   -16467305.350 7 -12683228.10524
 91  4 16  0  7 15.0030000  0  4G13G 2G15G 6
  22377266.827   -12275078.481 7  -9133506.04921
  21918008.0934    2234207.04948   1739326.50564
  24664292.7494   -1390368.76245  -1025058.84361
  21533955.241   -16473901.426 7 -12688367.88924
 91  4 16  0  7 30.0030000  0  4G13G 2G15G 6
  22370189.6324  -12312249.66747  -9162470.49761
  21920774.6164    2248751.59848   1750659.92564
  24666036.2414   -1381176.89145  -1017896.31861
  21532716.9134  -16480405.41047 -12693435.91464
 91  4 16  0  7 45.0030000  0  4G13G 2G15G 6
  22363140.054   -12349304.007 7  -9191343.90221
  21923551.5074    2263340.73848   1762028.08564
  24667821.694    -1371846.716 5  -1010626.02121
  21531494.468   -16486817.099 7 -12698432.02423
 91  4 16  0  8  0.0030000  0  4G13G 2G15G 6
  22356110.5854  -12386242.56147  -9220127.05761
  21926334.1244    2277972.95348   1773429.81164
  24669627.6794   -1362379.53045  -1003248.96261
  21530293.585   -16493137.627 7 -12703357.09824
 91  4 16  0  8 15.0030000  0  4G13G 2G15G 6
  22349105.9294  -12423064.44547  -9248819.32261
  21929128.7414    2292648.97648   1784865.67164
  24671450.460    -1352774.695 5   -995764.65221
  21529108.827   -16499366.157 7 -12708210.47924
 91  4 16  0  8 30.0030000  0  4G13G 2G15G 6
  22342118.5624  -12459766.61747  -9277418.28661
  21931931.5694    2307371.66148   1796337.89664
  24673308.179    -1343029.518 5   -988170.98221
  21527940.718   -16505499.554 7 -12712989.73224
 91  4 16  0  8 45.0030000  0  4G13G 2G15G 6
  22335156.218   -12496349.376 7  -9305924.20621
  21934738.9994    2322140.14248   1807845.80864
  24675190.1554   -1333144.47045   -980468.29961
  21526791.772   -16511538.360 7 -12717695.27624
 91  4 16  0  9  0.0030000  0  4G13G 2G15G 6
  22328218.5774  -12532816.00947  -9334339.66161
  21937560.8124    2336951.13948   1819386.84064
  24677106.1634   -1323122.84545   -972659.20861
  21525658.991   -16517485.538 7 -12722329.41923
 91  4 16  0  9 15.0030000  0  4G13G 2G15G 6
  22321303.483   -12569165.958 7  -9362664.17721
  21940386.2184    2351804.82948   1830961.14464
  24679020.8904   -1312964.59745   -964743.65861
  21524547.444   -16523340.836 7 -12726891.97623
 91  4 16  0  9 30.0030000  0  4G13G 2G15G 6
  22314406.6554  -12605399.97547  -9390898.33961
  21943219.8744    2366700.25548   1842567.96464
  24680984.601    -1302670.702 5   -956722.43021
  21523449.358   -16529104.804 7 -12731383.36923
 91  4 16  0  9 45.0030000  0  4G13G 2G15G 6
  22307535.694   -12641513.330 7  -9419038.49821
  21946063.2184    2381641.60948   1854210.57764
  24682968.0624   -1292236.82845   -948592.10861
  21522370.468   -16534772.970 7 -12735800.10224
 91  4 16  0 10  0.0030000  0  4G13G 2G15G 6
  22300683.4054  -12677507.44647  -9447085.75361
  21948915.4604    2396627.29248   1865887.73664
  24684986.382    -1281664.249 5   -940353.69321
  21521310.280   -16540346.548 7 -12740143.13824
 91  4 16  0 10 15.0030000  0  4G13G 2G15G 6
  22293858.7964  -12713383.16147  -9475040.72861
  21951775.6014    2411656.38548   1877598.70963
  24687019.8274   -1270954.03645   -932008.03561
  21520266.788   -16545826.387 7 -12744413.12823
 91  4 16  0 10 30.0030000  0  4G13G 2G15G 6
  22287053.3904  -12749136.73747  -9502900.55161
  21954644.6714    2426731.86448   1889345.83664
  24689081.804    -1260103.104 5   -923552.73821
  21519241.593   -16551209.182 7 -12748607.50323
 91  4 16  0 10 45.0030000  0  4G13G 2G15G 6
  22280271.874   -12784770.046 6  -9530666.65221
  21957520.7334    2441851.81648   1901127.60664
  24691176.6404   -1249113.34645   -914989.28861
  21518237.226   -16556496.522 7 -12752727.48623
 91  4 16  0 11  0.0030000  0  4G13G 2G15G 6
  22273513.093   -12820280.668 6  -9558337.15921
  21960407.3044    2457018.68048   1912945.93664
  24693284.202    -1237982.318 5   -906315.73821
  21517249.827   -16561685.742 7 -12756771.01823
 91  4 16  0 11 15.0030000  0  4G13G 2G15G 6
  22266780.304   -12855670.205 7  -9585913.31521
  21963300.0224    2472230.42748   1924799.24963
  24695436.4214   -1226712.11846   -897533.75061
  21516279.374   -16566778.696 7 -12760739.53223
 91  4 16  0 11 30.0030000  0  4G13G 2G15G 6
  22260067.897   -12890941.822 6  -9613397.59021
  21966206.2024    2487483.51648   1936684.76464
  24697608.460    -1215306.172 6   -888645.98321
  21515329.1084  -16571778.60847 -12764635.54263
 91  4 16  0 11 45.0030000  0  4G13G 2G15G 6
  22253378.5854  -12926091.37647  -9640786.72761
  21969115.1634    2502781.95348   1948605.62664
  24699806.819    -1203760.473 6   -879649.30321
  21514394.601   -16576681.119 7 -12768455.65723
 91  4 16  0 12  0.0030000  0  4G13G 2G15G 6
  22246713.749   -12961119.263 7  -9668081.08521
  21972036.5464    2518124.99048   1960561.23864
  24702023.632    -1192075.632 6   -870544.22621
  21513482.483   -16581486.822 7 -12772200.34323
 91  4 16  0 12 15.0030000  0  4G13G 2G15G 6
  22240070.2184  -12996025.82547  -9695280.89461
  21974964.1014    2533511.92148   1972551.04964
  24704281.187    -1180252.327 6   -861331.25821
  21512585.319   -16586196.034 7 -12775869.84523
 91  4 16  0 12 30.0030000  0  4G13G 2G15G 6
  22233453.9764  -13030808.37447  -9722384.08261
  21977901.4684    2548945.28848   1984577.04564
  24706556.187    -1168288.173 6   -852008.53421
  21511707.921   -16590806.090 7 -12779462.07323
 91  4 16  0 12 45.0030000  0  4G13G 2G15G 6
  22226856.913   -13065470.432 7  -9749393.37521
  21980844.4294    2564421.42548   1996636.36364
  24708852.8044   -1156186.60446   -842578.73861
  21510846.210   -16595320.286 7 -12782979.60423
 91  4 16  0 13  0.0030000  0  4G13G 2G15G 6
  22220281.6084  -13100012.64047  -9776309.28561
  21983799.6084    2579939.25448   2008728.17063
  24711187.694    -1143948.930 6   -833042.87221
  21510007.3194  -16599739.56947 -12786423.17463
 91  4 16  0 13 15.0030000  0  4G13G 2G15G 6
  22213733.0774  -13134430.06047  -9803127.94861
  21986760.4834    2595503.51548   2020856.16164
  24713541.444    -1131570.250 6   -823397.18121
  21509186.358   -16604058.879 7 -12789788.84723
 91  4 16  0 13 30.0030000  0  4G13G 2G15G 6
  22207206.9604  -13168727.73647  -9829853.32261
  21989730.6874    2611109.03448   2033016.30264
  24715921.163    -1119055.738 6   -813645.58721
  21508381.390   -16608283.140 7 -12793080.45923
 91  4 16  0 13 45.0030000  0  4G13G 2G15G 6
  22200701.4684  -13202903.80247  -9856483.92261
  21992708.0934    2626757.44248   2045209.86364
  24718328.0694   -1106403.86246   -803786.95661
  21507598.085   -16612410.470 7 -12796296.53923
 91  4 16  0 14  0.0030000  0  4G13G 2G15G 6
  22194219.249   -13236960.071 7  -9883021.17521
  21995692.6164    2642446.51548   2057435.10963
  24720763.069    -1093616.869 6   -793823.06121
  21506831.304   -16616442.953 7 -12799438.70823
 91  4 16  0 14 15.0030000  0  4G13G 2G15G 6
  22187764.976   -13270897.944 7  -9909466.18621
  21998685.8434    2658174.55348   2069690.71864
  24723223.6714   -1080696.15746   -783754.93561
  21506078.858   -16620381.788 7 -12802507.90823
 91  4 16  0 14 30.0030000  0  4G13G 2G15G 6
  22181327.9764  -13304715.73147  -9935817.61461
  22001687.1474    2673943.26048   2081978.02264
  24725710.062    -1067640.221 6   -773581.46121
  21505347.015   -16624225.225 7 -12805502.77423
 91  4 16  0 14 45.0030000  0  4G13G 2G15G 6
  22174913.991   -13338411.486 7  -9962073.95821
  22004694.0934    2689754.11048   2094298.15764
  24728216.538    -1054447.503 6   -763301.40621
  21504633.218   -16627971.499 7 -12808421.92523
 91  4 16  0 15  0.0030000  0  4G13G 2G15G 6
  22168530.7024  -13371983.72947  -9988234.06061
  22007711.3354    2705608.48748   2106652.21764
  24730757.046    -1041116.867 6   -752913.89721
  21503938.538   -16631619.025 7 -12811264.12823
 91  4 16  0 15 15.0030000  0  4G13G 2G15G 6
  22162162.8274  -13405432.34847 -10014297.81961
  22010737.5544    2721506.02547   2119039.90964
  24733320.460    -1027648.246 6   -742418.85721
  21503263.968   -16635167.711 7 -12814029.31223
 91  4 16  0 15 30.0030000  0  4G13G 2G15G 6
  22155819.6324  -13438756.14447 -10040264.32061
  22013769.9764    2737447.59947   2131461.91064
  24735902.577    -1014040.998 6   -731815.78521
  21502608.382   -16638616.532 7 -12816716.68623
 91  4 16  0 15 45.0030000  0  4G13G 2G15G 6
  22149506.3974  -13471956.27247 -10066134.45961
  22016813.3124    2753431.86448   2143917.18063
  24738521.8904   -1000296.41346   -721105.70661
  21501971.655   -16641966.503 7 -12819327.03123
 91  4 16  0 16  0.0030000  0  4G13G 2G15G 6
  22143210.0854  -13505034.36547 -10091909.49661
  22019862.3274    2769457.12848   2156404.40164
  24741167.4604    -986416.28946   -710290.03461
  21501353.226   -16645219.174 7 -12821861.56123
 91  4 16  0 16 15.0030000  0  4G13G 2G15G 6
  22136939.3124  -13537987.17647 -10117586.91261
  22022921.9134    2785526.27048   2168925.80463
  24743828.8744    -972397.64346   -699366.41361
  21500752.108   -16648371.417 7 -12824317.83023
 91  4 16  0 16 30.0030000  0  4G13G 2G15G 6
  22130691.593   -13570815.921 7 -10143167.64721
  22025985.4834    2801637.68748   2181480.16464
  24746527.0224    -958242.00046   -688336.03761
  21500173.960   -16651424.519 7 -12826696.84423
 91  4 16  0 16 45.0030000  0  4G13G 2G15G 6
  22124468.562   -13603517.702 7 -10168649.47221
  22029060.0544    2817794.08848   2194069.56063
  24749249.796     -943946.689 6   -677196.81021
  21499608.022   -16654375.402 7 -12828996.21823
 91  4 16  0 17  0.0030000  0  4G13G 2G15G 6
  22118270.351   -13636095.003 7 -10194034.27321
  22032143.0224    2833992.87148   2206691.99563
  24751991.999     -929514.427 6   -665950.87521
  21499066.499   -16657226.615 7 -12831217.92723
 91  4 16  0 17 15.0030000  0  4G13G 2G15G 6
  22112093.249   -13668547.290 7 -10219321.67121
  22035233.8044    2850234.52648   2219347.83563
  24754762.4994    -914944.86246   -654597.93361
  21498544.757   -16659977.387 7 -12833361.36323
 91  4 16  0 17 30.0030000  0  4G13G 2G15G 6
  22105941.8904  -13700872.86847 -10244510.34561
  22038332.8744    2866520.32848   2232038.06563
  24757563.147     -900236.276 6   -643136.68021
  21498038.819   -16662626.178 7 -12835425.34223
 91  4 16  0 17 45.0030000  0  4G13G 2G15G 6
  22099814.835   -13733071.145 7 -10269599.79821
  22041440.8664    2882851.01348   2244763.28063
  24760393.9444    -885388.54946   -631567.00661
  21497556.069   -16665172.229 7 -12837409.26523
 91  4 16  0 18  0.0030000  0  4G13G 2G15G 6
  22093709.9294  -13765144.59647 -10294592.00861
  22044556.1324    2899223.64748   2257521.17463
  24763244.0624    -870404.62345   -619891.20161
  21497091.983   -16667618.175 7 -12839315.18223
 91  4 16  0 18 15.0030000  0  4G13G 2G15G 6
  22087631.101   -13797089.226 7 -10319483.82921
  22047678.3904    2915642.12148   2270314.79663
  24766120.397     -855280.435 5   -608106.11221
  21496646.343   -16669959.753 7 -12841139.76923
 91  4 16  0 18 30.0030000  0  4G13G 2G15G 6
  22081575.327   -13828907.919 7 -10344277.51421
  22050812.5464    2932102.91748   2283141.39163
  24769022.835     -840019.435 5   -596214.40321
  21496217.6014  -16672200.25247 -12842885.60263
 91  4 16  0 18 45.0030000  0  4G13G 2G15G 6
  22075547.304   -13860599.241 7 -10368971.97021
  22053954.1164    2948607.44348   2296002.06263
  24771948.913     -824620.337 5   -584215.09421
  21495810.4764  -16674337.99347 -12844551.36363
 91  4 16  0 19  0.0030000  0  4G13G 2G15G 6
  22069541.147   -13892163.604 7 -10393567.48721
  22057101.4444    2965155.04548   2308896.30163
  24774909.827     -809083.572 5   -572108.49021
  21495423.101   -16676373.340 7 -12846137.33023
 91  4 16  0 19 15.0030000  0  4G13G 2G15G 6
  22063557.1714  -13923600.52947 -10418063.69962
  22060258.6794    2981745.98248   2321824.30563
  24777889.421     -793409.026 5   -559894.53721
  21495057.171   -16678305.835 7 -12847643.15323
 91  4 16  0 19 30.0030000  0  4G13G 2G15G 6
  22057599.8904  -13954913.78747 -10442463.54462
  22063423.4994    2998376.25048   2334782.95863
  24780897.788     -777600.645 5   -547576.30221
  21494707.804   -16680139.099 7 -12849071.65723
 91  4 16  0 19 45.0030000  0  4G13G 2G15G 6
  22051667.2024  -13986095.70447 -10466761.04461
  22066598.5154    3015053.28148   2347778.04363
  24783937.0154    -761651.30045   -535148.21461
  21494377.6944  -16681865.87747 -12850417.19063
 91  4 16  0 20  0.0030000  0  4G13G 2G15G 6
  22045755.9054  -14017151.57147 -10490960.32361
  22069778.6714    3031771.54048   2360805.26163
  24786993.2024    -745566.52345   -522614.58261
  21494068.3044  -16683491.15247 -12851683.63363
 91  4 16  0 20 15.0030000  0  4G13G 2G15G 6
  22039872.093   -14048078.844 7 -10515059.39621
  22072968.4834    3048533.45048   2373866.48163
  24790078.108     -729343.868 5   -509973.54521
  21493780.3514  -16685012.46547 -12852869.06363
 91  4 16  0 20 30.0030000  0  4G13G 2G15G 6
  22034008.7654  -14078876.95547 -10539057.82862
  22076165.7964    3065339.31148   2386961.96263
  24793196.835     -712983.083 5   -497224.86721
  21493508.366   -16686429.037 7 -12853972.86923
 91  4 16  0 20 45.0030000  0  4G13G 2G15G 6
  22028172.2884  -14109550.82747 -10562959.45062
  22079370.8354    3082183.96748   2400087.66063
  24796344.413     -696489.546 6   -484372.75321
  21493261.288   -16687746.081 7 -12854999.12123
 91  4 16  0 21  0.0030000  0  4G13G 2G15G 6
  22022359.218   -14140097.816 7 -10586762.20621
  22082585.0154    3099069.75248   2413245.40963
  24799499.9524    -679860.51945   -471415.03561
  21493028.3124  -16688960.59047 -12855945.48463
 91  4 16  0 21 15.0030000  0  4G13G 2G15G 6
  22016569.4914  -14170521.05347 -10610468.52461
  22085804.9914    3115993.71048   2426432.89864
  24802690.0624    -663098.93146   -458354.04961
  21492814.179   -16690075.586 7 -12856814.29723
 91  4 16  0 21 30.0030000  0  4G13G 2G15G 6
  22010803.4914  -14200817.88247 -10634076.34661
  22089033.8744    3132957.91248
  24805895.6014    -646202.90845
  21492625.554   -16691088.706 7 -12857603.72323
 91  4 16  0 21 45.0030000  0  4G13G 2G15G 6
  22005062.0544  -14230992.35747 -10657588.84661
  22092269.7964    3149958.31148
  24809144.0624    -629176.94946
  21492450.226   -16692003.823 7 -12858316.78523
 91  4 16  0 22  0.0030000  0  4G13G 2G15G 6
  21999345.257   -14261041.946 7 -10681004.00421
  22095510.2184    3166997.21748   2466175.87963
  24812411.163     -612018.777 6   -418551.36421
  21492295.7804  -16692818.49047 -12858951.58463
 91  4 16  0 22 15.0030000  0  4G13G 2G15G 6
  21993649.937   -14290968.257 7 -10704323.12421
  22098760.7574    3184072.68248   2479481.43563
  24815698.9374    -594730.00346   -405079.59161
  21492155.7184  -16693534.20547 -12859509.27363
 91  4 16  0 22 30.0030000  0  4G13G 2G15G 6
  21987979.062   -14320773.089 7 -10727547.58521
  22102014.8274    3201182.72348   2492813.93663
  24819017.2104    -577312.84846   -391507.78361
  21492039.702   -16694152.836 7 -12859991.30823
 91  4 16  0 22 45.0030000  0  4G13G 2G15G 6
  21982328.413   -14350452.462 7 -10750674.29321
  22105279.6474    3218331.22148   2506176.39364
  24822350.7264    -559763.36046   -377832.86061
  21491939.335   -16694670.194 7 -12860394.42623
 91  4 16  0 23  0.0030000  0  4G13G 2G15G 6
  21976704.9294  -14380011.07647 -10773706.91661
  22108549.2724    3235513.17448   2519564.92064
  24825711.6164    -542086.65746   -364058.82361
  21491862.2184  -16695091.10847 -12860722.40263
 91  4 16  0 23 15.0030000  0  4G13G 2G15G 6
  21971101.577   -14409448.248 7 -10796644.87721
  22111827.0384    3252729.03048   2532979.86864
  24829107.483     -524282.447 6   -350185.41721
  21491799.171   -16695414.996 7 -12860974.77123
 91  4 16  0 23 30.0030000  0  4G13G 2G15G 6
  21965525.874   -14438758.411 7 -10819483.86621
  22115108.4134    3269984.26848   2546425.50163
  24832515.5384    -506345.27646   -336208.42061
  21491757.765   -16695636.057 7 -12861147.01023
 91  4 16  0 23 45.0030000  0  4G13G 2G15G 6
  21959969.812   -14467950.018 7 -10842230.48321
  22118398.1944    3287270.46148   2559895.25664
  24835959.1164    -488283.47146   -322134.29861
  21491736.351   -16695762.596 7
 91  4 16  0 24  0.0030000  0  4G13G 2G15G 6
  21954437.413   -14497019.377 7 -10864881.85721
  22121694.9684    3304590.88448   2573391.68464
  24839414.5384    -470093.96746   -307960.65761
  21491728.460   -16695791.063 7
 91  4 16  0 24 15.0030000  0  4G13G 2G15G 6
  21948931.6084  -14525966.71347 -10887438.11961
  22124997.3354    3321944.92848   2586914.31063
  24842898.7804    -451777.52146   -293688.10561
  21491741.804   -16695721.721 7
 91  4 16  0 24 30.0030000  0  4G13G 2G15G 6
  21943441.6944  -14554792.75147 -10909899.88161
  22128304.6874    3339331.88248   2600462.58164
  24846417.1244    -433334.78346   -279317.14661
  21491772.9444  -16695555.16447
 91  4 16  0 24 45.0030000  0  4G13G 2G15G 6
  21937982.022   -14583496.388 7 -10932266.26321
  22131621.2184    3356752.88348   2614037.38564
  24849944.7724    -414764.53845   -264846.83661
  21491823.476   -16695290.040 7
 91  4 16  0 25  0.0030000  0  4G13G 2G15G 6
  21932542.976   -14612078.535 7 -10954537.97521
  22134942.6554    3374206.51448   2627637.60764
  24853497.6164    -396068.53945   -250278.51861
  21491892.812   -16694927.581 7 -12860594.86123
 91  4 16  0 25 15.0030000  0  4G13G 2G15G 6
  21927126.374   -14640537.567 7 -10976713.75021
  22138270.2964    3391694.19048   2641264.36163
  24857082.8974    -377245.39845   -235611.13261
  21491979.7804  -16694466.08747 -12860235.24263
 91  4 16  0 25 30.0030000  0  4G13G 2G15G 6
  21921735.1244  -14668870.88747 -10998791.58961
  22141603.9134    3409218.46048   2654919.63064
  24860690.8744    -358292.85345   -220842.92861
  21492086.858   -16693902.857 7 -12859796.35023
 91  4 16  0 25 45.0030000  0  4G13G 2G15G 6
  21916366.2804  -14697083.01847 -11020774.98161
  22144945.1404    3426774.57048   2668599.71064
  24864325.038     -339215.196 5   -205977.23021
  21492214.304   -16693242.298 7 -12859281.61223
 91  4 16  0 26  0.0030000  0  4G13G 2G15G 6
  21911022.5464  -14725172.04447 -11042662.45261
  22148291.8744    3444364.49848   2682306.14164
  24867978.819     -320010.675 5   -191012.68421
  21492360.007   -16692482.345 7 -12858689.42623
 91  4 16  0 26 15.0030000  0  4G13G 2G15G 6
  21905698.062   -14753135.288 7 -11064451.91422
  22151646.9994    3461990.63648   2696040.78564
  24871651.6014    -300677.33745   -175947.76261
  21492521.694   -16691620.394 7 -12858017.76523
 91  4 16  0 26 30.0030000  0  4G13G 2G15G 6
  21900401.429   -14780974.460 7 -11086144.69321
  22155009.4994    3479650.95548   2709802.06964
  24875362.4444    -281217.16345   -160783.98261
  21492703.030   -16690658.338 7 -12857268.09323
 91  4 16  0 26 45.0030000  0  4G13G 2G15G 6
  21895128.710   -14808690.149 7 -11107741.25421
  22158373.4444    3497344.80548   2723589.48063
  24879092.5154    -261630.88745   -145521.95561
  21492906.796   -16689596.563 7 -12856440.72023
 91  4 16  0 27  0.0030000  0  4G13G 2G15G 6
  21889879.0544  -14836282.29747 -11129241.54362
  22161747.9834    3515072.20148   2737403.03064
  24882836.4834    -241918.50545   -130161.64661
  21493127.874   -16688434.924 7 -12855535.53523
 91  4 16  0 27 15.0030000  0  4G13G 2G15G 6
  21884652.687   -14863747.783 7 -11150643.13722
  22165127.3514    3532835.85848   2751244.83164
  24886601.390     -222077.149 5   -114700.84821
  21493370.2494  -16687170.14847 -12854549.98963
 91  4 16  0 27 30.0030000  0  4G13G 2G15G 6
  21879451.312   -14891083.792 7 -11171943.85021
  22168515.8354    3550638.32748   2765116.88464
  24890408.3974    -202104.45145    -99137.69661
  21493629.2884  -16685799.56547 -12853481.99463
 91  4 16  0 27 45.0030000  0  4G13G 2G15G 6
  21874273.319   -14918293.515 7 -11193146.14721
  22171910.4054    3568476.62148   2779016.84964
  24894240.874     -182003.810 5    -83474.84521
  21493909.562   -16684326.266 7 -12852333.95223
 91  4 16  0 28  0.0030000  0  4G13G 2G15G 6
  21869117.413   -14945369.358 7 -11214244.12321
  22175314.1084    3586357.76748   2792950.20864
  24898085.5624    -161767.82745    -67706.54461
  21494212.452   -16682742.647 7 -12851099.94523
 91  4 16  0 28 15.0030000  0  4G13G 2G15G 6
  21863991.085   -14972315.308 7 -11235240.88521
  22178724.9994    3604277.82348   2806913.88364
  24901967.3354    -141400.62545    -51836.00261
  21494532.1714  -16681052.69447 -12849783.09163
 91  4 16  0 28 30.0030000  0  4G13G 2G15G 6
  21858888.179   -14999131.523 7 -11256136.55722
  22182140.9054    3622236.66648   2820907.77964
  24905865.0624    -120902.81345    -35863.67261
  21494874.351   -16679256.424 7 -12848383.39023
 91  4 16  0 28 45.0030000  0  4G13G 2G15G 6
  21853809.819   -15025817.325 7 -11276930.61322
  22185566.0384    3640234.47948   2834932.04464
  24909793.054     -100274.097 6    -19789.33521
  21495237.358   -16677353.166 7 -12846900.32123
 91  4 16  0 29  0.0030000  0  4G13G 2G15G 6
  21848757.960   -15052373.297 7 -11297623.49321
  22188998.1474    3658270.68048   2848986.22264
  24913738.5304     -79515.04746     -3613.45561
  21495620.124   -16675343.548 7 -12845334.36923
 91  4 16  0 29 15.0030000  0  4G13G 2G15G 6
  21843729.1014  -15078796.53347 -11318212.94062
  22192438.2024    3676348.03548   2863072.47064
  24917718.0464     -58623.16646     12665.92461
  21496022.3044  -16673224.40447 -12843683.08063
 91  4 16  0 29 30.0030000  0  4G13G 2G15G 6
  21838725.124   -15105088.198 7 -11338699.87321
  22195884.0934    3694464.88548   2877189.49464
  24921714.9764     -37600.09746     29047.53061
  21496448.4444  -16670997.20147 -12841947.59163
 91  4 16  0 29 45.0030000  0  4G13G 2G15G 6
  21833748.2334  -15131246.89347 -11359083.20361
  22199340.9294    3712623.02648   2891338.69663
  24925743.8584     -16444.12046     45532.69861
  21496892.3974  -16668660.07047 -12840126.44163
 91  4 16  0 30  0.0030000  0  4G13G 2G15G 6
  21828796.077   -15157270.552 7 -11379361.30521
  22202805.7024    3730824.05248   2905521.31064
  24929795.7804       4846.16146     62122.51761
  21497358.054   -16666211.060 7 -12838218.11323
 91  4 16  0 30 15.0030000  0  4G13G 2G15G 6
  21823868.483   -15183162.415 7 -11399536.70622
  22206276.4604    3749064.69848   2919734.79464
  24933869.8514      26267.49346     78814.45561
  21497845.3124  -16663653.35047 -12836225.08463
 91  4 16  0 30 30.0030000  0  4G13G 2G15G 6
  21818968.929   -15208920.459 7 -11419607.83021
  22209754.5694    3767346.90648   2933980.66863
  24937971.0464      47821.68946     95609.93161
  21498351.9524  -16660984.83647 -12834145.72363
 91  4 16  0 30 45.0030000  0  4G13G 2G15G 6
  21814091.0694  -15234543.76247 -11439573.97262
  22213242.4834    3785671.29248   2948259.41063
  24942100.8434      69509.39346    112509.42761
  21498880.210   -16658204.637 7 -12831979.32023
 91  4 16  0 31  0.0030000  0  4G13G 2G15G 6
  21809240.5934  -15260035.04347 -11459437.23162
  22216735.8124    3804035.06448   2962568.84463
  24946252.9214      91327.30246    129510.40561
  21499430.0074  -16655315.47847 -12829728.01863
 91  4 16  0 31 15.0030000  0  4G13G 2G15G 6
  21804414.140   -15285393.736 7 -11479197.17422
  22220236.9994    3822438.68348   2976909.32263
  24950431.3974     113275.92146    146613.21461
  21500001.4684  -16652316.53947 -12827391.17963
 91  4 16  0 31 30.0030000  0  4G13G 2G15G 6
  21799616.108   -15310615.711 7 -11498850.59622
  22223750.2414    3840886.10848   2991283.93563
  24954623.2184     135359.24846    163821.00361
  21500593.2024  -16649203.68547 -12824965.57263
 91  4 16  0 31 45.0030000  0  4G13G 2G15G 6
  21794840.2494  -15335702.18847 -11518398.43161
  22227267.1324    3859375.89848   3005691.56663
  24958857.3584     157575.61346    181132.45361
  21501206.476   -16645978.197 7 -12822452.19423
 91  4 16  0 32  0.0030000  0  4G13G 2G15G 6
  21790091.2724  -15360651.12747 -11537839.08961
  22230793.0694    3877909.89248   3020133.63163
  24963109.1794     179926.59546    198548.79061
  21501843.1794  -16642638.06647 -12819849.48563
 91  4 16  0 32 15.0030000  0  4G13G 2G15G 6
  21785368.124   -15385463.921 7 -11557173.65321
  22234327.9914    3896486.67548   3034609.04263
  24967391.632      202410.917 6    216069.01821
  21502501.0694  -16639184.53847 -12817158.41863
 91  4 16  0 32 30.0030000  0  4G13G 2G15G 6
  21780673.2264  -15410138.28947 -11576400.37061
  22237873.3664    3915108.35248   3049119.43663
  24971685.1474     225030.25745    233694.46061
  21503180.2184  -16635615.24147 -12814377.14963
 91  4 16  0 32 45.0030000  0  4G13G 2G15G 6
  21776003.835   -15434677.546 7 -11595521.79921
  22241423.2574    3933771.53248   3063662.16963
  24976027.921      247781.171 5    251422.42321
  21503879.1714  -16631933.39247 -12811508.16763
 91  4 16  0 33  0.0030000  0  4G13G 2G15G 6
  21771362.5694  -15459079.94147 -11614536.57561
  22244982.2494    3952477.69648   3078238.39663
  24980377.093      270665.240 5    269254.15621
  21504599.460   -16628137.280 7 -12808550.14923
 91  4 16  0 33 15.0030000  0  4G13G 2G15G 6
  21766745.812   -15483345.627 7 -11633444.82022
  22248550.1554    3971226.63348   3092847.95663
  24984746.2574     293682.04345    287189.34961
  21505347.0694  -16624226.90747 -12805503.10063
 91  4 16  0 33 30.0030000  0  4G13G 2G15G 6
  21762151.8514  -15507472.40047 -11652244.83162
  22252126.4374    3990020.28348   3107492.35163
  24989157.0384     316833.63045    305229.52961
  21506112.3974  -16620200.15947 -12802365.37263
 91  4 16  0 33 45.0030000  0  4G13G 2G15G 6
  21757589.601   -15531460.012 7 -11670936.40622
  22255711.2184    4008859.12448   3122171.95663
  24993593.8974     340120.04845    323374.81361
  21506901.2494  -16616056.64147 -12799136.65063
 91  4 16  0 34  0.0030000  0  4G13G 2G15G 6
  21753050.843   -15555310.999 7 -11689521.51322
  22259306.2964    4027740.54348   3136884.74563
  24998046.140      363538.503 5    341622.96421
  21507711.4524  -16611798.68847 -12795818.76063
 91  4 16  0 34 15.0030000  0  4G13G 2G15G 6
  21748535.405   -15579026.588 7 -11708001.11722
  22262905.9294    4046662.91648   3151629.44763
  25002532.562      387087.411 5    359972.74921
  21508543.0074  -16607427.54247 -12792412.66163
 91  4 16  0 34 30.0030000  0  4G13G 2G15G 6
  21744049.890   -15602606.117 7 -11726374.70422
  22266514.6014    4065626.83048   3166406.51863
  25007038.5854     410767.27845    378424.59861
  21509395.1324  -16602942.54647 -12788917.85663
 91  4 16  0 34 45.0030000  0  4G13G 2G15G 6
  21739590.8904  -15626047.63447 -11744640.75562
  22270134.0224    4084634.05948   3181217.34563
  25011564.3514     434579.71445    396979.73361
  21510271.2264  -16598341.85947 -12785332.90063
 91  4 16  0 35  0.0030000  0  4G13G 2G15G 6
  21735152.3354  -15649352.41547 -11762800.25262
  22273756.4764    4103683.36648   3196060.95263
  25016118.7804     458523.18545    415636.97561
  21511170.351   -16593626.432 7 -12781658.52923
 91  4 16  0 35 15.0030000  0  4G13G 2G15G 6
  21730743.671   -15672525.040 7 -11780856.76522
  22277387.7104    4122769.95948   3210933.61763
  25020709.202      482592.614 5    434392.37721
  21512087.5854  -16588800.95247 -12777898.40963
 91  4 16  0 35 30.0030000  0  4G13G 2G15G 6
  21726359.5154  -15695561.26947 -11798807.01162
  22281030.6634    4141897.95548   3225838.53863
  25025305.851      506792.076 5    453249.09521
  21513026.6714  -16583861.08247 -12774049.15163
 91  4 16  0 35 45.0030000  0  4G13G 2G15G 6
  21722001.6944  -15718462.07247 -11816651.72162
  22284676.6404    4161066.18148   3240774.81363
  25029937.1404     531120.34645    472206.18761
  21513989.1634  -16578807.71347 -12770111.46163
 91  4 16  0 36  0.0030000  0  4G13G 2G15G 6
  21717670.624   -15741223.704 7 -11834387.98622
  22288333.7024    4180278.73648   3255745.62263
  25034590.1944     555581.20045    491266.59161
  21514973.866   -16573636.755 7 -12766082.12823
 91  4 16  0 36 15.0030000  0  4G13G 2G15G 6
  21713366.0774  -15763848.66947 -11852017.75762
  22291996.1554    4199532.72348   3270748.72463
  25039273.0074     580171.85545    510428.13961
  21515978.9994  -16568350.88947 -12761963.26863
 91  4 16  0 36 30.0030000  0  4G13G 2G15G 6
  21709086.163   -15786333.264 7 -11869538.15122
  22295666.9764    4218831.68248   3285786.86963
  25043977.0624     604895.64745    529693.44561
  21517008.4054  -16562946.40547 -12757751.97763
 91  4 16  0 36 45.0030000  0  4G13G 2G15G 6
  21704835.296   -15808679.800 7 -11886950.95922
  22299350.4604    4238173.23348   3300858.19463
  25048700.9994     629750.13145    549060.56161
  21518057.3044  -16557425.47947 -12753449.95063
 91  4 16  0 37  0.0030000  0  4G13G 2G15G 6
  21700609.460   -15830890.403 7 -11904257.85222
  22303036.6164    4257555.35248   3315961.13563
  25053470.0074     654732.92745    568527.67261
  21519131.5304  -16551790.00447 -12749058.66463
 91  4 16  0 37 15.0030000  0  4G13G 2G15G 6
  21696405.8194  -15852963.37847 -11921457.50862
  22306732.9684    4276979.30348   3331096.67463
  25058246.2494     679844.91945    588095.46461
  21520225.1714  -16546038.64047 -12744577.07963
 91  4 16  0 37 30.0030000  0  4G13G 2G15G 6
  21692234.187   -15874899.961 7 -11938550.87422
  22310438.0694    4296443.70748   3346263.73463
  25063039.5934     705085.04345    607763.08261
  21521341.7654  -16540172.32647 -12740005.92563
 91  4 16  0 37 45.0030000  0  4G13G 2G15G 6
  21688085.9054  -15896697.03047 -11955535.53662
  22314149.6554    4315951.72348   3361464.77863
  25067868.413      730456.071 5    627532.69821
  21522479.538   -16534187.807 7 -12735342.64923
 91  4 16  0 38  0.0030000  0  3G13G 2G 6
  21683964.0934  -15918354.56447 -11972411.47262
  22317871.5224    4335503.17348   3376699.66763
  21523641.4524  -16528085.16147 -12730587.33963
 91  4 16  0 38 15.0030000  0  3G13G 2G 6
  21679869.6874  -15939874.26347 -11989180.00262
  22321601.2334    4355096.29148   3391967.02463
  21524826.1084  -16521865.96547 -12725741.20463
 91  4 16  0 38 30.0030000  0  3G13G 2G 6
  21675800.366   -15961253.265 7 -12005838.88622
  22325335.2724    4374734.20447   3407269.28664
  21526032.0384  -16515527.13547 -12720801.85363
 91  4 16  0 38 45.0030000  0  3G13G 2G 6
  21671757.983   -15982493.882 7 -12022389.94822
  22329082.226     4394414.144 8   3422604.29123
  21527260.5544  -16509070.99647 -12715771.08863
 91  4 16  0 39  0.0030000  0  3G13G 2G 6
  21667742.3514  -16003594.77947 -12038832.14162
  22332834.6554    4414137.54748   3437973.17063
  21528511.4214  -16502496.31447 -12710647.95863
 91  4 16  0 39 15.0030000  0  3G13G 2G 6
  21663753.8584  -16024555.28647 -12055164.94361
  22336596.4994    4433905.06547   3453376.42263
  21529783.3434  -16495801.95047 -12705431.56563
 91  4 16  0 39 30.0030000  0  3G13G 2G 6
  21659793.5224  -16045374.74147 -12071387.83061
  22340366.858     4453717.271 8   3468814.48423
  21531080.8664  -16488987.30547 -12700121.44363
 91  4 16  0 39 45.0030000  0  3G13G 2G 6
  21655855.4834  -16066055.93147 -12087502.97162
  22344141.999     4473571.202 8   3484285.06623
  21532399.069   -16482055.220 7 -12694719.80923
 91  4 16  0 40  0.0030000  0  3G13G 2G 6
  21651946.9444  -16086598.29247 -12103509.94362
  22347930.257     4493467.343 8   3499788.54023
  21533742.0934  -16475004.98047 -12689226.10863
 91  4 16  0 40 15.0030000  0  3G13G 2G 6
  21648066.507   -16106997.248 7 -12119405.15421
  22351725.147     4513410.067 7   3515328.31123
  21535106.6714  -16467832.16147 -12683636.89563
 91  4 16  0 40 30.0030000  0  3G13G 2G 6
  21644211.476   -16127256.672 7 -12135191.65422
  22355529.351     4533395.563 7   3530901.41323
  21536494.5854  -16460540.27647 -12677954.90163
 91  4 16  0 40 45.0030000  0  3G13G 2G 6
  21640382.085   -16147376.385 7 -12150869.28322
  22359337.093     4553423.846 7   3546507.85523
  21537904.9524  -16453129.14647 -12672179.99763
 91  4 16  0 41  0.0030000  0  3G13G 2G 6
  21636579.554   -16167353.446 7 -12166435.76322
  22363160.741     4573497.844 7   3562149.91623
  21539339.4684  -16445595.91547 -12666309.93663
 91  4 16  0 41 15.0030000  0  3G13G 2G 6
  21632804.6554  -16187189.48747 -12181892.34862
  22366989.062     4593615.714 7   3577826.16223
  21540794.7724  -16437942.08347 -12660345.90963
 91  4 16  0 41 30.0030000  0  3G13G 2G 6
  21629056.8354  -16206885.86247 -12197240.11162
  22370821.538     4613776.244 7   3593535.65123
  21542272.9134  -16430168.60547 -12654288.65063
 91  4 16  0 41 45.0030000  0  3G13G 2G 6
  21625335.874   -16226441.159 7 -12212477.94022
  22374669.210     4633980.863 7   3609279.49423
  21543775.1634  -16422274.16247 -12648137.12863
 91  4 16  0 42  0.0030000  0  3G13G 2G 6
  21621638.9524  -16245855.02847 -12227605.56562
  22378523.577     4654229.904 8   3625057.94823
  21545301.6554  -16414258.28247 -12641890.98463
 91  4 16  0 42 15.0030000  0  3G13G 2G 6
  21617973.5464  -16265128.56547 -12242623.84462
  22382384.601     4674522.132 8   3640870.05923
  21546850.0304  -16406122.06247 -12635551.06863
 91  4 16  0 42 30.0030000  0  3G13G 2G 6
  21614333.9604  -16284257.38947 -12257529.35962
  22386251.9374    4694861.56148   3656718.94863
  21548423.4134  -16397861.26147 -12629114.08563
 91  4 16  0 42 45.0030000  0  3G13G 2G 6
  21610721.8974  -16303243.53147 -12272323.69762
  22390133.272     4715246.114 8   3672603.00423
  21550016.8434  -16389477.80347 -12622581.51663
 91  4 16  0 43  0.0030000  0  3G13G 2G 6
  21607133.9054  -16322088.33847 -12287007.89862
  22394024.030     4735674.551 8   3688521.24223
  21551636.3514  -16380972.82447 -12615954.25263
 91  4 16  0 43 15.0030000  0  3G13G 2G 6
  21603576.9294  -16340794.64247 -12301584.18762
  22397913.405     4756143.786 8   3704471.28123
  21553276.0464  -16372349.06147 -12609234.43163
 91  4 16  0 43 30.0030000  0  3G13G 2G 6
  21600042.7104  -16359358.47147 -12316049.44462
  22401818.812     4776657.902 8   3720456.29123
  21554941.2724  -16363602.39447 -12602418.84963
 91  4 16  0 43 45.0030000  0  3G13G 2G 6
  21596537.991   -16377779.028 7 -12330403.06021
  22405734.476     4797217.522 8   3736476.75323
  21556629.8514  -16354732.19847 -12595507.00463
 91  4 16  0 44  0.0030000  0  3G13G 2G 6
  21593058.1324  -16396059.39147 -12344647.44362
  22409654.413     4817819.834 8   3752530.48523
  21558340.6244  -16345741.13747 -12588500.98063
 91  4 16  0 44 15.0030000  0  3G13G 2G 6
  21589608.1474  -16414197.89547 -12358781.27962
  22413584.851     4838466.359 8   3768618.66623
  21560074.0464  -16336627.58947 -12581399.51563
 91  4 16  0 44 30.0030000  0  3G13G 2G 6
  21586179.2264  -16432195.63447 -12372805.42662
  22417517.929     4859155.854 8   3784740.33323
  21561832.2264  -16327392.56847 -12574203.39363
 91  4 16  0 44 45.0030000  0  3G13G 2G 6
  21582782.4374  -16450050.46347 -12386718.21862
  22421467.5074    4879890.52348   3800897.21163
  21563612.1794  -16318033.96047 -12566910.96863
 91  4 16  0 45  0.0030000  0  3G13G 2G 6
  21579413.3354  -16467766.44147 -12400522.81962
  22425415.710     4900666.183 7   3817086.01923
  21565416.0384  -16308555.71047 -12559525.32363
 91  4 16  0 45 15.0030000  0  3G13G 2G 6
  21576069.5934  -16485336.59347 -12414213.77962
  22429380.022     4921489.734 8   3833312.15123
  21567242.7264  -16298950.60347 -12552040.82463
 91  4 16  0 45 30.0030000  0  3G13G 2G 6
  21572752.9524  -16502764.81347 -12427794.15362
  22433351.304     4942357.257 8   3849572.54423
  21569094.3824  -16289222.36047 -12544460.37563
 91  4 16  0 45 45.0030000  0  3G13G 2G 6
  21569463.8974  -16520051.52547 -12441264.25762
  22437331.679     4963268.311 7   3865866.85824
  21570968.6164  -16279371.49847 -12536784.38063
 91  4 16  0 46  0.0030000  0  3G13G 2G 6
  21566200.5774  -16537197.80447 -12454624.93662
  22441316.8194    4984221.62747   3882194.10564
  21572868.3434  -16269399.23647 -12529013.78863
 91  4 16  0 46 15.0030000  0  3G13G 2G 6
  21562964.2414  -16554199.97147 -12467873.31862
  22445314.5384    5005220.91548   3898557.17864
  21574790.2414  -16259301.67947 -12521145.57063
 91  4 16  0 46 30.0030000  0  3G13G 2G 6
  21559755.2494  -16571063.88247 -12481013.97362
  22449319.0934    5026260.44148   3914951.60263
  21576733.7884  -16249084.28347 -12513183.96263
 91  4 16  0 46 45.0030000  0  3G13G 2G 6
  21556573.5074  -16587787.21847 -12494045.08362
  22453327.038     5047342.501 8   3931379.16924
  21578700.5694  -16238744.82847 -12505127.24463
 91  4 16  0 47  0.0030000  0  3G13G 2G 6
  21553418.0694  -16604372.18247 -12506968.36562
  22457347.632     5068464.674 8   3947837.99324
  21580690.9994  -16228285.51347 -12496977.12463
 91  4 16  0 47 15.0030000  0  3G13G 2G 6
  21550289.9834  -16620815.56947 -12519781.34261
  22461377.2884    5089630.39648   3964330.74963
  21582703.9994  -16217702.88647 -12488730.92162
 91  4 16  0 47 30.0030000  0  3G13G 2G 6
  21547186.4294  -16637119.30047 -12532485.48562
  22465412.4054    5110837.67248   3980855.89564
  21584741.7264  -16206998.80747 -12480390.07763
 91  4 16  0 47 45.0030000  0  3G13G 2G 6
  21544112.4994  -16653280.43647 -12545078.51962
  22469456.0774    5132088.99548   3997415.35664
  21586803.6084  -16196170.65547 -12471952.55863
 91  4 16  0 48  0.0030000  0  3G13G 2G 6
  21541060.3584  -16669303.00247 -12557563.57362
  22473504.3904    5153380.73848   4014006.31963
  21588887.3044  -16185221.84847 -12463421.02163
 91  4 16  0 48 15.0030000  0  3G13G 2G 6
  21538040.3124  -16685182.71047 -12569937.32162
  22477567.991     5174717.271 8   4030632.17923
  21590993.6474  -16174148.18747 -12454792.19963
 91  4 16  0 48 30.0030000  0  3G13G 2G 6
  21535044.9134  -16700920.84847 -12582200.74962
  22481636.804     5196097.144 8   4047291.80823
  21593123.5154  -16162950.77247 -12446066.94863
 91  4 16  0 48 45.0030000  0  3G13G 2G 6
  21532076.210   -16716516.460 7 -12594353.11322
  22485714.0854    5217521.19848   4063985.86463
  21595278.1874  -16151628.60047 -12437244.47763
 91  4 16  0 49  0.0030000  0  3G13G 2G 6
  21529135.741   -16731967.721 7 -12606393.00622
  22489799.280     5238991.145 8   4080715.67423
  21597457.1164  -16140180.01747 -12428323.50863
 91  4 16  0 49 15.0030000  0  3G13G 2G 6
  21526223.2334  -16747276.09847 -12618321.55162
  22493895.187     5260505.484 8   4097480.08423
  21599659.6554  -16128606.31047 -12419305.03763
